GFSWCAN_con_mucape_000.txt.gz
CAPE
70 70 70 70 66 65 64 82 97 102 113 120 125 118 114 89 77 62 51 93 50 0 0 0 0 0 1 14 16 3 0 0 59 277 195 129 132 125 99 203 567 496 415 159 303 362 331 166 440 665 658 457 448 455
58 70 82 91 86 74 70 38 84 107 122 121 111 111 67 55 30 47 37 281 314 69 0 3 1 2 0 0 0 0 0 22 49 60 195 208 400 252 167 198 454 384 226 210 284 208 218 100 275 457 589 615 600 605
63 85 141 141 83 88 71 28 66 90 118 107 90 78 56 32 30 55 63 175 90 57 0 4 1 0 0 0 1 0 0 25 62 18 35 56 215 436 499 562 356 454 420 479 510 243 70 38 66 185 323 374 360 374
38 51 173 206 132 83 84 74 70 78 116 54 30 46 47 34 0 12 58 98 86 2 0 0 0 0 0 0 0 0 0 31 72 66 74 66 176 291 389 750 903 252 353 438 280 105 17 9 8 14 86 114 206 253
29 45 74 64 52 53 66 76 75 77 23 16 19 39 32 42 32 100 134 73 84 50 0 0 0 0 0 0 0 0 2 103 62 62 62 103 66 57 325 318 106 100 322 488 137 123 46 0 15 2 6 44 41 75
49 49 64 56 47 50 63 76 82 45 27 43 32 48 32 32 24 66 39 11 41 51 0 0 0 0 25 5 0 0 0 18 40 33 32 30 35 42 217 81 27 64 101 29 79 45 45 8 0 10 12 14 1 14
21 16 45 51 69 54 64 67 56 23 22 45 40 45 39 44 52 55 0 0 3 45 0 25 60 104 59 38 18 4 0 4 0 0 1 2 1 37 71 32 7 22 37 16 0 23 10 17 46 11 12 3 0 0
0 2 17 43 44 47 39 42 44 28 11 4 11 24 37 35 38 0 0 0 1 1 41 44 52 151 98 146 85 13 1 0 1 1 0 28 24 2 9 4 5 9 38 22 19 17 21 17 0 0 0 0 1 0
24 25 33 69 74 61 40 38 43 32 21 11 2 0 19 19 0 31 4 16 9 10 45 9 32 107 132 92 94 22 5 0 0 26 178 80 0 5 0 0 9 14 40 12 17 0 0 16 0 3 18 2 14 0
51 60 65 62 60 56 59 51 29 29 11 0 5 43 47 48 0 16 40 0 3 2 16 30 34 86 61 221 110 86 56 1 11 186 150 3 0 1 17 9 8 5 13 0 0 13 16 0 0 0 17 0 2 0
44 42 42 39 29 34 34 24 2 0 7 18 23 29 51 0 63 52 4 1 7 9 47 47 66 82 108 188 217 178 120 104 0 123 13 0 0 0 0 0 0 1 0 3 4 1 0 0 3 4 0 19 1 5
34 18 3 1 0 0 3 3 0 0 0 13 0 0 0 45 49 15 64 38 3 90 122 134 22 24 33 68 183 206 134 118 73 127 89 0 0 0 0 0 42 44 0 0 0 0 1 0 0 0 0 0 0 0
0 0 0 0 0 0 0 0 0 0 0 0 0 0 3 23 26 115 106 157 156 105 207 193 146 0 139 112 186 255 153 219 68 97 97 0 0 74 71 63 84 58 57 39 14 3 1 0 0 0 0 0 0 1
0 0 0 0 0 0 0 2 0 0 0 0 0 0 0 10 19 65 123 185 244 252 246 209 230 123 186 134 136 85 215 212 114 0 80 132 127 43 86 44 21 14 8 9 2 5 1 2 1 4 11 4 8 17
0 0 0 0 0 0 0 0 1 0 0 0 0 2 15 5 52 127 187 240 177 184 256 288 76 108 132 177 116 193 89 88 22 4 77 278 173 184 166 148 121 118 89 69 41 19 15 14 11 14 41 62 47 54
0 0 0 0 0 0 0 0 0 0 1 28 13 45 96 89 66 60 71 203 171 159 343 118 20 40 137 156 75 107 40 0 0 0 98 236 275 210 279 219 206 197 160 117 74 50 25 26 42 54 52 53 91 117
0 0 0 0 0 0 0 0 3 4 28 34 77 93 88 73 48 11 39 60 74 282 249 145 157 141 195 34 0 7 13 1 66 149 309 357 338 325 335 285 244 214 242 223 172 134 165 89 58 46 51 58 40 52
0 0 0 0 0 0 0 0 0 19 34 28 25 15 17 37 29 34 19 43 65 146 236 153 92 44 50 0 9 72 17 109 243 346 360 320 300 304 308 319 310 329 287 249 213 130 106 102 38 34 41 56 38 14
0 0 0 0 1 3 0 0 0 8 11 12 2 5 5 12 12 14 37 36 19 39 94 56 61 74 90 126 144 177 191 248 272 236 249 328 399 402 441 376 325 279 182 71 17 32 41 43 46 41 38 41 46 43
0 0 0 0 0 4 0 1 0 1 1 1 4 6 14 7 3 2 5 47 99 54 34 30 58 57 47 21 20 50 88 174 318 197 282 479 184 228 155 89 32 9 4 2 0 0 1 3 1 6 11 21 31 41
0 0 0 0 0 1 0 0 8 4 6 5 3 4 24 20 17 11 0 0 0 13 16 36 33 43 107 99 47 44 147 200 295 315 287 8 7 3 0 0 0 0 0 0 0 0 0 0 0 0 0 0 0 0
0 0 0 0 0 0 0 0 5 7 8 9 7 14 14 17 50 40 43 77 104 136 95 148 251 275 305 357 371 329 356 281 252 245 85 69 7 2 0 0 0 0 0 0 0 0 0 0 0 0 0 0 0 0
0 0 0 0 4 0 0 0 0 0 0 14 21 7 0 7 0 0 0 16 24 70 26 175 251 334 496 418 426 309 220 235 497 536 485 78 3 1 0 0 0 0 0 0 0 0 0 0 0 0 0 0 0 1
0 0 0 0 0 0 0 0 0 0 0 1 0 0 0 11 19 16 70 166 281 472 525 354 621 274 142 75 0 0 0 0 4 58 18 0 0 0 0 0 0 0 0 0 0 0 0 0 0 0 0 0 3 6
0 0 0 1 0 0 27 67 29 36 82 72 83 110 166 59 110 114 146 224 354 348 171 22 3 0 2 4 0 0 0 0 0 0 1 1 0 1 3 1 0 0 0 0 0 0 0 0 0 0 0 0 0 0
7 3 13 29 61 40 94 175 191 147 112 145 138 159 151 155 32 65 116 249 202 42 1 0 0 0 0 0 0 0 0 0 0 0 0 0 0 2 5 2 0 0 0 0 0 0 0 0 0 0 0 0 0 0
26 270 73 0 0 0 113 94 51 133 144 157 163 165 70 23 42 76 20 4 1 0 0 0 0 0 0 0 0 0 0 0 0 0 0 0 0 0 0 0 0 0 0 0 0 5 0 0 0 0 0 13 40 9
82 69 235 268 38 0 78 115 50 41 24 115 72 74 71 47 0 0 0 1 0 0 0 0 0 0 0 0 0 0 0 0 0 0 1 6 2 0 0 0 0 0 5 0 0 0 0 0 0 0 0 0 0 0
268 268 155 399 166 95 196 122 35 16 9 68 70 29 0 0 1 1 1 4 0 0 0 0 0 0 0 0 0 0 0 0 0 0 0 0 0 0 0 0 0 0 0 0 0 0 0 0 0 0 0 0 0 0
352 258 310 283 232 269 374 302 49 4 1 0 0 0 1 1 0 0 0 0 0 0 0 0 0 0 0 0 0 0 0 0 0 0 0 0 0 0 0 0 0 0 0 0 0 0 0 0 0 0 0 0 0 0
386 376 263 278 251 268 222 0 1 0 0 2 0 0 0 0 0 0 0 0 0 0 0 0 0 0 0 0 0 0 0 0 0 0 0 0 0 0 0 0 0 0 0 0 0 0 0 0 0 0 0 0 0 0
225 247 291 87 200 512 286 108 67 0 2 5 0 0 23 66 64 56 0 0 0 0 0 0 0 0 0 0 0 0 0 0 0 0 0 0 0 0 0 0 0 0 0 0 0 0 0 0 0 0 0 0 0 0
57 30 21 12 12 6 197 241 180 59 18 43 56 71 56 69 69 67 0 0 0 0 0 0 0 0 0 0 0 0 0 0 0 0 0 0 0 0 0 0 0 0 0 0 0 0 0 0 0 0 0 0 0 0

GFSWCAN_con_mucape_003.txt.gz
CAPE
54 56 60 83 103 88 85 72 73 57 114 145 164 159 150 161 116 185 289 336 73 11 9 47 60 59 1 42 0 7 78 52 99 111 116 0 0 3 24 57 44 0 15 24 90 142 183 549 556 575 1070 886 1008 993
50 38 33 50 100 117 72 63 64 21 91 123 128 109 139 67 63 54 138 297 134 54 10 37 52 42 32 37 18 10 14 12 26 137 135 30 171 196 98 95 60 111 18 38 101 268 916 714 891 840 831 892 1002 1071
43 21 35 53 60 97 37 57 72 91 88 109 91 75 82 82 39 95 101 259 151 66 29 78 86 83 3 0 1 19 22 27 47 32 0 0 0 269 217 158 104 173 147 324 552 662 586 672 599 591 621 705 759 1003
22 23 41 60 59 49 40 57 77 85 100 67 65 63 57 52 33 38 190 182 123 77 84 18 74 38 7 8 0 0 37 22 1 20 0 0 0 8 105 172 592 13 372 481 767 533 331 182 231 230 309 432 419 650
15 18 19 41 60 67 63 70 92 71 34 30 43 51 73 42 66 77 175 321 361 72 28 6 0 58 0 0 1 0 0 19 59 26 0 0 32 4 190 104 32 2 130 468 521 560 298 0 0 8 39 55 140 166
3 1 24 55 75 48 44 58 57 34 20 22 47 53 25 22 75 93 105 67 69 182 68 0 37 152 195 0 5 0 1 21 20 2 39 75 44 1 2 0 1 0 80 252 157 81 0 0 0 37 6 0 0 0
10 20 22 54 77 67 55 47 45 31 15 4 0 4 22 27 40 117 58 23 2 39 1 10 35 214 383 59 24 67 25 4 4 0 1 87 30 51 0 0 57 100 150 78 65 1 0 0 6 8 4 0 0 0
38 56 68 62 57 32 40 43 47 45 32 11 0 0 16 41 16 20 20 1 0 18 43 34 29 366 301 236 206 132 49 2 36 0 61 2 38 3 8 1 2 43 23 46 4 0 0 4 12 8 18 1 5 0
21 25 35 39 39 31 35 14 11 18 13 0 0 0 14 12 18 216 0 7 0 12 10 20 2 66 250 62 37 51 42 3 3 8 117 37 0 0 1 1 2 25 13 15 5 1 1 0 30 27 0 0 0 0
15 13 5 16 16 19 19 18 11 1 0 2 9 39 185 79 0 56 95 0 11 13 12 7 41 114 70 155 58 11 2 11 56 95 10 0 0 0 0 0 3 16 49 38 7 6 13 4 1 6 15 0 0 0
0 0 0 0 0 10 11 12 0 0 1 16 21 44 77 0 66 127 6 18 14 22 37 177 366 302 147 149 143 108 108 43 1 3 4 0 0 0 3 3 13 21 27 27 3 3 0 0 0 0 0 0 0 46
0 0 0 0 0 0 0 0 0 9 0 0 0 0 14 53 74 6 65 71 71 52 216 151 160 140 112 57 217 256 117 21 87 1 2 0 0 0 0 0 0 0 5 5 8 0 0 0 40 51 55 30 25 46
0 0 0 0 0 0 0 0 0 0 0 0 40 28 12 80 114 0 78 5 60 191 273 286 219 149 244 188 2 131 71 71 92 0 0 0 0 43 74 0 0 86 0 0 1 0 4 17 21 36 49 24 33 42
0 0 0 0 0 0 0 0 0 0 12 0 0 1 6 32 68 270 289 188 281 386 349 210 139 160 303 285 136 35 63 52 39 0 0 6 0 57 129 104 95 71 71 74 42 24 20 35 20 25 23 42 17 79
0 0 0 0 0 0 0 0 0 16 19 0 0 0 21 49 147 102 347 268 223 247 199 131 216 168 186 176 151 99 80 0 0 27 86 13 62 82 75 78 72 75 83 82 61 35 30 34 32 36 104 60 104 124
0 0 0 0 0 0 0 0 35 14 55 100 41 46 86 153 131 101 187 257 299 346 218 199 183 132 83 65 23 0 0 0 1 75 194 214 163 77 92 125 199 127 113 88 59 44 43 35 48 68 58 46 84 100
0 0 0 0 0 0 0 1 69 40 90 56 63 41 43 42 116 169 182 221 312 335 256 119 73 55 51 0 0 0 0 1 0 63 190 110 299 252 123 122 189 166 199 146 113 149 158 84 65 100 130 28 39 38
0 0 0 0 0 0 0 3 38 25 26 34 52 56 75 92 146 175 153 260 300 317 249 148 93 60 45 7 0 18 67 93 171 317 451 441 407 327 379 332 197 348 247 235 159 244 176 284 228 240 131 87 275 72
0 0 0 0 0 0 0 0 29 40 47 45 60 58 57 126 154 137 128 122 155 120 132 73 34 45 66 105 156 238 337 458 545 626 596 445 457 452 395 350 313 312 130 161 198 141 119 112 89 76 61 73 58 56
0 0 0 0 0 13 7 3 12 19 36 44 52 56 70 80 115 138 95 95 70 62 31 13 37 55 49 120 127 188 328 478 608 471 321 220 257 89 96 109 140 181 58 55 18 11 26 23 26 18 19 20 45 34
0 0 0 0 3 5 18 18 27 14 30 47 53 50 57 130 177 202 299 154 128 134 116 243 348 332 325 387 513 653 365 342 483 549 169 3 1 4 12 18 23 18 24 22 18 9 0 0 0 0 0 0 0 0
0 0 0 0 12 12 27 14 14 19 16 31 77 69 42 61 81 74 173 129 88 205 241 474 651 786 694 389 372 259 357 378 421 371 178 226 44 10 16 12 2 0 0 0 2 0 0 0 0 0 0 0 0 0
0 0 2 3 4 0 30 14 14 6 26 28 37 21 47 171 90 49 25 68 180 154 560 463 287 257 129 27 22 0 51 99 101 105 95 54 35 18 14 8 7 3 4 5 4 4 1 0 0 0 0 0 0 5
0 0 0 0 54 108 146 206 125 124 61 73 132 156 173 255 328 302 165 250 344 477 163 246 44 35 28 41 1 0 0 0 4 39 11 25 33 29 6 7 9 9 2 4 5 5 2 0 0 0 2 0 2 1
0 0 111 53 306 303 136 123 178 134 91 165 149 149 244 291 71 44 83 151 110 40 44 40 28 14 5 0 0 0 0 0 0 4 2 0 5 20 21 15 1 0 0 0 0 0 0 0 0 0 0 0 0 0
106 261 31 274 285 286 191 92 92 144 94 109 91 147 210 169 61 63 94 65 17 20 27 19 0 0 0 0 0 0 0 0 0 0 3 0 0 0 1 3 1 2 0 0 0 0 0 0 0 0 0 0 0 0
112 273 546 421 316 335 413 360 311 198 114 134 155 138 44 35 0 0 0 1 0 0 0 0 0 0 0 0 0 0 0 0 0 0 6 6 3 0 0 0 0 0 0 0 0 0 0 0 0 0 0 0 0 0
465 613 446 497 478 402 401 247 126 71 138 244 157 81 29 4 0 0 0 0 0 0 0 0 0 0 0 2 0 0 0 0 0 0 0 5 3 1 0 0 0 0 0 0 0 0 0 0 0 0 0 0 0 0
532 556 584 484 441 385 394 274 192 215 101 142 190 9 2 0 1 1 0 0 0 0 2 0 1 7 3 0 0 0 1 0 0 0 0 0 0 0 0 0 0 0 0 0 0 0 0 0 0 0 0 0 0 0
223 377 388 302 433 398 351 216 176 38 0 0 0 0 0 0 0 13 24 21 9 9 16 17 7 0 0 0 0 0 4 0 0 0 0 0 0 0 0 0 0 0 0 0 0 0 0 0 0 3 0 0 0 0
87 70 90 301 368 256 83 41 6 5 5 8 4 0 0 4 58 46 4 14 19 14 0 0 0 0 0 0 0 0 0 0 0 0 0 0 0 0 0 0 0 0 0 0 0 0 0 0 0 0 0 0 0 0
63 52 58 47 245 311 151 42 15 5 13 23 31 29 31 60 58 3 1 0 0 0 0 0 0 0 0 0 0 0 0 0 0 0 0 0 0 0 0 0 0 0 0 0 0 0 0 0 0 0 0 0 0 0
53 48 37 26 31 27 278 401 240 55 21 50 64 68 60 68 36 17 18 2 0 0 0 0 0 0 0 0 0 0 0 0 0 0 0 0 0 0 0 0 0 0 0 0 0 0 0 0 0 0 0 0 0 0

GFSWCAN_con_mucape_006.txt.gz
CAPE
41 32 40 59 63 73 87 47 58 63 46 44 137 115 140 132 159 180 270 354 51 6 8 18 61 87 43 66 1 0 1 125 98 0 0 0 0 0 0 20 61 0 0 0 204 395 330 523 111 213 892 800 707 675
31 24 24 46 45 80 83 75 60 72 76 78 86 101 100 106 64 48 243 454 284 104 3 0 16 86 21 15 53 18 3 11 96 101 104 70 7 107 100 0 7 2 0 14 22 23 260 942 1179 856 759 770 1149 1435
33 29 40 61 76 94 111 76 64 74 77 58 57 47 59 71 64 34 394 427 219 43 14 69 83 129 84 14 0 21 2 8 35 28 42 14 88 172 202 39 62 55 154 101 158 324 908 803 582 530 697 1119 1149 1189
13 3 6 48 80 88 81 92 70 75 61 39 36 23 26 39 33 21 98 232 172 61 51 0 2 62 49 97 26 0 1 17 50 59 0 0 33 77 20 76 317 181 166 388 269 1421 863 694 600 615 604 744 694 829
18 7 10 37 73 67 50 45 81 38 28 21 21 32 41 30 71 32 134 392 255 0 9 2 0 1 37 10 32 1 3 10 7 0 67 0 132 0 82 39 48 27 70 202 770 867 778 487 238 43 30 127 79 381
26 32 39 53 63 70 46 49 55 38 25 12 1 0 3 8 62 36 80 129 269 186 63 1 8 14 166 8 0 2 0 4 1 47 42 8 9 0 0 2 2 4 102 88 70 125 33 13 0 0 0 0 0 0
4 4 10 32 37 35 42 41 37 33 35 22 22 3 0 15 18 98 59 23 2 69 0 0 0 238 239 0 2 11 1 8 44 40 0 0 22 39 0 0 0 0 4 4 8 0 0 6 0 0 0 0 0 0
0 0 0 0 1 0 12 4 6 6 3 5 2 0 0 0 0 2 21 3 1 0 0 0 0 82 132 20 66 83 55 32 66 0 0 80 49 0 0 7 36 0 28 8 56 28 69 2 5 3 7 3 2 0
0 0 0 0 0 3 6 0 0 14 3 0 0 0 1 0 8 167 1 0 0 0 0 0 0 4 11 17 73 30 22 0 62 0 0 21 1 0 0 2 31 31 0 34 93 76 31 5 18 14 13 11 6 0
0 0 0 0 0 0 0 0 0 0 0 0 0 34 102 204 11 15 0 1 7 0 0 0 2 2 16 0 12 0 0 0 0 0 0 0 0 0 0 0 24 44 32 54 16 5 0 0 4 28 28 30 17 10
0 0 0 0 0 0 0 0 0 0 0 11 11 4 15 3 68 25 29 0 0 0 0 20 126 278 25 37 190 250 205 111 0 0 0 0 0 0 0 25 16 31 26 22 31 76 54 46 26 22 14 6 0 0
0 0 0 0 0 0 0 0 0 0 0 0 0 0 2 48 28 0 0 0 0 3 16 172 168 133 123 103 35 107 80 8 0 24 0 0 0 0 0 0 1 1 18 17 4 11 1 7 29 0 0 3 2 58
0 0 0 0 0 0 0 0 0 0 0 7 23 34 5 14 2 0 0 0 14 21 144 150 186 51 123 223 13 4 0 33 37 0 0 0 0 0 0 0 0 0 0 0 0 0 1 25 2 0 19 71 66 111
0 0 0 0 0 0 0 0 0 0 1 10 4 106 3 8 15 7 94 60 78 72 256 106 111 0 10 0 0 0 0 8 0 0 0 0 0 6 53 78 91 19 33 45 58 42 40 64 15 47 52 45 91 73
0 0 0 0 0 0 0 0 0 0 14 18 45 215 110 168 383 267 209 161 236 111 136 181 176 189 88 72 80 39 0 0 0 0 0 48 56 118 139 118 149 109 123 119 109 118 102 121 149 142 130 75 81 115
0 0 0 0 0 0 0 0 38 117 199 141 117 71 112 71 50 77 191 167 470 193 110 130 65 34 0 0 0 0 0 0 0 0 44 88 139 40 57 140 139 107 111 194 181 188 257 177 151 176 96 159 111 156
0 0 0 0 0 0 0 3 62 26 26 29 54 83 109 137 103 138 171 265 194 321 89 12 34 5 5 0 0 4 1 0 0 5 19 48 50 26 135 178 163 101 266 188 240 169 32 249 141 290 307 301 48 173
0 0 0 0 0 0 4 1 52 30 20 60 85 120 154 128 174 148 125 96 123 245 236 17 29 0 0 0 0 0 48 58 69 72 98 214 277 325 557 216 308 253 194 37 40 167 220 248 39 13 36 12 9 38
0 0 0 0 0 0 5 0 19 20 42 47 77 112 83 159 188 364 127 72 153 49 40 18 3 28 113 175 215 258 437 455 498 632 665 504 376 482 558 311 276 164 319 223 144 25 27 155 23 0 4 11 13 1
0 0 0 0 0 24 13 8 24 21 28 27 54 131 168 211 260 194 159 380 146 81 45 99 270 358 404 506 547 583 690 894 618 342 324 471 112 299 347 130 59 190 46 73 11 1 12 1 0 0 0 0 0 0
0 0 0 0 19 28 31 23 20 16 15 35 131 200 206 127 155 128 190 147 12 62 133 506 557 597 378 527 629 287 496 356 558 427 290 45 53 21 26 15 8 6 0 0 0 0 0 0 0 0 0 0 0 0
0 0 0 8 23 21 24 21 20 14 16 139 114 129 177 145 71 0 3 22 60 298 375 366 502 86 25 85 25 60 301 441 346 569 186 208 38 31 18 15 12 1 3 0 2 1 3 0 0 0 0 0 0 0
0 0 16 37 33 9 76 166 105 72 62 53 241 119 166 178 137 23 46 100 140 708 529 394 446 395 210 164 10 0 2 113 54 65 43 42 38 23 14 19 12 4 3 1 2 1 2 0 0 0 0 0 0 3
0 0 11 192 274 83 299 186 164 146 173 231 172 206 218 275 139 71 83 207 252 76 69 250 76 43 26 36 0 0 0 0 2 7 0 0 7 39 6 6 1 0 0 0 0 0 0 0 0 0 1 0 8 7
0 3 170 10 638 283 89 86 99 59 77 107 125 186 382 414 28 26 30 40 19 14 27 30 27 40 0 0 0 0 1 0 1 14 4 0 0 0 1 0 0 0 0 0 0 0 0 0 0 0 0 0 0 0
11 452 95 187 244 235 376 77 118 121 104 45 131 238 56 92 10 0 0 0 0 0 8 0 0 0 0 0 0 0 0 0 0 0 7 13 0 0 0 0 0 0 0 0 0 0 0 0 0 0 0 0 0 0
145 313 521 646 519 414 524 372 282 186 185 135 377 300 192 57 0 0 0 0 0 0 16 19 0 0 0 0 3 0 2 0 0 0 1 5 0 0 0 0 0 0 0 0 0 0 0 0 0 0 0 0 0 0
475 588 3 0 205 252 97 311 231 154 188 210 292 75 18 9 2 0 1 0 16 13 10 9 21 14 7 0 0 1 1 0 0 0 2 0 0 0 0 0 0 0 0 0 0 0 0 0 0 0 0 0 0 0
294 100 358 409 208 199 175 57 87 39 10 141 250 23 1 0 1 18 15 9 26 49 47 20 13 4 0 0 0 1 2 0 0 0 0 0 0 0 0 0 0 0 0 0 0 0 0 0 0 0 0 0 0 0
46 262 302 149 68 155 78 30 52 3 0 0 0 3 2 5 10 10 45 57 34 20 13 4 2 0 0 0 0 0 0 0 0 0 0 0 0 0 0 0 0 0 0 0 0 3 0 0 0 1 0 0 0 0
61 52 56 225 60 57 43 82 3 1 1 1 1 10 13 15 38 9 4 1 1 1 0 0 0 0 0 0 0 0 0 3 0 0 0 0 0 0 0 0 0 0 0 0 6 6 0 0 0 0 0 0 0 0
66 45 25 43 350 277 261 298 95 8 17 16 5 0 11 54 66 20 8 6 4 0 0 0 0 2 1 0 0 0 0 0 0 0 0 0 0 0 0 0 0 0 0 0 0 0 0 0 0 0 0 0 0 0
36 32 34 27 38 57 471 442 376 102 13 19 34 60 63 50 24 3 19 4 0 0 0 0 0 1 3 0 0 0 0 0 0 0 0 0 0 0 0 0 0 0 0 0 0 0 0 0 0 0 0 0 0 0

GFSWCAN_con_mucape_009.txt.gz
CAPE
11 10 8 8 13 47 70 104 121 76 84 94 95 102 122 138 128 79 95 192 106 1 0 0 0 5 6 24 44 45 0 19 9 113 0 0 0 0 0 0 0 0 0 6 86 91 53 436 353 413 658 961 1193 1184
6 3 1 0 24 73 94 100 114 115 117 83 57 75 66 73 86 88 65 287 203 49 1 0 0 0 0 0 17 4 0 0 7 100 218 157 0 47 10 0 0 0 0 5 13 127 366 441 614 483 543 951 1004 1136
3 17 18 25 38 62 71 80 71 104 84 56 66 64 46 52 55 62 64 139 110 37 0 0 0 0 2 3 7 2 0 0 1 53 9 144 87 183 104 16 159 35 93 46 127 0 186 146 181 859 670 331 554 1003
7 14 19 27 35 40 56 62 65 68 73 47 36 31 43 59 72 35 18 97 82 22 0 0 0 0 0 5 0 1 4 5 67 62 0 16 19 125 60 0 17 303 73 116 142 561 680 609 501 518 398 236 514 836
0 0 0 0 0 20 22 31 47 61 68 46 31 14 0 4 48 21 4 15 37 0 0 0 0 0 6 0 0 1 1 2 8 0 51 64 99 70 73 79 0 2 137 59 151 308 371 380 162 172 205 201 389 654
0 0 0 0 0 0 11 17 26 36 38 40 30 16 19 36 28 1 37 90 170 52 0 0 0 0 31 102 49 14 6 0 3 56 80 58 2 0 0 0 0 0 23 46 85 260 330 25 32 68 76 25 0 46
0 0 0 0 0 0 1 6 16 25 27 26 24 20 12 20 2 0 38 43 18 0 0 0 0 29 18 54 0 0 0 0 11 68 24 4 3 3 12 0 0 0 41 32 70 35 83 69 13 24 26 14 0 0
0 0 0 0 0 0 0 0 0 0 5 13 9 4 1 0 1 0 6 12 17 0 0 0 0 4 5 34 8 7 0 25 58 55 0 0 0 0 0 0 20 0 4 38 41 36 12 0 43 29 16 0 0 0
0 0 0 0 0 0 0 0 0 0 0 0 0 0 0 1 2 56 0 0 0 0 0 0 0 0 0 26 70 41 24 0 0 0 1 0 0 0 1 3 0 0 8 12 0 14 7 0 0 0 0 17 0 0
0 0 0 0 0 0 0 0 0 0 0 0 0 6 36 44 0 2 0 0 1 0 0 0 0 0 0 0 0 0 0 0 0 0 0 0 0 0 0 1 3 0 0 0 1 6 30 23 37 41 41 25 7 1
0 0 0 0 0 0 0 0 0 0 0 6 0 0 0 0 0 0 0 0 0 0 0 0 0 0 1 0 0 38 0 0 0 0 0 0 0 0 2 3 7 19 11 6 16 18 18 30 25 35 29 12 15 12
0 0 0 0 0 0 0 0 0 0 0 0 0 0 0 0 0 0 0 0 0 0 0 0 0 0 8 8 0 0 0 0 0 0 0 0 0 0 0 2 6 0 4 13 25 37 18 42 9 7 9 5 0 3
0 0 0 0 0 0 0 0 0 0 0 3 0 21 0 8 12 2 0 0 1 0 31 25 0 0 2 0 0 0 1 0 0 0 0 0 0 0 0 0 0 0 0 0 0 0 0 0 24 36 19 40 25 59
0 0 0 0 0 0 0 0 0 0 0 13 9 0 36 10 9 7 0 0 4 29 23 18 0 0 0 0 0 0 18 0 0 0 0 0 0 0 0 5 5 12 36 0 14 1 34 62 66 53 70 55 66 22
0 0 0 0 0 0 0 0 3 26 9 73 47 0 100 77 100 73 40 40 30 185 114 87 54 0 0 0 0 0 0 0 0 0 0 0 0 13 28 57 74 71 101 66 70 63 99 75 78 38 21 54 72 86
0 0 0 0 0 0 0 0 50 86 403 203 108 94 108 61 38 18 61 2 13 9 34 7 29 0 0 0 0 0 0 0 0 0 0 0 0 34 41 36 34 108 169 62 62 116 119 38 129 89 65 62 27 99
0 0 0 0 0 0 0 1 463 247 44 15 67 143 66 42 67 98 62 18 38 0 0 0 0 0 0 0 0 0 0 0 0 0 0 0 0 7 21 20 47 69 38 25 13 30 19 46 10 7 30 29 29 43
0 0 0 0 0 0 124 30 148 64 34 57 45 145 149 103 165 90 49 32 8 7 0 4 8 0 0 0 0 0 0 0 0 39 0 42 64 62 53 45 88 62 20 0 4 12 10 9 10 0 0 2 4 8
0 0 0 0 0 0 14 15 106 61 44 71 105 138 144 148 117 81 81 50 9 0 0 12 0 0 0 19 105 79 0 12 0 41 39 45 29 35 39 95 165 185 99 23 1 0 0 0 0 0 0 0 0 0
0 0 0 0 0 2 22 101 298 68 39 38 76 169 105 89 90 11 2 0 0 0 0 0 0 65 69 60 62 68 51 82 71 75 27 23 18 43 77 9 13 33 4 1 0 0 0 0 0 0 0 0 0 0
0 0 0 0 1 0 0 3 12 12 26 248 271 99 163 6 0 0 0 0 0 17 40 109 24 10 5 0 0 12 81 164 179 143 105 42 38 13 8 8 8 3 0 0 0 0 0 0 0 0 0 0 0 0
0 0 0 98 92 43 87 175 72 208 214 297 285 224 301 164 25 34 40 13 28 119 137 175 99 35 0 0 0 0 7 126 233 42 17 21 16 9 37 36 2 0 0 0 0 0 0 0 0 0 0 0 0 0
0 0 84 170 89 6 131 364 262 299 247 227 277 168 343 287 281 68 58 67 77 151 107 101 192 104 28 18 0 0 0 0 0 0 0 2 8 5 0 2 2 0 0 0 0 0 0 0 0 0 0 0 0 0
0 0 38 288 387 109 578 531 461 481 581 330 326 181 288 437 157 46 0 0 46 21 29 41 9 1 5 24 0 0 0 0 0 0 0 0 0 0 0 2 2 1 0 0 0 0 0 0 0 0 0 0 0 0
40 63 205 86 585 494 386 224 153 228 171 287 292 300 6 2 30 20 0 0 0 37 43 43 37 35 0 0 0 0 0 0 0 0 5 0 0 0 0 0 0 0 0 0 0 0 0 0 0 0 0 0 0 0
44 461 123 317 396 313 233 170 363 228 259 242 325 182 100 30 12 12 18 11 28 53 50 51 36 51 35 2 0 3 0 0 0 0 9 0 0 0 0 0 0 0 0 0 0 0 0 0 0 0 0 0 0 0
37 0 11 0 14 53 375 380 519 248 96 173 367 259 183 7 3 4 19 10 13 36 52 60 47 16 0 0 0 0 0 0 0 0 2 1 0 0 0 0 0 0 0 0 0 0 0 0 0 0 0 0 0 0
112 1 11 225 401 468 174 121 15 1 0 23 223 6 10 3 0 0 0 5 36 61 83 87 19 0 0 0 0 0 0 0 0 0 0 0 0 0 0 0 0 0 0 0 0 0 0 0 0 0 0 0 0 0
532 571 242 202 85 36 56 20 0 0 0 0 80 2 0 0 0 9 9 53 105 91 2 0 0 0 0 0 0 0 0 0 0 0 0 0 0 0 0 0 0 0 0 0 0 0 0 0 0 0 0 0 0 0
458 359 258 165 76 28 5 1 0 0 0 0 0 0 0 0 4 5 4 0 0 0 0 0 0 0 0 0 0 0 0 0 0 0 0 0 0 0 0 0 0 0 0 0 0 0 0 0 0 0 0 0 0 0
66 43 67 231 75 24 35 1 0 0 0 0 0 0 0 5 14 3 1 3 0 0 0 0 0 0 0 0 0 0 0 0 0 0 0 0 0 0 0 0 0 0 0 0 0 0 0 0 0 0 0 0 0 0
96 47 50 37 314 213 235 148 36 37 0 8 13 8 7 55 46 51 0 0 0 0 0 0 0 0 0 0 0 0 0 0 0 0 0 0 0 0 0 0 0 0 0 0 0 0 0 0 0 0 0 0 0 0
3 18 12 2 211 461 454 452 345 234 41 12 101 72 14 6 1 8 12 0 0 0 0 0 0 0 0 0 0 0 0 0 0 0 0 0 0 0 0 0 0 0 0 0 0 0 0 0 0 0 0 0 0 0

GFSWCAN_con_mucape_012.txt.gz
CAPE
2 1 2 1 1 23 38 60 64 36 46 68 83 98 109 107 120 42 0 10 33 1 0 0 0 0 0 0 3 0 4 10 0 49 24 35 2 0 2 4 0 0 0 0 0 3 153 23 130 80 400 1000 930 985
0 0 0 2 23 16 29 47 62 63 42 43 41 54 66 61 74 33 6 2 25 39 5 0 0 0 0 0 0 0 16 15 0 0 1 13 45 94 58 47 58 0 14 0 0 29 31 75 245 993 962 863 845 834
0 0 0 0 0 5 14 12 25 20 20 37 49 48 48 63 66 48 15 9 19 0 0 0 0 0 0 0 4 0 0 0 0 0 2 3 92 137 113 81 147 71 90 31 0 4 91 540 690 704 593 754 795 693
0 0 0 0 0 0 0 3 10 11 19 19 25 19 25 36 31 25 14 0 0 0 0 0 0 0 0 0 0 0 1 5 1 0 0 0 2 41 23 162 54 134 100 122 0 0 122 588 562 559 415 662 885 977
0 0 0 0 0 0 0 0 0 2 14 21 22 29 30 18 43 4 0 0 0 20 0 0 0 0 3 11 0 0 5 3 0 0 0 0 15 7 48 54 98 65 158 189 107 0 28 220 553 499 346 381 485 642
0 0 0 0 0 0 0 0 0 0 0 0 26 23 18 20 38 0 0 0 2 0 0 0 0 0 34 42 54 22 24 7 1 0 0 0 0 0 4 6 46 2 18 100 42 0 11 113 34 28 153 148 301 468
0 0 0 0 0 0 0 0 0 0 0 0 0 11 16 10 0 0 0 0 0 0 0 0 0 0 13 12 35 0 1 0 0 0 0 0 0 0 1 16 0 1 37 139 24 17 30 23 5 32 0 0 45 28
0 0 0 0 0 0 0 0 0 0 0 0 0 0 0 0 0 0 0 0 0 0 0 0 0 0 0 5 16 37 0 4 22 0 0 0 2 2 12 8 0 10 104 85 63 28 25 41 11 3 43 71 55 14
0 0 0 0 0 0 0 0 0 0 0 0 0 0 0 0 0 0 1 0 0 0 0 0 0 0 0 0 5 5 0 0 0 0 0 0 0 2 1 0 0 21 77 53 28 35 21 38 49 45 29 39 37 4
0 0 0 0 0 0 1 0 0 0 0 0 0 0 0 0 0 0 0 0 0 0 0 0 0 0 0 0 0 0 0 0 0 0 0 0 0 0 0 0 0 6 19 22 39 34 21 42 38 18 8 0 0 3
0 0 0 0 0 0 0 0 0 0 0 0 0 0 0 0 0 0 0 0 0 0 0 0 0 0 0 0 0 0 0 0 0 0 0 0 0 0 0 0 0 1 5 5 0 9 1 14 8 6 7 5 8 4
0 0 0 0 0 0 0 0 0 0 0 0 0 0 0 0 0 1 0 0 0 13 2 0 0 0 0 0 0 0 0 0 0 0 0 0 0 0 0 0 0 0 0 0 0 0 0 1 4 6 17 35 37 23
0 0 0 0 0 0 0 0 0 0 0 0 0 0 0 0 0 0 0 7 0 8 1 0 0 0 0 0 0 0 0 0 0 0 0 0 0 0 0 0 0 0 0 0 26 11 1 0 1 6 4 64 72 49
0 0 0 0 0 0 0 0 0 0 0 0 0 0 6 0 0 0 18 1 9 0 0 0 0 0 0 0 0 0 0 0 0 0 0 0 0 0 0 0 0 0 0 27 51 82 63 51 60 66 75 74 55 41
0 0 0 0 0 0 0 0 5 1 1 0 0 0 0 31 34 25 0 0 0 0 0 0 0 0 0 0 0 0 0 0 0 0 1 0 0 0 0 16 22 38 36 24 1 33 54 48 50 47 55 40 20 35
0 0 0 0 0 0 0 0 10 2 19 1 13 1 1 0 6 1 0 0 0 0 0 0 0 0 0 0 0 0 0 0 0 0 0 0 0 0 20 30 34 26 0 2 26 20 12 27 4 12 34 24 14 0
0 0 0 0 0 0 0 0 8 66 9 25 28 43 25 11 0 0 0 0 0 0 0 0 0 0 0 0 0 0 0 0 0 0 0 0 1 17 30 29 29 1 4 4 2 20 3 1 21 27 0 7 0 6
0 0 0 0 0 0 0 0 0 3 27 24 19 26 10 0 0 0 0 0 0 0 0 0 0 0 0 0 0 0 4 0 0 0 0 0 21 22 26 0 4 2 6 5 5 8 11 12 1 0 1 4 0 0
0 0 0 0 0 0 0 0 0 7 28 18 20 0 0 0 0 0 0 0 0 0 0 0 0 0 0 0 0 0 0 9 13 26 10 18 41 31 29 35 15 0 1 0 2 0 0 0 0 0 0 0 0 0
0 0 0 0 0 0 0 0 0 0 12 21 6 0 0 0 0 0 0 0 0 0 0 0 0 0 0 0 0 6 26 28 7 5 4 5 11 17 17 2 0 0 0 0 0 0 0 0 0 0 0 0 0 0
0 0 0 0 0 0 0 0 0 0 0 3 5 0 2 0 0 0 0 0 0 0 0 9 0 0 11 20 30 16 0 4 10 1 4 5 4 5 4 2 0 0 0 0 0 0 0 0 0 0 0 0 0 0
0 0 0 28 23 0 1 2 0 25 5 7 32 18 11 0 1 4 0 0 0 26 33 5 0 0 0 0 3 2 0 0 0 0 10 5 4 2 3 0 0 0 0 0 0 0 0 0 0 0 0 0 0 0
0 0 18 66 48 11 24 79 124 86 45 30 19 0 10 0 0 0 0 0 0 10 0 0 0 0 0 0 0 0 0 0 0 0 0 0 0 9 6 4 7 7 4 1 4 3 0 0 0 0 0 0 0 0
0 0 0 51 161 77 211 265 194 137 190 70 2 6 12 26 28 2 2 0 0 0 0 0 0 0 0 0 0 0 0 0 0 0 0 0 0 0 0 0 0 2 4 6 2 0 0 0 0 0 0 0 0 0
0 2 40 68 66 18 109 32 52 69 57 25 0 1 0 1 15 16 29 15 24 6 1 14 7 2 0 0 0 0 0 0 0 0 0 0 0 0 0 0 0 0 0 0 0 0 0 0 0 0 0 0 0 0
13 0 0 0 2 12 76 39 119 137 131 78 50 34 18 25 4 0 4 12 10 26 32 40 54 0 0 0 0 0 0 0 0 0 0 0 0 0 0 0 0 0 0 0 0 0 0 0 0 0 0 0 0 0
0 0 0 1 40 48 69 68 95 0 0 17 94 45 9 4 0 0 1 19 23 38 54 22 2 0 0 0 0 0 0 0 0 0 0 0 0 0 0 0 0 0 0 0 0 0 0 0 0 0 0 0 0 0
0 0 1 84 97 128 52 0 0 0 0 0 0 0 0 0 0 0 0 13 32 63 12 0 2 3 0 0 0 0 0 0 0 0 0 0 0 0 0 0 0 0 0 0 0 0 0 0 0 0 0 0 0 0
71 192 26 126 69 32 0 0 0 0 0 0 0 0 0 0 0 0 1 1 0 0 0 0 0 0 0 0 0 0 0 0 0 0 0 0 0 0 0 0 0 0 0 0 0 0 0 0 0 0 0 0 0 0
323 384 183 103 23 4 0 0 0 0 0 0 0 0 0 0 0 0 0 0 0 0 0 0 0 0 0 0 0 0 0 0 0 0 0 0 0 0 0 0 0 0 0 0 0 0 0 0 0 0 0 0 0 0
77 75 139 102 90 87 86 48 32 42 0 0 0 0 0 0 0 0 0 0 0 0 0 0 0 0 0 0 0 0 0 0 0 0 0 0 0 0 0 0 0 0 0 0 0 0 0 0 0 0 0 0 0 0
16 4 7 143 81 46 57 69 77 63 5 3 6 0 0 0 1 2 0 0 0 0 0 0 0 0 0 0 0 0 0 0 0 0 0 0 0 0 0 0 0 0 0 0 0 0 0 0 0 0 0 0 0 0
3 36 11 18 164 160 176 127 132 76 22 35 32 8 0 0 0 0 0 0 0 0 0 0 0 0 0 0 0 0 0 0 0 0 0 0 0 0 0 0 0 0 0 0 0 0 0 0 0 0 0 0 0 0

GFSWCAN_con_mucape_015.txt.gz
CAPE
0 0 0 0 0 0 0 0 0 2 7 15 30 41 45 53 63 28 1 10 17 0 0 0 0 0 0 0 0 0 0 3 0 4 42 34 26 15 11 2 56 44 0 0 0 0 0 21 71 117 173 110 230 88
0 0 0 0 0 0 0 0 0 1 0 6 15 27 30 38 55 28 0 0 16 5 0 0 0 0 0 0 0 0 0 0 2 0 0 3 2 14 19 4 56 50 62 12 0 0 17 28 154 406 669 606 508 565
0 0 0 0 0 0 0 0 0 0 0 0 0 18 34 36 36 38 11 3 4 0 0 0 0 0 0 0 2 0 0 0 0 0 0 0 0 19 26 18 44 70 111 75 61 10 25 108 225 326 601 673 634 630
0 0 0 0 0 0 0 1 1 0 0 0 0 0 21 23 40 31 18 0 0 0 0 1 0 0 0 0 0 0 0 1 2 0 0 0 1 0 8 44 12 3 124 51 96 36 20 83 294 267 405 773 599 634
0 0 0 0 0 0 1 0 0 0 0 0 0 0 9 28 44 26 0 0 0 0 0 0 0 0 3 11 2 0 2 8 1 0 0 7 1 5 1 0 0 66 209 108 18 58 4 17 175 318 326 670 839 889
0 0 0 0 0 0 1 1 0 0 0 0 0 0 0 0 38 0 0 0 0 0 0 0 0 0 1 8 15 11 6 12 6 0 0 0 0 0 0 7 36 98 38 119 307 75 0 0 59 2 607 404 472 501
0 0 0 0 0 0 1 2 0 0 0 0 0 0 0 0 0 0 0 0 0 0 0 0 0 0 0 2 7 3 20 16 20 0 0 0 0 0 0 12 33 8 26 7 137 61 0 32 14 74 408 264 147 220
0 0 0 0 0 0 2 0 0 0 0 0 0 0 0 0 0 0 0 0 0 0 0 0 0 0 0 0 3 24 0 0 0 0 0 0 0 0 0 3 3 3 24 30 16 130 15 0 12 114 77 180 154 139
0 0 0 0 0 0 2 0 0 0 0 0 0 0 0 0 0 0 0 0 0 0 0 0 0 0 0 0 0 4 0 0 0 0 0 0 0 5 0 0 0 23 48 48 80 235 46 9 28 48 7 3 4 35
0 0 0 0 0 1 0 0 0 0 0 0 0 0 0 0 0 0 0 0 0 0 0 0 0 0 0 0 0 0 0 0 0 0 0 0 0 0 0 2 18 108 91 57 48 120 29 7 26 29 2 3 0 0
0 0 0 0 0 0 0 0 0 0 0 0 0 0 0 0 0 0 1 6 0 0 0 0 0 0 0 0 0 0 0 0 0 0 0 0 0 0 0 0 21 21 18 29 58 37 8 0 4 5 0 0 0 0
0 0 0 0 0 0 0 0 0 0 0 0 0 0 0 0 0 0 0 1 0 0 0 0 0 0 0 0 0 0 0 0 0 0 0 0 0 0 0 0 10 18 25 30 1 3 106 7 5 2 3 11 9 11
0 0 0 0 0 0 0 0 0 0 0 0 0 0 0 0 0 0 0 0 0 0 0 0 0 0 0 0 0 0 0 0 0 0 0 0 0 0 0 0 0 4 0 0 0 0 0 0 95 22 28 7 10 2
0 0 0 0 0 0 0 0 0 0 0 0 0 0 0 0 0 0 0 0 0 0 0 0 0 0 0 0 0 0 0 0 0 0 0 0 0 0 0 0 0 0 0 0 12 25 40 4 1 41 36 22 39 48
0 0 0 0 0 0 0 0 0 0 0 0 1 0 0 0 0 0 0 0 0 0 0 0 0 0 0 0 0 0 0 0 0 0 0 0 0 0 0 5 0 0 0 0 13 9 5 0 8 6 12 19 13 20
0 0 0 0 0 0 0 0 0 0 1 16 13 5 0 0 0 0 0 0 0 0 0 0 0 0 0 0 0 0 0 0 0 0 0 0 0 5 0 22 0 1 9 13 24 24 22 22 3 13 5 5 5 15
0 0 0 0 0 0 0 0 0 0 8 27 21 0 0 0 0 0 0 0 0 0 0 0 0 0 0 0 0 0 0 0 0 11 2 1 2 29 11 0 0 8 8 15 0 0 0 4 30 15 6 6 4 5
0 0 0 0 0 0 0 0 0 10 20 0 0 0 0 0 0 0 0 0 0 1 0 0 0 0 0 0 0 0 0 0 0 0 21 17 20 2 0 1 0 0 0 0 0 0 0 0 0 0 0 1 8 0
0 0 0 0 0 0 0 0 1 0 0 25 3 0 0 0 0 0 0 0 0 0 0 0 0 0 0 14 0 1 13 21 10 23 0 1 4 1 0 0 0 0 0 0 0 0 0 0 0 0 0 0 0 0
0 0 0 0 0 0 0 0 0 0 8 20 18 1 0 0 0 0 0 0 0 0 0 0 0 17 9 11 2 0 6 0 7 9 5 8 6 1 0 1 0 0 0 0 0 0 0 0 0 0 0 0 0 0
0 0 0 0 0 0 0 0 0 0 4 14 23 25 24 0 0 0 0 0 0 0 0 0 0 0 9 19 19 0 0 0 0 0 0 0 4 4 0 2 0 0 0 0 0 0 0 0 0 0 0 0 0 0
0 0 0 0 0 0 0 3 1 10 5 3 22 21 0 0 0 0 0 0 0 0 0 0 0 0 0 0 0 0 0 4 1 0 0 0 11 10 10 2 0 0 0 0 0 0 0 0 0 0 0 0 0 0
0 0 0 10 10 0 4 59 31 56 3 0 0 6 16 3 0 0 1 22 29 17 2 0 0 0 0 0 0 0 0 0 0 0 0 0 0 0 0 0 0 0 0 0 0 0 0 0 0 0 0 0 0 0
0 0 0 0 30 78 88 153 114 43 9 1 0 0 23 23 5 2 8 20 25 15 8 8 0 0 0 0 0 0 0 0 0 0 0 0 0 0 0 0 0 0 0 0 0 0 0 0 0 0 0 0 0 0
0 1 21 7 0 0 3 0 10 31 12 12 5 4 0 10 1 0 0 6 10 13 15 1 0 0 0 0 0 0 0 0 0 0 0 0 0 0 0 0 0 0 0 0 0 0 0 0 0 0 0 0 0 0
0 0 0 0 3 21 22 26 34 1 29 27 28 8 14 0 0 0 0 5 20 28 12 0 0 0 0 0 0 0 0 0 0 0 0 0 0 0 0 0 0 0 0 0 0 0 0 0 0 0 0 0 0 0
0 0 0 3 13 10 19 1 0 0 0 0 13 12 0 0 0 0 0 1 18 35 12 0 0 0 0 0 0 0 0 0 0 0 0 0 0 0 0 0 0 0 0 0 0 0 0 0 0 0 0 0 0 0
0 0 0 9 8 76 18 0 0 0 0 0 0 0 0 0 0 0 0 0 0 0 0 1 0 0 0 0 0 0 0 0 0 0 0 0 0 0 0 0 0 0 0 0 0 0 0 0 0 0 0 0 0 0
11 9 5 11 23 13 1 0 0 0 0 0 0 0 0 0 0 0 0 0 0 4 4 0 0 0 0 0 0 0 0 0 0 0 0 0 0 0 0 0 0 0 0 0 0 0 0 0 0 0 0 0 0 0
161 120 62 93 33 22 28 34 25 14 4 0 0 0 0 0 0 0 0 0 5 8 4 0 0 0 0 0 0 0 0 0 0 0 0 0 0 0 0 0 0 0 0 0 0 0 0 0 0 0 0 0 0 0
102 199 219 106 79 98 102 86 78 84 48 5 0 0 17 4 0 0 0 0 6 14 10 0 0 0 0 0 0 0 0 0 0 0 0 0 0 0 0 0 0 0 0 0 0 0 0 0 0 0 0 0 0 0
5 11 5 52 63 50 58 94 89 78 45 53 36 31 19 19 1 0 0 0 0 0 0 0 0 0 0 0 0 0 0 0 0 0 0 0 0 0 0 0 0 0 0 0 0 0 0 0 0 0 0 0 0 0
0 4 3 85 15 28 4 12 21 27 15 28 28 30 31 25 12 0 0 0 0 0 0 0 0 0 0 0 0 0 0 0 0 0 0 0 0 0 0 0 0 0 0 0 0 0 0 0 0 0 0 0 0 0

GFSWCAN_con_mucape_018.txt.gz
CAPE
0 0 0 0 0 0 0 1 1 2 1 0 0 1 3 42 78 31 0 10 0 0 0 0 0 0 0 0 0 0 0 6 6 5 15 3 0 8 0 0 0 0 0 0 0 0 0 0 38 96 0 0 23 110
0 0 0 0 0 0 0 0 1 2 5 0 0 0 0 53 48 38 0 0 2 0 0 0 0 0 0 0 0 0 0 0 0 4 0 0 0 1 0 0 2 0 0 0 0 0 0 4 2 79 44 111 237 175
0 0 0 0 0 0 0 1 0 2 5 0 0 0 0 39 56 55 39 2 6 0 2 0 0 0 0 0 0 0 0 0 0 0 0 0 0 0 0 0 33 17 32 26 24 20 6 64 61 116 86 269 359 499
0 0 0 0 0 0 0 1 1 2 0 0 0 0 0 0 0 31 0 0 0 0 0 0 0 0 0 0 0 0 0 0 0 0 0 0 0 0 0 14 0 0 5 1 1 0 78 191 65 116 125 429 511 681
0 0 0 0 0 0 1 4 4 6 0 0 0 0 0 0 23 0 0 0 0 0 0 0 0 0 0 0 0 0 0 0 0 0 0 0 0 0 1 0 0 0 0 0 0 0 44 90 114 151 214 472 648 834
0 0 0 0 0 0 2 4 6 0 0 0 0 0 0 0 0 0 0 0 0 0 0 0 0 0 0 0 0 0 0 0 0 0 0 0 0 0 0 2 0 0 2 7 45 117 92 117 142 111 235 328 593 592
0 0 0 0 0 0 5 6 2 0 0 0 0 0 0 0 0 0 0 0 0 0 0 0 0 0 0 3 2 0 6 23 22 0 0 0 0 0 0 0 0 1 1 0 37 105 238 142 171 198 150 222 232 216
0 0 0 0 0 0 6 5 1 0 0 0 0 0 0 0 0 0 0 0 0 0 0 0 0 0 0 1 3 13 0 0 0 0 0 0 0 0 1 0 0 3 1 0 1 48 169 168 249 186 92 72 51 123
0 0 0 0 0 0 0 0 0 0 0 0 0 0 0 0 0 0 1 0 0 0 0 0 0 0 0 0 0 5 0 0 0 0 0 0 0 0 0 0 0 8 0 0 51 31 54 82 303 188 65 5 15 9
0 0 0 0 0 0 0 0 0 0 0 0 0 0 0 0 0 0 0 0 0 0 0 0 0 0 0 0 0 0 0 0 0 0 0 0 0 0 0 0 16 0 33 1 40 25 103 6 169 4 0 0 0 0
0 0 0 0 0 0 0 0 0 0 0 0 0 0 0 0 0 10 0 0 0 0 0 2 0 0 0 0 0 0 0 0 0 0 0 0 0 0 1 3 1 18 0 0 40 6 21 46 0 0 4 25 3 0
0 0 0 0 0 0 0 0 0 0 0 0 0 0 0 0 0 0 0 0 0 0 0 0 0 0 0 0 0 0 0 0 0 0 0 0 0 0 0 1 5 16 10 14 12 18 27 38 11 16 26 2 2 7
0 0 0 0 0 0 0 0 0 0 0 0 0 0 0 0 0 0 0 0 0 0 0 0 0 0 0 0 0 0 0 0 0 0 0 0 0 0 0 18 2 4 0 0 37 31 25 16 0 7 9 0 0 0
0 0 0 0 0 0 0 0 0 0 0 0 0 0 0 0 0 0 0 0 0 0 0 0 0 0 0 0 0 0 0 0 0 0 0 0 0 0 0 0 1 0 29 0 0 0 0 0 0 42 13 2 1 0
0 0 0 0 0 0 0 0 0 0 0 0 0 0 0 0 2 0 0 0 0 0 0 0 0 0 0 0 0 0 0 0 0 0 0 0 9 0 0 0 0 18 0 0 0 0 18 18 16 13 23 19 5 5
0 0 0 0 0 0 0 0 0 0 1 0 0 0 0 0 0 0 0 0 0 0 0 0 0 0 0 0 0 0 0 0 0 0 0 17 0 0 3 1 1 14 42 20 0 0 2 20 3 4 18 29 25 25
0 0 0 0 0 0 0 0 0 0 4 3 0 0 0 0 0 0 0 0 0 0 0 0 0 0 0 0 0 0 1 0 0 2 4 3 0 0 1 2 2 1 0 0 0 0 0 4 3 3 0 0 1 13
0 0 0 0 0 0 0 0 0 0 8 0 0 0 0 0 0 0 0 0 0 0 0 0 0 0 0 0 0 0 0 0 0 0 0 1 0 0 0 0 0 0 0 0 0 0 0 0 0 0 0 0 0 0
0 0 0 0 0 0 0 0 0 0 0 0 0 0 0 0 0 0 0 0 0 0 0 0 0 0 0 0 0 0 3 10 9 10 2 7 11 6 8 0 0 0 0 0 0 0 0 0 0 0 0 0 0 0
0 0 0 0 0 0 0 0 0 0 0 0 2 0 0 0 0 0 0 0 0 0 0 0 0 0 1 3 3 4 8 6 9 15 7 8 7 6 2 0 0 0 0 0 0 0 0 0 0 0 0 0 0 0
0 0 0 0 0 0 0 0 0 0 0 10 15 4 0 0 0 0 0 0 0 0 0 0 0 0 0 0 0 0 0 0 0 0 0 0 0 4 0 6 4 3 0 0 0 0 0 0 0 0 0 0 0 0
0 0 0 0 0 0 0 0 0 0 0 0 1 0 0 0 0 0 0 0 2 9 5 0 0 0 0 0 0 0 0 0 0 0 0 0 0 0 0 0 0 0 0 0 0 0 0 0 0 0 0 0 0 0
0 0 0 0 0 0 0 3 0 3 4 0 0 0 0 1 0 0 1 7 20 12 3 0 0 0 0 0 0 0 0 0 0 0 0 0 0 0 0 0 0 0 0 0 0 0 0 0 0 0 0 0 0 0
0 0 0 0 0 3 2 14 12 13 1 0 0 0 0 2 6 0 0 0 7 5 4 3 2 2 0 0 0 0 0 0 0 0 0 0 0 0 0 0 0 0 0 0 0 0 0 0 0 0 0 0 0 0
0 0 0 0 0 0 0 0 0 1 1 0 0 0 0 0 0 0 0 0 0 5 21 10 0 0 0 0 0 0 0 0 0 0 0 0 0 0 0 0 0 0 0 0 0 0 0 0 0 0 0 0 0 0
0 0 0 0 0 0 0 1 0 0 0 0 5 1 0 0 0 0 0 0 0 3 14 11 0 0 0 0 0 0 0 0 0 0 0 0 0 0 0 0 0 0 0 0 0 0 0 0 0 0 0 0 0 0
0 0 0 0 2 2 0 0 0 0 0 0 0 0 0 0 0 0 0 0 0 1 0 0 0 0 0 0 0 0 0 0 0 0 0 0 0 0 0 0 0 0 0 0 0 0 0 0 0 0 0 0 0 0
0 0 0 0 0 12 18 0 0 0 0 0 2 0 0 0 0 0 0 0 0 3 0 0 0 0 0 0 0 0 0 0 0 0 0 0 0 0 0 0 0 0 0 0 0 0 0 0 0 0 0 0 0 0
12 14 11 11 8 0 0 0 10 2 0 0 1 1 0 0 0 0 0 0 0 3 2 8 1 0 0 0 0 0 0 0 0 0 0 0 0 0 0 0 0 0 0 0 0 0 0 0 0 0 0 0 0 0
86 70 42 35 46 45 50 74 42 30 14 7 1 15 20 10 2 0 0 0 0 8 4 12 2 0 0 0 0 0 0 0 0 0 0 0 0 0 0 0 0 0 0 0 0 0 0 0 0 0 0 0 0 0
130 85 96 108 107 92 88 87 66 61 33 28 11 15 22 27 34 24 0 0 0 9 17 7 0 0 0 0 0 0 0 0 0 0 0 0 0 0 0 0 0 0 0 0 0 0 0 0 0 0 0 0 0 0
12 32 74 14 33 43 27 28 16 33 64 59 75 33 26 28 19 42 28 2 0 0 0 0 0 0 0 0 0 0 0 0 0 0 0 0 0 0 0 0 0 0 0 0 0 0 0 0 0 0 0 0 0 0
10 1 6 12 14 1 1 1 1 19 21 37 71 48 53 35 29 36 23 22 0 0 0 0 0 0 0 0 0 0 0 0 0 0 0 0 0 0 0 0 0 0 0 0 0 0 0 0 0 0 0 0 0 0

GFSWCAN_con_mucape_021.txt.gz
CAPE
0 0 0 0 0 0 0 1 0 1 0 0 4 0 2 0 0 8 0 0 57 0 0 0 0 0 0 0 0 0 0 16 44 59 39 11 15 42 29 0 0 0 0 0 0 0 0 0 0 0 91 62 38 25
0 0 0 0 0 1 2 2 0 2 3 3 0 0 0 5 0 70 0 0 8 0 0 0 0 0 0 0 0 0 4 13 20 42 16 5 39 34 35 0 19 0 0 0 0 0 0 0 0 11 117 87 65 26
0 0 0 0 0 0 3 5 4 5 7 8 0 0 0 3 4 66 0 0 0 0 0 0 0 0 0 0 0 0 0 0 0 27 0 83 20 29 4 2 36 52 75 27 0 0 0 0 0 20 82 60 42 32
0 0 0 0 0 0 2 5 6 6 9 6 0 0 0 3 0 0 0 0 0 0 0 1 0 0 0 0 0 0 0 0 0 0 0 0 0 23 0 0 24 27 3 18 41 4 0 0 0 25 95 29 68 71
0 0 0 1 1 4 9 7 7 6 11 0 0 0 0 0 0 0 0 0 0 0 0 0 0 0 0 0 1 0 0 0 0 0 0 0 0 2 0 0 0 0 2 18 0 24 30 0 25 100 93 133 76 46
0 0 0 0 0 0 0 0 3 12 11 0 0 0 0 0 0 0 0 0 0 0 0 0 0 0 0 0 0 4 2 7 0 0 0 0 0 0 0 0 0 0 0 5 46 13 6 10 7 14 97 208 123 143
0 0 0 0 0 0 0 0 0 11 0 0 0 0 0 0 0 0 0 0 0 0 0 0 0 0 0 0 2 2 15 1 0 0 0 0 0 0 0 3 0 0 0 0 32 13 0 3 4 123 216 197 177 123
0 0 0 0 0 0 0 0 0 0 0 0 0 0 0 0 0 0 0 0 0 0 0 0 0 0 0 0 0 14 0 0 0 0 0 0 0 0 0 0 0 0 0 0 4 1 0 10 48 91 61 168 132 128
0 0 0 0 0 0 0 0 0 0 0 0 0 0 0 0 0 0 0 0 0 0 1 0 0 0 0 0 0 0 0 0 0 0 0 0 1 7 3 5 0 1 3 1 4 29 37 29 80 40 80 145 75 78
0 0 0 0 0 0 0 0 0 0 0 0 0 0 0 0 0 0 0 0 0 0 0 0 0 0 0 0 0 0 0 0 0 0 0 0 22 0 0 0 0 0 2 2 0 4 27 24 105 11 74 3 24 100
0 0 0 0 0 0 0 0 0 0 0 0 0 0 0 0 0 0 0 0 0 0 0 0 0 0 0 0 0 0 0 0 0 0 0 0 0 0 0 3 11 21 0 33 20 47 13 56 26 0 20 16 20 9
0 0 0 0 0 0 0 0 0 0 0 0 0 0 0 0 0 0 0 0 0 0 0 0 0 0 0 0 0 0 0 0 0 0 0 2 0 0 0 0 0 0 30 73 43 16 0 34 52 4 66 45 11 37
0 0 0 0 0 0 0 0 0 0 0 0 0 0 0 0 0 0 0 0 0 0 0 0 0 0 0 0 0 0 0 0 0 0 0 0 0 0 1 0 0 0 0 1 0 6 0 7 35 8 50 52 54 56
0 0 0 0 0 0 0 0 0 0 0 0 0 0 0 0 0 0 0 0 0 0 0 0 0 0 0 0 0 0 0 0 0 0 0 0 0 0 0 0 0 0 0 0 0 0 3 0 0 0 37 66 71 36
0 0 0 0 0 0 0 0 0 0 0 0 0 0 0 0 0 0 0 0 0 0 0 0 0 0 0 0 0 0 0 0 0 0 0 0 0 0 0 0 0 2 0 1 0 2 17 9 1 1 2 24 10 16
0 0 0 0 0 0 0 0 0 0 0 15 2 0 0 0 0 0 0 1 2 0 0 0 0 0 0 0 0 0 0 0 0 0 0 0 0 0 0 0 0 0 0 0 0 0 0 13 17 11 11 6 18 26
0 0 0 0 0 0 0 0 0 0 0 1 0 0 0 0 0 0 0 0 0 0 0 0 0 0 0 0 0 0 0 0 0 0 0 0 0 0 0 0 0 0 0 0 0 0 0 0 0 0 0 0 21 9
0 0 0 0 0 0 0 0 0 0 0 0 0 0 0 0 0 0 0 0 0 0 0 0 0 0 0 0 0 0 1 3 4 0 14 4 0 1 0 0 0 0 0 0 0 0 0 0 0 0 0 0 0 0
0 0 0 0 0 0 0 0 0 0 0 0 0 0 0 0 0 0 0 0 0 0 0 0 0 0 0 0 0 0 3 24 5 11 12 1 2 3 3 2 0 0 0 0 0 0 0 0 0 0 0 0 0 0
0 0 0 0 0 0 0 0 0 0 0 13 3 0 0 0 0 0 0 0 0 0 0 0 0 0 0 0 0 0 0 0 0 0 0 0 0 0 0 0 0 0 0 0 0 0 0 0 0 0 0 0 0 0
0 0 0 0 0 0 0 0 0 0 0 7 8 0 1 0 0 0 0 0 0 0 0 0 0 0 0 0 0 0 0 0 0 0 0 0 0 0 0 0 0 0 0 0 0 0 0 0 0 0 0 0 0 0
0 0 0 0 0 0 0 0 0 0 1 4 1 0 0 0 0 0 0 0 0 52 39 17 0 0 0 0 0 0 0 0 0 0 0 0 0 0 0 0 0 0 0 0 0 0 0 0 0 0 0 0 0 0
0 0 0 0 0 0 0 10 3 0 16 0 0 0 4 0 0 0 0 11 42 30 17 7 1 0 0 0 0 0 0 0 0 0 0 0 0 0 0 0 0 0 0 0 0 0 0 0 0 0 0 0 0 0
0 0 0 0 0 0 0 0 0 3 0 0 0 0 1 14 0 0 0 0 20 28 38 17 0 0 0 0 0 0 0 0 0 0 0 0 0 0 0 0 0 0 0 0 0 0 0 0 0 0 0 0 0 0
0 0 0 0 0 0 0 0 0 0 0 0 0 0 0 0 0 0 0 0 5 35 37 14 0 0 0 0 0 0 0 0 0 0 0 0 0 0 0 0 0 0 0 0 0 0 0 0 0 0 0 0 0 0
0 0 0 0 0 0 0 0 0 0 0 0 8 0 0 0 0 0 0 0 0 8 10 2 0 0 0 0 0 0 0 0 0 0 0 0 0 0 0 0 0 0 0 0 0 0 0 0 0 0 0 0 0 0
0 0 0 0 0 0 0 0 0 0 0 0 3 10 0 0 0 0 0 0 0 0 0 0 0 0 0 0 0 0 0 0 0 0 0 0 0 0 0 0 0 0 0 0 0 0 0 0 0 0 0 0 0 0
1 0 13 9 16 0 62 0 0 0 0 0 0 0 0 0 0 0 0 0 0 0 0 0 0 0 0 0 0 0 0 0 0 0 0 0 0 0 0 0 0 0 0 0 0 0 0 0 0 0 0 0 0 0
33 28 19 23 28 29 120 43 22 9 4 0 14 0 22 39 29 16 2 4 2 0 0 0 0 2 0 0 0 0 0 0 0 0 0 0 0 0 0 0 0 0 0 0 0 0 0 0 0 0 0 0 0 0
118 51 49 40 47 64 76 35 44 55 46 14 1 5 19 34 32 35 36 10 26 13 0 1 6 1 0 0 0 0 0 0 0 0 0 0 0 0 0 0 0 0 0 0 0 0 0 0 0 0 0 0 0 0
66 70 67 74 160 52 44 63 71 62 43 44 59 54 44 49 44 44 23 2 31 29 3 7 3 0 0 0 0 0 0 0 0 0 0 0 0 0 0 0 0 0 0 0 0 0 0 0 0 0 0 0 0 0
31 138 193 87 39 9 5 3 5 5 0 9 33 39 45 42 50 48 53 38 44 26 3 0 0 0 0 0 0 0 0 0 0 0 0 0 0 0 0 0 0 0 0 0 0 0 0 0 0 0 0 0 0 0
0 1 0 0 2 0 0 0 0 0 0 6 34 45 47 22 42 45 63 55 21 1 0 0 0 0 0 0 0 0 0 0 0 0 0 0 0 0 0 0 0 0 0 0 0 0 0 0 0 0 0 0 0 0

GFSWCAN_con_mucape_024.txt.gz
CAPE
0 0 0 0 0 0 0 1 1 3 2 4 12 9 0 1 6 0 0 0 0 0 0 0 0 0 0 0 51 25 23 33 105 153 79 58 69 75 32 14 0 0 0 0 0 0 0 0 0 0 53 63 22 22
0 0 0 0 1 2 4 3 2 5 6 10 4 6 0 0 5 1 0 0 0 0 0 0 0 0 0 0 4 5 21 25 32 135 146 162 85 75 66 0 56 0 0 0 0 0 0 0 0 0 0 0 0 0
0 0 0 0 0 2 6 5 3 8 13 10 2 13 0 0 0 0 0 0 0 0 0 0 6 0 6 13 1 3 4 0 13 30 18 90 68 95 76 49 80 71 52 0 0 0 0 0 0 0 0 0 0 0
0 0 0 0 0 0 0 0 0 0 9 1 1 0 0 0 0 0 0 0 0 0 0 0 0 0 5 0 21 24 22 6 1 37 75 0 0 42 101 87 73 70 67 19 0 36 19 12 0 0 0 9 1 0
0 0 0 0 0 0 0 0 0 0 0 0 0 0 0 0 0 0 0 0 0 0 0 0 0 0 0 1 0 6 13 0 0 0 0 0 0 0 36 0 8 9 9 10 0 22 31 34 22 9 21 3 2 2
0 0 0 0 0 0 0 0 0 0 0 0 0 0 0 0 0 0 0 0 0 0 0 0 0 0 0 0 0 0 3 2 0 0 0 0 0 0 0 0 6 8 17 11 46 83 82 74 51 0 0 0 0 4
0 0 0 0 0 0 0 0 0 0 0 0 0 0 0 0 0 0 0 0 0 0 0 0 0 0 0 0 0 0 6 1 0 0 0 0 0 0 0 0 1 0 24 34 22 22 29 22 18 11 36 19 16 85
0 0 0 0 0 0 0 0 0 0 0 0 0 0 0 0 0 0 0 0 0 0 0 0 0 0 0 0 0 0 0 0 0 0 0 0 0 0 0 0 0 0 0 0 0 0 0 28 27 4 12 163 137 105
0 0 0 0 0 0 0 0 0 0 0 0 0 0 0 0 0 0 0 0 0 0 0 0 0 0 0 0 0 0 0 0 0 0 0 0 0 0 0 0 0 1 0 0 0 0 0 49 43 25 33 50 1 52
0 0 0 0 0 0 0 0 0 0 0 0 0 0 0 0 0 0 0 0 0 0 0 0 0 0 0 0 0 0 0 0 0 0 0 0 0 0 0 1 0 0 2 1 4 41 43 76 120 70 28 0 0 80
0 0 0 0 0 0 0 0 0 0 0 0 0 0 0 0 0 0 0 0 0 0 0 0 0 0 0 0 0 0 0 0 0 0 0 0 0 0 0 0 8 14 6 7 24 52 76 132 61 23 0 84 67 0
0 0 0 0 0 0 0 0 0 0 0 0 0 0 0 0 0 0 0 0 0 0 0 0 0 0 0 0 0 1 0 0 0 0 0 0 0 0 0 0 0 7 25 33 26 41 55 82 21 12 0 0 3 3
0 0 0 0 0 0 0 0 0 0 0 0 0 0 0 0 0 0 0 0 0 0 0 0 0 48 34 21 90 86 0 0 72 0 0 0 0 0 0 0 0 0 0 0 0 0 0 0 6 8 0 24 30 0
0 0 0 0 0 0 0 0 0 0 0 0 0 0 0 0 0 0 0 0 0 0 0 22 28 3 21 0 0 0 33 0 0 0 0 0 0 0 0 0 0 0 0 0 0 1 0 0 0 0 0 0 0 0
0 0 0 0 0 0 0 0 0 0 0 0 0 1 0 0 0 0 0 0 0 0 21 74 59 7 13 7 0 0 0 0 0 0 0 0 0 0 0 0 0 0 0 0 0 0 0 0 0 1 2 0 1 0
0 0 0 0 0 0 0 0 0 0 0 1 1 1 2 0 0 0 0 0 0 3 51 21 19 12 52 0 0 0 0 0 0 0 0 0 0 0 0 0 0 0 0 0 0 0 0 0 0 0 1 1 10 7
0 0 0 0 0 0 0 0 0 0 0 6 23 5 3 3 2 0 0 0 0 0 1 8 0 0 0 0 0 0 0 0 0 0 0 0 0 0 0 0 0 0 0 0 0 0 0 0 0 0 0 0 0 0
0 0 0 0 0 1 0 0 0 0 4 7 12 5 8 1 0 0 0 0 0 0 0 4 0 0 0 0 0 92 108 111 0 0 0 0 0 0 0 0 0 0 0 0 0 0 0 0 0 0 0 0 0 0
0 0 0 0 0 0 0 0 0 0 2 1 10 19 25 6 0 0 0 0 0 0 0 4 0 0 0 0 0 0 0 52 31 0 0 0 0 0 0 0 0 0 0 0 0 0 0 0 0 0 0 0 0 0
0 0 0 0 0 0 0 10 0 0 18 16 6 30 26 27 3 0 0 0 0 0 0 0 0 11 20 23 17 14 6 6 14 35 39 31 10 4 0 0 0 0 0 0 0 0 0 0 0 0 0 0 0 0
0 0 0 0 81 8 26 34 53 52 9 55 86 48 45 36 14 5 8 9 1 0 0 0 0 29 42 53 31 13 10 8 9 11 0 0 4 2 1 0 0 0 0 0 0 0 0 0 0 0 0 0 0 0
0 0 22 50 141 43 213 99 265 144 245 150 134 46 23 32 27 0 3 0 0 8 30 34 32 28 29 34 32 21 12 12 14 2 0 0 0 0 0 0 0 0 0 0 0 0 0 0 0 0 0 0 0 0
0 0 76 116 197 18 144 264 474 365 405 212 106 52 28 34 44 6 0 0 12 33 33 23 38 34 11 5 13 10 2 0 3 0 0 0 0 0 0 0 0 0 0 0 0 0 0 0 0 0 0 0 0 0
0 47 140 121 64 21 138 304 311 432 384 212 103 28 48 96 51 5 0 0 3 21 18 11 0 0 6 23 0 0 0 0 0 0 0 0 0 0 0 0 0 0 0 0 0 0 0 0 0 0 0 0 0 0
0 0 1 0 159 185 16 28 95 39 0 184 77 53 155 72 21 0 0 0 0 0 0 5 1 0 0 0 0 0 0 0 0 0 0 0 0 0 0 0 0 0 0 0 0 0 0 0 0 0 0 0 0 0
0 0 9 43 171 174 55 0 0 0 0 68 151 223 146 33 0 0 0 0 0 0 0 0 0 0 0 0 0 0 0 0 0 0 0 0 0 0 0 0 0 0 0 1 0 0 0 0 0 0 0 0 0 0
0 38 151 24 220 210 330 175 77 0 0 0 26 138 40 0 0 0 0 0 0 0 0 0 0 0 0 0 0 0 0 0 0 0 0 0 0 0 0 0 0 0 1 6 7 10 0 0 0 0 0 0 0 0
180 170 138 385 360 277 238 249 80 0 0 0 0 34 8 13 11 7 6 1 0 0 3 1 0 0 0 0 0 0 0 0 0 0 0 0 0 0 0 0 0 0 0 1 1 16 15 0 0 0 0 0 0 0
469 305 126 300 324 340 374 314 169 38 17 14 36 72 32 28 32 39 13 28 8 1 1 0 0 1 2 0 0 0 0 0 0 0 0 0 0 0 0 0 0 0 0 0 0 0 0 0 0 0 0 0 0 0
482 275 338 321 281 225 234 249 293 217 44 27 55 50 47 41 41 36 52 65 30 3 10 13 6 10 4 0 0 0 0 0 0 0 0 0 0 0 0 0 0 0 0 0 14 0 0 0 0 0 0 0 0 0
397 373 465 425 205 294 258 144 29 16 16 14 3 16 78 104 44 53 58 61 37 31 13 5 3 0 0 0 0 0 0 1 0 0 0 0 0 0 0 0 0 0 0 0 0 0 0 0 0 0 0 0 0 0
368 455 335 147 38 179 8 91 117 97 110 89 123 55 78 124 173 30 45 51 38 5 0 1 0 0 0 0 0 0 0 0 0 0 0 0 0 0 0 0 0 0 0 0 0 0 0 0 0 0 0 0 0 0
31 27 64 30 53 144 72 48 141 197 172 172 227 167 176 180 229 28 18 10 0 0 0 0 0 0 0 0 0 0 0 0 0 0 0 0 0 0 0 0 0 0 0 0 0 0 0 0 0 0 0 0 0 0

GFSWCAN_con_mucape_027.txt.gz
CAPE
0 0 0 0 0 0 0 0 1 2 13 10 4 7 20 0 0 2 0 0 0 0 0 0 0 0 44 18 48 62 108 152 78 141 138 91 60 117 63 9 19 0 0 0 0 0 0 0 0 55 26 84 36 25
0 0 0 0 0 0 0 0 0 0 0 0 0 13 0 0 0 0 0 0 1 0 0 0 0 20 22 21 29 41 48 55 52 163 263 231 137 68 73 27 21 1 10 0 0 0 9 0 1 1 0 55 31 1
0 0 0 0 0 0 0 0 0 0 0 0 0 0 0 0 0 0 0 0 0 0 0 0 0 0 24 6 26 1 28 25 28 28 58 85 101 150 120 66 36 66 37 7 0 0 0 0 0 0 0 0 0 0
0 0 0 0 0 0 0 0 0 0 0 0 0 0 0 0 0 0 0 0 0 0 0 0 2 0 2 17 17 16 28 14 11 45 74 92 68 105 124 85 101 76 53 33 6 0 1 2 2 0 0 0 0 0
0 0 0 0 0 0 0 0 0 0 0 0 0 0 0 0 0 0 0 1 0 0 0 0 0 0 15 9 13 7 8 7 0 0 0 0 11 18 31 42 28 81 73 13 2 41 30 5 1 0 0 0 0 0
0 0 0 0 0 0 0 0 0 0 0 0 0 0 0 0 0 0 0 0 4 0 0 0 0 0 0 0 0 1 0 0 0 0 0 0 0 0 0 19 14 48 61 73 84 46 41 53 39 26 0 8 0 0
0 0 0 0 0 0 0 0 0 0 0 0 0 0 0 0 0 0 0 0 0 0 0 0 0 0 0 0 0 0 0 0 0 0 0 0 0 0 0 0 3 0 25 55 19 29 99 70 62 81 36 26 5 0
0 0 0 0 0 0 0 0 0 0 0 0 0 0 0 0 0 0 0 0 0 0 0 1 0 0 0 0 0 0 0 0 0 0 0 0 0 0 4 0 0 0 1 0 42 29 18 42 26 24 4 59 69 59
0 0 0 0 0 0 0 0 0 0 0 0 0 0 0 0 0 0 0 0 0 0 0 0 0 0 0 0 0 0 0 0 0 0 0 0 0 0 18 0 0 0 0 0 0 6 7 11 38 22 12 43 25 14
0 0 0 0 0 0 0 0 0 0 0 0 0 0 0 0 0 0 0 0 0 0 0 0 0 0 0 0 0 0 0 0 0 0 0 0 0 0 0 17 3 0 0 0 0 0 0 0 5 16 16 32 15 109
0 0 0 0 0 0 0 0 0 0 0 1 7 3 0 0 0 0 0 0 0 0 0 0 0 0 0 0 0 0 0 0 0 0 0 0 0 0 0 0 2 4 0 4 9 14 27 52 85 105 110 128 109 29
0 0 0 0 0 0 0 0 0 0 0 0 0 0 0 0 0 0 0 0 0 233 60 41 119 0 0 5 0 0 16 0 0 0 0 0 0 0 0 0 0 0 0 0 14 8 34 71 232 182 70 57 34 5
0 0 0 0 0 0 0 0 0 0 0 0 0 0 1 0 0 0 0 0 0 0 19 35 200 57 78 7 125 106 0 0 0 0 0 0 0 0 0 0 0 0 0 0 0 0 3 11 31 22 3 15 43 0
0 0 0 0 0 0 0 0 0 0 0 0 0 15 13 3 1 2 30 23 34 21 54 89 367 150 113 93 63 0 29 0 0 0 0 0 10 112 77 2 0 0 0 0 0 0 1 0 0 0 0 0 0 0
0 0 0 0 0 0 0 0 0 0 0 1 3 70 22 16 18 31 29 30 13 25 160 141 109 118 63 40 34 48 26 0 0 0 0 0 97 99 67 53 44 12 0 0 0 0 0 0 0 0 0 0 0 0
0 0 0 0 0 0 0 1 1 0 0 3 6 5 7 3 2 1 2 1 4 26 359 64 54 56 26 20 0 0 0 0 0 0 0 48 53 64 66 23 19 2 1 0 0 0 0 0 0 0 0 0 0 0
0 0 0 0 0 0 0 29 0 0 1 8 14 9 6 0 0 1 1 0 3 10 35 27 14 18 12 31 12 0 0 2 38 0 0 30 64 58 3 0 0 0 3 3 8 32 0 8 6 0 0 0 0 0
0 0 0 0 0 35 63 32 0 3 9 10 17 11 9 0 0 1 0 0 0 9 16 8 24 12 2 0 0 20 45 125 38 10 3 32 68 34 16 2 0 0 0 0 0 0 4 6 4 1 3 0 0 0
0 0 0 0 0 13 79 70 177 13 5 8 21 16 10 1 0 0 0 0 1 4 8 9 2 0 0 0 9 40 30 20 28 49 45 54 29 22 20 6 3 0 0 0 0 0 0 0 0 0 0 0 0 0
0 0 0 0 0 305 136 199 258 119 64 17 59 41 34 12 0 0 0 0 0 0 1 0 0 13 27 33 32 26 25 3 11 20 19 13 8 15 13 4 0 1 0 0 0 0 2 3 0 0 0 0 0 0
0 10 0 46 461 295 227 140 205 86 133 120 64 53 28 33 7 0 1 2 3 0 0 8 16 28 23 29 33 16 18 5 19 13 3 0 0 5 6 0 0 1 0 0 2 6 4 3 2 1 0 0 0 0
67 0 255 255 458 277 431 286 321 314 335 144 113 60 41 42 28 0 1 7 2 5 2 4 2 9 16 27 17 23 12 8 25 7 1 0 3 0 3 0 0 0 2 5 12 11 8 3 1 7 3 1 1 0
2 14 455 398 423 124 250 486 339 190 206 164 156 89 40 43 48 11 4 2 7 6 8 5 1 9 10 14 18 24 6 0 0 2 0 1 1 9 3 3 0 0 1 3 9 16 11 0 0 0 3 1 0 0
0 441 486 250 142 21 234 329 214 215 258 211 83 94 101 108 81 19 0 0 0 6 4 0 1 0 5 28 15 1 0 0 0 0 4 0 0 2 7 6 7 5 2 7 7 9 7 8 0 6 6 0 0 0
83 13 110 0 307 173 4 21 39 62 42 95 168 167 205 184 132 12 1 0 0 0 0 13 7 0 0 0 0 0 0 0 0 0 4 0 0 1 6 13 16 9 9 10 13 13 12 13 13 9 9 0 0 0
0 80 216 16 85 182 71 135 102 134 86 84 175 230 291 316 117 17 19 7 14 6 0 0 0 0 0 0 0 0 0 0 0 0 0 0 0 0 5 12 16 9 2 7 17 16 19 17 18 16 16 3 0 0
0 40 156 181 180 210 345 230 211 194 75 55 91 97 167 104 75 54 37 9 26 23 0 0 0 0 1 6 1 0 0 0 0 0 0 0 2 2 1 0 0 0 1 15 21 20 19 19 18 15 15 23 25 13
277 242 143 266 256 323 220 202 140 115 60 63 91 65 110 62 105 165 127 40 57 34 10 0 1 0 3 8 0 0 0 0 4 4 6 8 5 7 4 6 5 0 0 1 1 11 18 20 19 20 26 27 31 32
475 445 122 124 252 185 239 194 168 92 107 82 99 127 196 222 241 133 49 34 50 56 6 0 1 0 5 5 2 0 0 0 0 0 0 17 15 13 10 12 18 14 15 7 0 0 0 0 0 0 23 31 17 36
482 226 137 200 162 99 86 233 108 88 177 194 191 190 260 277 298 85 23 20 59 46 2 0 12 0 7 13 7 6 7 2 2 2 1 0 0 17 17 18 18 17 18 25 12 6 0 6 8 8 0 24 0 6
169 183 206 167 129 97 113 30 65 139 259 193 169 166 174 471 163 48 30 28 70 27 13 15 13 16 9 2 0 0 1 15 1 1 0 12 17 17 17 8 18 13 9 15 20 15 12 0 0 0 0 0 0 0
262 221 159 89 104 67 104 110 47 99 131 159 202 255 338 472 374 205 19 5 7 23 0 1 14 1 0 0 1 0 0 2 15 15 16 15 15 14 14 16 21 17 22 28 32 0 0 0 0 0 0 0 0 0
36 27 26 36 97 97 57 6 39 165 186 193 287 385 307 343 290 12 0 0 0 0 0 0 0 0 0 0 0 0 2 9 0 0 0 0 0 0 0 14 15 0 5 32 31 6 0 0 0 0 0 0 0 0

GFSWCAN_con_mucape_030.txt.gz
CAPE
0 0 0 0 0 0 0 0 0 0 0 0 0 0 0 0 0 0 0 0 0 0 0 0 0 0 9 46 65 63 62 145 183 174 168 126 6 43 14 1 0 0 0 0 0 0 0 0 0 26 62 83 8 0
0 0 0 0 0 0 0 0 0 0 0 0 0 0 0 0 0 0 0 0 0 0 0 0 0 0 0 28 55 38 26 32 26 48 124 28 48 19 31 4 0 0 24 0 0 1 62 0 0 0 0 87 55 0
0 0 0 0 0 0 0 0 0 0 0 0 0 0 0 0 0 0 0 0 0 0 0 0 0 10 3 21 38 0 28 31 33 18 21 9 27 44 52 0 0 0 3 0 0 0 0 0 0 0 0 0 66 12
0 0 0 0 0 0 0 0 0 0 0 0 0 0 0 0 0 0 0 0 0 0 0 0 24 0 15 13 14 24 16 12 31 33 33 50 24 36 23 0 0 2 0 2 0 0 0 0 0 0 0 0 27 44
0 0 0 0 0 0 0 0 0 0 0 0 0 0 0 0 0 0 0 0 0 0 0 0 0 0 7 24 15 42 0 0 0 0 0 0 8 8 14 2 0 0 0 0 1 20 49 18 0 0 0 0 0 12
0 0 0 0 0 0 0 0 0 0 0 0 0 0 0 0 0 0 0 0 0 0 0 0 0 0 0 0 0 0 2 55 91 0 0 0 0 0 0 9 0 10 16 10 1 0 0 0 0 0 0 0 0 0
0 0 0 0 0 0 0 0 0 0 0 0 0 0 0 0 0 0 0 0 0 0 0 0 6 0 0 0 0 0 0 0 0 0 0 0 0 0 0 0 0 1 0 4 0 2 1 0 0 0 0 0 0 0
0 0 0 0 0 0 0 0 0 0 0 0 0 0 0 0 0 0 0 0 0 0 0 0 0 0 0 0 0 0 0 0 0 0 0 0 0 0 0 11 4 1 0 0 0 0 0 1 2 27 13 0 0 0
0 0 0 0 0 0 0 0 0 0 0 0 0 0 0 0 0 0 0 0 0 0 0 0 0 0 0 0 0 0 0 0 0 0 0 0 0 0 0 0 0 0 0 0 0 0 0 0 3 7 3 1 1 0
0 0 0 0 0 0 0 0 0 0 0 0 0 0 1 0 0 0 0 0 0 0 0 2 11 1 0 0 0 0 0 0 0 0 0 0 0 0 0 0 0 0 0 0 0 0 0 21 24 26 24 16 3 0
0 0 0 0 0 0 0 0 0 0 0 0 34 10 0 0 0 0 23 18 40 92 6 28 5 7 0 0 0 0 0 0 0 0 0 0 0 0 0 0 0 0 0 0 0 0 0 0 0 3 13 18 31 86
0 0 0 0 0 0 0 0 0 0 0 0 0 0 2 10 4 9 7 17 12 55 23 25 24 96 9 0 0 16 63 78 0 7 0 0 0 0 0 0 0 0 0 10 13 22 6 22 19 26 28 33 42 82
0 0 0 0 0 0 0 0 0 0 0 69 0 5 2 5 4 10 13 23 48 23 55 55 370 131 301 9 192 201 14 0 35 0 0 0 71 89 0 0 0 0 0 2 0 0 26 24 8 52 66 105 90 86
0 0 0 0 0 0 0 0 0 0 0 39 0 0 3 12 27 20 35 29 50 47 120 105 201 90 68 69 17 47 34 7 0 0 0 44 131 88 74 27 0 0 0 0 0 0 0 0 0 0 14 63 36 16
0 0 0 0 0 0 0 0 0 0 71 1 9 8 22 12 11 5 6 9 9 29 166 243 126 122 48 8 11 19 32 0 0 0 22 99 149 121 74 3 17 7 0 0 0 0 0 0 0 0 0 0 0 0
0 0 0 0 0 0 0 17 141 94 2 2 7 12 2 0 0 0 1 4 5 24 142 83 8 25 20 33 8 7 8 0 30 55 35 66 149 118 92 65 0 6 3 41 67 37 0 0 0 0 0 0 0 0
0 41 0 0 0 0 0 96 61 0 1 19 19 12 1 0 0 0 0 0 1 10 18 37 12 10 14 20 33 54 0 73 66 79 46 101 128 65 82 51 28 31 6 0 51 12 77 42 9 7 0 0 0 0
0 0 0 0 0 111 373 164 29 35 42 25 49 21 8 0 0 0 0 0 0 2 16 6 3 7 0 0 0 21 26 34 61 55 47 83 123 80 37 26 42 36 22 16 11 38 13 8 34 37 49 63 22 0
0 0 0 0 0 34 216 118 372 173 109 38 71 83 68 8 0 0 0 0 0 0 3 3 0 0 0 9 20 17 16 5 1 26 80 72 87 97 29 12 16 13 10 19 3 1 19 36 1 0 0 0 0 0
0 0 0 0 1 738 203 172 440 366 167 78 161 102 14 70 6 0 2 0 1 2 0 0 18 19 13 16 22 7 12 0 2 3 13 1 1 23 24 1 0 14 2 8 5 0 16 10 5 0 0 0 0 0
10 105 0 67 979 678 174 50 421 108 172 144 202 102 107 142 51 2 0 2 2 0 0 3 0 6 11 13 15 6 10 0 3 13 0 0 0 5 5 3 1 0 1 0 9 13 6 4 4 8 2 2 0 0
217 0 246 434 599 300 410 60 110 320 333 331 128 134 214 65 113 16 1 9 14 1 0 3 0 0 17 8 0 8 1 0 16 6 1 0 0 0 4 4 2 0 2 1 6 10 6 2 0 1 2 0 2 0
14 63 675 510 329 114 125 301 378 185 196 218 239 86 97 90 182 87 54 10 14 5 7 0 0 7 4 16 16 24 4 0 0 0 0 1 0 1 4 7 8 4 2 7 8 9 6 0 0 0 5 5 4 4
51 611 611 309 28 0 157 336 160 133 164 220 174 204 291 473 240 198 69 25 9 6 25 17 18 14 24 78 11 12 1 0 0 0 4 2 0 0 2 12 12 11 0 8 11 11 11 13 1 7 5 0 0 7
257 0 76 0 176 122 43 38 40 53 86 106 93 201 244 202 249 271 47 33 40 70 69 21 0 19 0 7 8 6 1 0 0 0 3 0 0 1 4 15 19 8 3 0 11 16 17 12 16 6 8 0 0 4
0 31 0 24 70 48 42 33 109 77 99 31 21 301 306 251 159 51 27 39 87 76 26 11 1 0 0 24 13 3 0 0 0 0 1 0 3 3 6 8 11 1 0 3 17 18 19 18 16 11 13 3 0 11
0 90 206 15 6 44 173 237 270 221 16 45 63 100 224 0 97 183 102 129 160 48 31 17 1 0 10 22 7 0 0 2 5 0 4 0 1 5 1 4 0 0 0 5 9 5 14 19 22 19 22 34 24 20
350 195 100 206 434 301 255 83 54 226 132 104 156 169 192 235 201 158 144 94 17 17 25 5 0 6 19 1 0 0 0 0 3 8 10 8 8 7 3 14 1 0 0 0 0 7 2 11 12 14 21 29 33 24
224 21 330 484 312 395 344 306 367 173 147 164 163 135 124 265 92 125 94 48 21 133 128 14 37 17 23 24 21 20 3 0 0 3 16 22 17 10 15 15 20 15 9 0 0 0 0 0 0 0 18 28 28 34
623 208 512 134 121 207 309 237 305 117 99 64 36 86 239 364 165 3 0 1 119 127 45 28 23 14 32 15 1 0 1 5 1 0 2 14 16 15 16 16 13 15 14 14 12 11 0 3 19 20 16 27 19 23
278 391 126 214 223 43 242 161 80 57 171 145 146 217 318 251 149 95 96 88 56 78 45 36 21 12 1 0 0 0 0 8 4 0 0 9 12 25 19 25 20 22 27 25 26 31 25 17 32 0 0 0 0 0
299 310 346 180 78 44 106 220 123 52 115 140 121 133 383 312 363 219 7 1 4 13 0 3 0 0 0 0 0 0 0 4 1 2 0 0 0 0 0 15 23 23 34 30 32 36 36 37 37 23 0 0 0 0
232 92 83 75 124 138 83 75 75 99 239 185 181 288 142 264 173 21 0 0 0 0 0 0 0 0 0 0 0 1 1 0 0 0 0 0 0 0 0 3 6 19 39 46 28 24 34 28 19 26 0 0 0 0

GFSWCAN_con_mucape_033.txt.gz
CAPE
0 0 0 0 0 0 0 0 0 0 0 0 0 0 0 0 0 0 0 2 0 0 0 0 0 0 0 0 0 17 0 20 63 40 9 0 0 0 1 0 0 0 0 12 10 7 35 29 1 5 0 1 43 195
0 0 0 0 0 0 0 0 0 0 0 0 0 0 0 0 0 0 0 1 3 0 0 0 0 0 0 0 0 5 21 23 36 4 6 0 0 0 0 0 0 0 0 4 21 19 0 0 0 0 0 8 32 40
0 0 0 0 0 0 0 0 0 0 0 0 0 0 0 0 0 0 0 0 0 0 0 0 0 0 0 26 21 0 9 21 38 33 4 0 0 0 0 0 0 1 0 0 1 0 0 0 0 0 0 16 35 0
0 0 0 0 0 0 0 0 0 0 0 0 0 0 0 0 0 0 0 1 0 0 0 0 0 0 9 13 14 3 10 10 2 7 5 13 1 0 0 0 0 0 0 0 0 0 0 0 0 0 0 0 37 0
0 0 0 0 0 0 0 0 0 0 0 0 0 0 0 0 0 0 0 0 0 0 0 0 0 0 0 3 0 5 9 9 0 0 0 0 0 0 0 0 0 0 0 0 0 0 0 0 0 0 0 0 17 0
0 0 0 0 0 0 0 0 0 0 0 0 0 0 0 0 0 0 0 0 0 0 0 0 0 0 0 0 0 0 0 0 0 0 0 0 0 0 0 0 0 0 0 0 0 0 0 0 0 0 0 0 0 0
0 0 0 0 0 0 0 0 0 0 0 0 0 0 0 0 0 0 0 0 0 0 0 0 0 0 0 5 0 0 0 0 0 0 0 0 0 0 0 0 0 0 0 0 0 0 0 0 0 0 0 0 0 0
0 0 0 0 0 0 0 0 0 0 0 0 0 0 0 0 0 0 0 0 0 0 0 0 0 0 0 0 0 0 0 0 0 0 0 0 0 0 0 0 0 0 0 0 0 0 0 0 0 0 0 0 0 0
0 0 0 0 0 0 0 0 0 0 0 0 0 0 0 0 0 0 0 0 0 0 0 23 17 0 0 0 0 0 0 0 0 0 0 0 0 0 0 0 0 0 0 0 0 0 0 0 0 0 0 0 0 0
0 0 0 0 0 0 0 0 0 0 0 0 0 0 0 0 0 0 0 0 0 0 5 13 17 18 2 0 0 0 0 0 0 0 0 0 0 0 0 0 0 0 0 0 0 0 0 0 0 0 0 0 0 0
0 0 0 0 0 0 0 0 0 0 0 0 6 36 0 0 0 3 19 4 18 24 8 8 3 2 6 1 3 0 0 0 0 0 0 0 0 0 0 0 0 0 3 2 0 0 8 22 11 0 0 3 2 1
0 0 0 0 0 0 0 0 0 0 49 0 0 4 0 0 5 14 25 30 76 84 115 26 33 34 33 18 12 22 12 5 0 2 0 0 0 34 0 0 0 0 1 0 3 0 0 0 2 7 4 7 2 0
0 0 0 0 0 0 0 0 0 0 1 70 239 95 30 16 11 19 8 18 138 125 105 61 247 347 86 18 22 107 44 13 44 0 0 0 36 51 14 0 0 0 0 0 0 0 1 6 11 9 10 19 18 3
0 0 0 0 0 0 0 0 0 0 0 405 288 1 22 105 100 34 17 19 13 0 24 426 698 404 367 184 82 59 23 1 0 0 0 29 42 40 41 0 0 0 0 0 0 0 0 0 0 0 20 18 22 57
0 0 0 0 0 0 0 0 0 0 69 293 121 62 78 14 7 2 2 1 0 0 60 186 343 138 80 16 23 0 1 0 23 0 43 41 55 22 25 31 0 0 0 46 5 0 0 0 0 0 0 0 0 2
0 0 0 0 0 0 0 21 9 211 598 299 89 19 0 0 0 0 0 0 0 7 90 155 37 31 8 28 15 6 0 0 46 59 60 57 68 44 42 13 29 23 8 7 48 14 0 0 0 0 0 0 0 0
0 47 0 0 0 0 98 372 1146 159 137 301 235 35 0 0 0 0 0 0 0 7 0 61 0 0 37 5 3 51 71 86 57 91 58 93 67 68 55 24 33 40 25 13 10 52 7 9 0 0 0 0 0 0
0 0 0 0 0 38 1088 657 356 148 50 126 281 346 119 3 0 0 0 3 1 1 0 0 10 0 0 0 0 48 35 5 0 19 106 128 113 131 33 36 46 53 40 21 34 24 9 11 15 28 0 0 0 0
0 0 0 0 0 33 726 301 744 574 328 348 347 239 282 221 290 226 39 161 343 106 75 32 14 0 3 24 7 0 0 0 0 2 136 125 101 64 72 22 2 25 90 14 35 44 20 4 0 0 0 0 0 0
0 0 0 0 0 590 867 608 1139 974 267 511 478 613 450 434 269 196 120 16 37 1 0 0 0 1 0 0 5 0 0 0 0 0 10 0 0 1 112 17 8 9 6 69 0 0 0 0 1 0 0 0 0 0
21 194 1 12 744 388 692 439 473 563 517 513 643 691 577 683 201 174 140 264 12 0 0 0 0 0 77 37 14 0 0 0 0 4 9 0 0 0 37 18 6 0 2 0 12 0 0 0 1 0 0 0 0 0
162 0 210 737 653 521 626 820 330 977 863 622 610 726 672 633 505 338 278 162 115 70 70 2 5 7 62 39 4 12 10 7 44 27 2 3 0 0 1 3 12 0 1 1 13 0 0 0 0 3 0 0 0 0
23 15 652 859 200 35 37 830 642 630 426 519 720 394 409 471 430 507 336 222 146 217 48 82 72 100 70 110 328 122 49 47 15 1 6 3 0 0 0 0 2 0 0 0 6 0 0 0 0 0 0 0 0 8
393 452 705 547 130 0 332 627 886 565 575 432 394 243 410 666 724 447 376 41 125 75 230 262 83 44 174 313 127 45 28 0 0 0 0 0 0 0 1 11 0 0 0 0 0 15 10 1 1 0 0 0 2 3
232 0 69 3 84 304 26 303 148 0 0 0 18 502 619 614 1 69 286 163 211 158 225 173 72 11 2 33 19 0 0 0 0 0 0 0 0 0 0 12 0 0 0 0 0 6 11 7 9 2 0 0 3 4
278 36 0 68 166 133 58 241 316 56 40 11 98 458 681 95 13 59 97 181 259 228 134 121 83 6 10 79 1 0 0 0 0 0 0 0 0 0 0 0 0 0 0 0 1 1 3 3 6 19 9 2 0 2
0 93 552 566 321 241 71 57 50 166 256 56 125 197 265 132 21 0 7 69 68 141 165 136 16 0 4 53 23 0 0 13 20 9 20 1 6 2 4 0 0 0 0 0 0 0 0 1 1 4 8 6 1 0
509 319 309 528 391 330 125 48 0 82 215 248 223 72 79 197 4 8 75 103 50 85 18 22 13 2 36 29 10 7 8 1 25 14 1 0 0 0 6 1 0 0 0 0 0 0 0 0 0 2 11 16 25 10
442 805 49 51 104 361 206 260 246 365 381 357 271 139 230 104 40 164 42 115 95 16 37 26 56 34 38 48 34 24 10 0 0 0 3 5 0 0 0 0 0 10 3 1 0 0 0 0 0 0 7 14 25 27
358 214 262 357 486 422 347 199 355 414 310 202 126 50 84 165 94 164 47 168 66 28 52 61 22 18 4 1 1 0 0 0 0 0 1 0 0 0 2 2 4 6 12 32 23 10 0 4 14 18 13 9 5 9
549 678 545 514 410 417 156 236 200 271 31 59 55 77 233 130 237 203 71 65 33 25 14 1 0 0 0 0 0 0 0 0 0 0 0 0 0 1 3 31 23 25 37 39 37 37 28 33 33 34 31 28 1 0
294 255 515 483 113 78 406 108 96 164 123 158 22 189 142 190 90 133 0 0 0 0 0 0 0 0 0 0 0 0 0 0 0 1 5 0 0 0 0 1 6 16 46 45 38 29 28 26 29 34 33 0 0 15
524 434 448 275 254 520 232 98 68 91 206 288 196 92 82 114 2 0 3 0 0 0 0 0 0 0 0 0 0 0 0 0 0 0 0 0 0 0 0 0 0 7 22 32 19 20 20 21 26 30 26 34 0 0

GFSWCAN_con_mucape_039.txt.gz
CAPE
0 0 0 0 0 0 0 0 0 0 0 0 0 0 0 0 0 0 0 3 0 0 0 0 0 0 0 0 0 0 0 0 0 0 0 0 0 0 0 0 0 14 49 84 101 30 23 29 17 32 2 14 37 126
0 0 0 0 0 0 0 0 0 0 0 0 0 0 0 0 0 0 0 0 0 0 0 0 16 21 6 5 0 0 0 1 0 0 0 0 0 0 0 4 0 4 18 75 78 58 16 29 49 45 42 16 10 103
0 0 0 0 0 0 0 0 0 0 0 0 0 0 0 0 0 0 0 0 0 0 0 0 0 20 24 21 17 0 0 2 0 0 0 0 0 0 0 0 0 0 0 42 18 61 20 5 42 41 80 32 5 52
0 0 0 0 0 0 0 0 0 0 0 0 0 0 0 0 0 0 0 0 0 0 0 0 0 0 0 4 2 0 0 7 0 0 0 0 0 0 0 0 0 0 0 0 15 19 24 2 19 24 92 75 48 18
0 0 0 0 0 0 0 0 0 0 0 0 0 0 0 0 0 0 0 0 0 0 0 0 0 0 0 0 0 0 0 0 0 0 0 0 0 0 0 0 0 0 0 22 15 4 3 10 2 17 18 56 9 3
0 0 0 0 0 0 0 0 0 0 0 0 0 0 0 0 0 0 0 0 0 0 0 0 0 0 0 0 0 0 0 0 0 0 0 0 0 0 0 0 4 3 0 0 0 0 0 0 0 0 0 0 0 9
0 0 0 0 0 0 0 0 0 0 0 0 0 0 0 0 0 0 0 0 2 0 0 0 0 0 0 0 0 0 0 0 0 0 0 0 0 0 0 0 0 0 0 0 0 9 0 0 0 0 0 0 0 1
0 0 0 0 0 0 0 0 0 0 0 0 0 0 0 0 0 0 0 0 0 1 0 4 0 0 15 6 0 0 0 0 0 0 0 0 0 0 0 0 0 0 0 0 0 0 0 0 0 0 0 0 0 0
0 0 0 0 0 0 0 0 0 0 0 1 0 0 0 0 0 1 2 10 1 0 3 12 15 25 12 5 0 0 0 0 0 0 0 0 0 0 0 0 0 0 0 0 0 0 4 0 0 0 0 0 0 0
0 0 0 0 0 0 0 0 0 0 0 0 0 0 0 1 0 0 8 0 4 0 3 20 4 18 3 12 0 0 0 0 0 0 0 0 0 0 0 0 0 0 0 0 0 0 0 0 0 0 0 0 0 0
0 0 0 0 0 0 0 0 0 0 0 0 0 15 0 28 0 0 5 0 3 5 13 16 2 6 1 14 0 0 0 0 0 0 0 0 0 0 1 0 8 0 0 0 0 0 0 0 5 2 1 0 0 34
0 0 0 0 0 0 0 0 0 0 0 0 0 0 0 57 28 0 0 1 5 18 43 45 45 36 21 1 3 9 23 0 0 0 0 0 0 0 0 0 3 12 0 0 0 0 0 0 0 2 7 4 3 0
0 0 0 0 0 0 0 0 0 0 0 0 20 30 6 0 0 0 0 0 0 0 0 2 34 95 56 16 17 5 0 0 0 0 0 0 0 0 0 0 0 13 5 0 0 0 0 0 0 0 0 0 0 0
0 0 0 0 0 0 0 0 0 0 0 1 238 0 0 0 0 0 0 0 0 0 0 67 145 244 99 4 0 6 0 0 0 0 0 0 7 0 0 0 0 1 9 8 0 0 0 0 0 0 0 0 0 0
0 0 0 0 0 0 0 0 0 0 0 8 7 0 6 7 0 0 0 0 0 0 0 30 0 0 0 0 0 0 0 0 0 0 0 8 16 0 0 0 0 0 10 12 1 0 0 0 0 0 0 0 0 0
0 0 0 0 0 0 0 0 0 0 0 73 4 0 8 16 1 0 0 0 0 0 0 0 0 0 0 0 0 0 0 0 0 0 10 26 7 1 0 0 0 0 0 23 13 0 0 0 0 0 0 0 0 0
0 0 0 0 0 0 0 0 0 19 0 4 9 9 16 8 0 0 0 0 0 0 0 0 0 0 0 0 0 0 0 0 0 0 13 16 0 17 8 0 0 0 0 18 32 24 14 19 20 10 0 0 0 0
0 0 0 0 0 0 0 44 0 3 4 8 7 10 5 1 8 7 0 0 0 0 0 0 0 0 0 0 0 0 0 0 0 0 0 10 1 0 0 0 0 0 0 0 0 0 12 34 33 2 0 0 0 0
0 0 0 0 0 0 0 110 28 7 174 6 4 0 18 59 57 31 8 0 0 0 0 0 0 0 0 0 0 0 0 0 0 0 0 0 0 0 0 0 0 0 0 0 4 0 0 0 0 0 0 0 0 0
0 0 0 0 0 0 213 479 4 7 10 1 8 15 69 113 133 81 29 1 25 8 1 0 3 0 0 0 0 0 0 0 0 0 0 0 0 0 0 0 0 0 0 0 0 0 0 0 0 0 0 0 0 0
4 33 0 0 84 254 40 36 0 0 5 5 15 122 159 135 25 12 0 25 42 1 2 7 8 1 0 0 0 0 0 0 0 0 0 0 0 0 0 3 0 0 0 0 0 0 0 0 0 0 0 0 0 0
0 0 0 122 218 348 572 3 3 0 0 19 66 157 79 33 22 19 0 0 2 16 15 18 5 12 6 0 2 6 14 4 1 0 0 0 0 0 0 0 0 0 0 0 0 0 0 0 0 0 0 0 0 0
35 8 6 232 478 32 0 0 0 38 38 40 27 48 27 22 24 10 1 0 1 6 3 2 9 32 7 1 2 14 23 20 0 0 0 0 0 0 0 0 1 0 4 3 0 0 0 0 0 0 0 0 0 3
39 75 297 314 184 30 0 0 152 77 25 9 11 14 27 20 13 0 0 0 0 0 0 11 12 2 0 0 16 31 26 6 0 0 0 0 0 0 0 0 9 7 4 1 0 0 0 0 0 0 0 1 3 9
0 0 0 0 0 1 10 2 19 5 9 4 8 3 15 0 0 0 0 0 0 0 2 3 0 0 0 0 0 0 6 3 1 0 0 0 0 0 0 0 0 0 0 2 6 4 4 2 2 1 0 0 0 1
181 8 0 0 25 1 0 10 5 12 19 14 0 20 5 2 5 0 0 0 7 43 44 11 8 6 1 19 15 15 16 7 8 1 0 0 0 0 0 0 0 0 0 0 0 13 13 10 6 4 3 4 3 0
120 0 14 48 54 45 42 18 10 2 5 21 2 9 36 14 0 0 0 0 29 68 36 19 11 8 25 44 21 16 32 16 8 0 0 15 0 0 2 0 1 0 0 0 0 7 8 5 12 13 18 16 5 1
27 277 128 129 110 61 36 7 11 16 16 23 7 15 35 44 15 0 0 17 41 49 32 27 25 40 22 31 31 33 30 16 14 11 15 10 0 14 3 6 9 1 0 0 0 0 0 7 11 11 10 10 6 11
94 349 242 29 48 45 158 28 72 24 32 29 10 25 13 0 0 0 0 0 55 65 64 58 60 44 18 16 6 0 0 0 4 5 8 9 2 0 4 11 7 3 0 0 0 0 0 2 11 16 17 15 14 10
20 86 190 83 116 112 198 138 103 129 52 33 18 14 8 0 0 0 0 2 0 0 5 6 9 5 0 0 0 0 0 0 0 0 0 1 5 13 22 11 0 2 0 3 2 3 4 0 3 2 4 2 3 0
162 187 162 149 160 190 190 119 84 19 16 19 25 29 2 0 0 0 0 0 0 0 0 0 0 0 0 0 0 0 0 0 0 1 2 1 2 4 5 3 6 11 5 4 0 3 11 9 6 6 1 0 0 0
348 280 224 214 186 55 17 14 9 8 9 34 37 25 12 0 0 0 0 0 0 0 0 0 0 0 0 0 0 0 0 0 0 0 0 0 0 0 6 12 12 11 9 2 2 0 0 0 0 0 0 0 0 0
297 267 176 187 35 20 6 7 23 24 16 23 28 40 4 0 0 0 0 0 0 0 0 0 0 0 0 0 0 0 0 0 0 0 0 0 0 0 0 0 0 0 0 0 0 0 0 0 0 0 0 0 0 0

GFSWCAN_con_mucape_042.txt.gz
CAPE
0 0 0 0 0 0 0 0 0 0 0 0 0 0 0 0 0 0 0 4 0 0 0 0 0 0 0 0 0 0 0 0 0 0 0 0 0 0 0 0 0 13 64 73 82 47 75 67 18 8 0 8 28 133
0 0 0 0 0 0 0 0 0 0 0 0 0 0 0 0 0 0 0 0 0 0 0 0 4 10 17 0 0 0 0 0 0 0 0 0 0 0 0 0 0 3 11 26 55 56 25 91 45 12 1 39 80 221
0 0 0 0 0 0 0 0 0 0 0 0 0 0 0 0 0 0 0 0 0 0 0 0 0 0 5 9 13 1 0 0 0 0 0 0 0 0 0 0 0 0 0 72 18 13 126 112 99 19 40 33 108 172
0 0 0 0 0 0 0 0 0 0 0 0 0 0 0 0 0 0 0 0 0 0 0 0 0 0 0 0 0 0 0 0 0 0 0 0 0 0 0 0 0 0 0 0 5 28 79 96 88 52 74 114 148 167
0 0 0 0 0 0 0 0 0 0 0 0 0 0 0 0 0 0 0 0 0 0 0 0 0 0 0 0 0 0 0 0 0 0 0 0 0 0 0 0 0 0 0 0 86 36 52 56 34 72 62 65 172 223
0 0 0 0 0 0 0 0 0 0 0 0 0 0 0 0 0 0 0 5 4 0 0 0 0 0 0 0 0 0 0 0 0 0 0 0 0 0 0 0 0 0 0 0 2 1 10 4 60 116 150 150 60 132
0 0 0 0 0 0 0 0 0 0 0 0 0 0 0 0 0 0 0 3 11 14 1 1 0 0 7 8 2 0 0 0 0 0 0 0 0 0 0 0 1 0 0 0 0 0 4 0 0 8 92 125 42 17
0 0 0 0 0 0 0 0 0 0 0 0 0 0 0 0 0 0 0 14 16 9 3 11 11 5 22 38 26 29 0 0 0 0 0 0 0 0 0 0 0 0 0 0 0 0 0 0 0 0 0 8 12 0
0 0 0 0 0 0 0 0 0 0 0 0 0 0 0 0 2 0 0 0 15 1 28 19 14 23 16 22 12 0 0 0 0 0 0 0 0 0 0 0 0 0 0 0 0 0 0 0 0 0 0 0 1 2
0 0 0 0 0 0 0 0 0 0 0 0 0 0 0 0 0 0 0 0 1 0 7 8 7 17 12 2 6 0 0 0 0 0 2 0 0 0 0 17 26 0 0 0 0 0 0 0 0 0 0 0 0 0
0 0 0 0 0 0 0 0 0 0 0 0 0 0 0 0 0 0 0 0 0 3 2 0 4 11 8 0 1 0 0 0 0 0 0 0 0 0 0 7 28 27 7 0 0 0 0 0 0 0 0 0 0 0
0 0 0 0 0 0 0 0 0 0 0 0 0 0 0 46 17 0 0 0 0 0 0 0 3 16 14 5 8 4 0 0 0 0 0 0 0 0 0 0 42 23 32 5 0 0 0 0 0 0 0 0 0 0
0 0 0 0 0 0 0 0 0 0 0 0 0 36 0 0 0 0 0 0 0 0 0 0 0 21 30 10 21 5 0 0 0 0 0 0 23 34 8 1 2 32 34 21 0 0 0 0 0 0 0 0 0 0
0 0 0 0 0 0 0 0 0 0 0 0 63 1 0 1 7 0 0 0 0 0 0 0 14 27 10 0 0 0 0 0 0 0 0 0 6 16 8 0 0 0 18 13 0 0 0 0 0 0 0 0 0 0
0 0 0 0 0 0 0 0 0 0 0 0 1 0 2 15 14 0 0 0 0 0 0 0 0 0 0 0 0 0 0 0 0 0 0 12 12 0 0 0 0 0 4 17 2 0 0 0 0 0 0 0 0 0
0 0 0 0 0 0 0 0 0 0 0 0 1 0 12 16 6 2 0 0 0 0 0 0 0 0 0 0 0 0 0 0 0 0 0 2 18 10 7 0 0 0 0 12 25 10 4 0 0 1 13 1 0 0
0 0 0 0 0 0 0 0 0 0 0 0 1 10 19 25 12 0 0 0 0 0 0 0 0 0 0 0 0 0 0 0 0 0 0 4 17 20 14 5 0 0 0 0 10 29 36 41 26 22 9 0 0 0
0 0 0 0 0 0 0 0 0 0 0 5 8 6 6 3 30 35 25 1 0 0 0 0 0 0 0 0 0 0 0 0 0 0 0 0 0 0 0 0 0 0 0 0 0 0 8 7 21 14 0 0 0 0
0 0 0 0 0 0 0 4 71 0 0 7 1 0 1 11 24 26 13 11 9 0 7 0 0 0 3 1 0 0 0 0 0 0 0 0 0 0 0 0 0 1 6 2 0 0 0 0 0 0 0 0 0 0
0 0 0 0 0 0 0 185 6 0 0 0 0 0 13 30 26 16 10 22 1 29 27 7 0 3 1 4 0 0 0 0 0 0 0 0 0 0 0 2 3 3 11 7 0 0 0 0 0 0 0 0 0 0
0 0 0 0 15 10 5 0 0 0 0 2 2 24 45 58 34 11 0 0 0 13 0 0 0 5 4 0 0 0 0 3 0 0 0 0 0 0 0 1 3 5 8 9 11 4 0 0 0 0 0 0 0 0
0 0 0 13 161 132 318 197 1 5 0 4 11 31 74 43 13 0 0 0 2 7 9 0 1 20 8 2 7 17 22 18 8 0 0 0 0 0 0 0 0 0 7 10 4 2 0 0 0 0 0 0 0 0
0 0 0 147 311 177 0 0 0 0 21 1 0 9 22 14 4 0 0 0 0 3 4 13 15 2 1 0 2 29 25 25 3 0 0 0 0 0 0 0 3 9 14 4 2 8 2 0 0 0 0 0 5 1
0 9 118 287 278 20 3 0 15 41 10 0 0 0 0 0 0 0 0 0 0 3 16 19 2 8 2 0 22 32 39 24 0 4 14 4 0 0 0 0 0 0 0 0 0 8 8 3 0 1 7 17 9 9
0 0 0 0 0 0 0 0 15 0 9 1 0 0 0 0 0 0 0 0 0 7 34 45 22 16 9 0 3 7 4 2 18 30 11 17 0 0 0 0 0 1 0 0 0 12 19 16 6 25 12 9 4 1
0 0 0 0 1 0 0 19 20 27 12 7 0 3 1 4 0 0 1 0 15 39 46 26 13 7 10 9 25 10 6 10 13 22 11 22 2 3 1 4 0 0 0 0 0 6 17 20 20 8 0 1 3 0
0 0 0 14 25 22 26 35 33 15 14 7 0 0 17 15 0 0 0 6 15 28 23 10 9 12 18 13 7 3 12 27 1 11 21 21 13 7 1 2 2 2 1 0 0 9 12 22 21 19 16 14 2 7
0 0 0 9 72 98 51 24 26 16 25 22 7 3 0 9 1 0 0 0 12 40 38 30 31 40 55 29 0 0 0 0 6 9 15 24 11 14 10 4 0 0 0 0 0 1 20 13 23 22 20 14 13 25
0 207 188 103 17 37 34 40 41 27 28 26 18 13 0 0 0 0 0 0 0 0 26 32 12 5 1 0 0 0 0 0 0 2 15 16 24 20 17 6 2 0 1 0 0 0 6 19 27 17 16 9 7 9
1 5 28 63 73 104 150 125 126 94 50 34 22 17 15 5 0 0 0 0 0 0 0 0 0 0 0 0 0 0 0 0 0 0 0 4 7 15 19 13 9 0 2 2 0 0 3 6 4 3 2 5 2 0
84 117 93 110 125 133 167 105 142 92 36 19 30 36 22 10 0 0 0 0 0 0 0 0 0 0 0 0 0 0 0 0 0 0 0 0 0 0 8 15 16 10 6 0 2 5 6 6 4 1 0 0 0 0
171 186 232 238 182 166 74 45 68 4 11 26 41 30 13 3 0 0 0 0 0 0 0 0 0 0 0 0 0 0 0 0 0 0 0 0 0 0 2 5 5 2 0 0 0 0 0 0 0 0 0 0 0 0
49 94 147 179 166 53 12 0 0 5 15 29 31 23 6 0 0 0 0 0 0 0 0 0 0 0 0 0 0 0 0 0 0 0 0 0 0 0 0 0 0 0 0 0 0 0 0 0 0 0 0 0 0 0

GFSWCAN_con_mucape_045.txt.gz
CAPE
0 0 0 0 0 0 0 0 0 0 0 0 0 0 0 0 0 0 0 0 0 0 0 0 0 0 0 2 0 0 0 0 0 0 0 0 0 0 0 0 0 0 0 1 5 3 4 83 108 85 27 69 68 71
0 0 0 0 0 0 0 0 0 0 0 0 0 0 0 0 0 0 0 0 0 0 0 0 0 0 0 0 0 1 0 0 0 0 0 0 0 0 0 0 0 0 0 1 0 1 0 29 103 73 54 71 73 57
0 0 0 0 0 0 0 0 0 0 0 0 0 0 0 0 0 0 0 0 0 0 0 0 0 0 0 0 0 0 0 0 0 0 0 0 0 0 0 0 0 0 0 0 0 0 36 88 70 80 76 65 59 101
0 0 0 0 0 0 0 0 0 0 0 0 0 0 0 0 0 0 0 0 0 0 0 0 0 0 0 0 0 0 0 0 0 0 0 0 0 0 0 0 0 0 0 13 76 7 1 41 29 27 27 40 104 95
0 0 0 0 0 0 0 0 0 0 0 0 0 0 0 0 0 0 0 7 1 0 0 0 0 0 0 0 0 0 0 0 0 0 0 0 0 0 0 0 0 0 0 0 8 4 39 90 91 18 32 65 68 196
0 0 0 0 0 0 0 0 0 0 0 0 0 0 0 0 0 0 0 6 17 8 2 0 0 7 0 0 0 0 0 0 0 0 0 0 0 0 0 0 0 0 0 0 0 0 0 1 0 33 38 61 87 257
0 0 0 0 0 0 0 0 0 0 0 0 0 0 0 0 0 0 0 6 29 8 3 0 4 22 41 10 0 0 0 0 0 0 0 0 0 0 0 0 0 0 0 0 0 0 6 8 59 15 105 37 26 119
0 0 0 0 0 0 0 0 0 0 0 0 0 0 0 0 0 0 6 7 14 0 0 10 49 4 20 28 28 2 0 0 0 1 0 0 0 0 0 0 0 0 0 0 0 0 0 0 0 0 0 33 36 102
0 0 0 0 0 0 0 0 0 0 0 0 0 0 0 0 0 0 0 0 0 0 3 12 22 140 21 9 13 5 0 0 0 7 0 0 0 0 0 0 0 0 0 0 0 0 0 0 0 0 0 18 67 44
0 0 0 0 0 0 0 0 0 0 0 0 0 0 2 10 0 0 0 0 0 0 12 4 9 20 17 2 3 1 0 0 0 1 2 0 83 0 0 34 88 42 0 0 0 0 0 0 0 0 0 0 0 0
0 0 0 0 0 0 0 0 0 0 0 0 0 0 0 0 0 0 0 0 0 0 3 0 3 2 9 29 2 8 1 1 0 0 0 0 0 39 3 14 57 33 7 0 0 0 0 0 0 0 0 0 0 0
0 0 0 0 0 0 0 0 0 0 0 0 0 0 0 0 0 0 0 0 0 6 0 6 6 1 25 1 10 6 0 0 0 0 0 79 79 24 9 5 19 23 4 0 0 0 0 0 0 0 0 0 0 0
0 0 0 0 0 0 0 0 0 0 0 0 0 8 0 0 0 0 0 0 0 0 0 0 0 5 26 0 26 4 1 0 0 0 0 19 87 74 24 2 0 31 4 0 0 0 0 0 0 0 0 0 0 0
0 0 0 0 0 0 0 0 0 0 0 0 3 2 0 4 7 0 0 0 0 0 0 0 0 2 0 1 0 0 0 0 0 0 67 41 67 66 52 13 0 0 36 10 11 6 3 0 1 0 0 0 0 0
0 0 0 0 0 0 0 0 0 0 0 0 0 1 5 12 3 0 0 0 0 0 0 0 0 0 0 0 0 0 0 0 0 0 17 60 76 72 62 43 6 0 25 59 36 28 24 25 28 31 34 12 0 0
0 0 0 0 0 0 0 0 0 0 0 0 0 0 2 4 5 0 0 0 0 0 0 0 0 0 0 0 0 0 0 0 8 33 12 2 27 85 79 59 31 0 0 40 91 97 78 72 84 104 83 41 21 0
0 0 0 0 0 0 0 0 0 0 0 0 4 7 0 0 0 0 11 1 0 0 0 1 9 0 0 0 0 0 0 5 0 0 0 0 82 124 42 42 46 6 17 36 86 136 131 144 121 94 10 13 3 25
0 0 0 0 0 0 0 0 0 0 0 5 0 6 0 3 10 19 8 2 7 9 4 0 4 0 0 2 0 1 0 0 0 0 0 0 11 6 0 0 23 21 56 48 42 10 0 51 33 0 0 0 0 5
0 0 0 0 0 0 0 0 0 14 0 0 0 1 1 2 14 16 15 9 8 18 10 5 0 0 0 0 0 9 1 0 0 0 0 0 0 0 0 5 7 19 45 16 3 0 0 1 0 0 0 0 0 0
0 0 0 0 0 0 0 122 4 0 1 3 0 0 4 19 32 12 7 4 0 16 13 13 12 4 12 0 12 3 5 4 0 3 13 2 0 0 0 0 0 6 13 8 3 0 0 0 0 0 0 0 3 2
0 0 0 0 0 0 0 0 0 0 0 0 0 2 7 14 14 0 0 0 0 0 2 21 4 0 9 21 23 7 1 14 23 6 0 0 0 0 0 0 0 0 3 5 5 2 0 0 0 0 0 5 5 0
0 0 0 0 67 48 171 180 4 0 0 0 0 0 2 42 29 2 3 0 0 3 13 11 4 19 72 49 0 6 19 8 18 4 0 0 1 0 0 0 0 1 9 8 8 2 1 0 0 0 0 3 3 0
0 0 0 23 234 207 1 0 0 0 91 5 0 0 10 41 1 0 17 7 22 3 14 10 1 0 1 0 0 11 33 33 24 3 0 1 0 1 0 0 0 1 6 0 2 4 6 7 1 5 4 5 17 21
0 0 23 211 254 82 0 0 0 6 8 0 0 0 11 24 0 0 0 23 23 0 12 35 20 20 20 25 54 66 26 18 5 0 2 9 0 1 0 0 0 0 0 0 0 3 27 36 6 13 20 11 3 4
0 0 0 0 0 0 0 29 4 0 0 2 0 5 29 2 4 0 1 12 9 91 206 147 39 17 23 21 2 6 12 7 9 6 0 0 0 4 1 0 0 0 0 3 0 1 28 51 40 0 0 0 3 6
0 0 0 0 0 0 4 26 27 12 14 33 10 11 10 3 0 11 18 24 27 139 220 171 67 30 21 20 19 0 1 1 13 28 2 2 1 2 12 2 1 0 0 1 26 57 79 60 50 43 12 0 0 13
0 0 0 0 0 4 56 40 23 18 45 68 23 6 43 38 18 33 11 0 13 46 32 29 36 27 10 1 0 0 0 0 7 8 18 10 1 0 6 2 1 0 0 0 16 77 63 57 49 36 27 33 30 34
0 0 44 0 2 19 179 43 31 79 45 90 14 10 7 42 28 1 1 0 0 4 2 2 0 0 0 0 0 0 0 0 0 3 4 14 23 4 2 4 3 0 0 0 2 45 49 48 57 47 34 39 33 25
3 157 80 172 22 17 141 203 214 187 84 63 24 21 22 5 0 0 0 0 0 0 0 0 0 0 0 0 0 0 0 0 0 0 0 13 25 1 33 26 11 0 0 6 0 6 37 46 51 36 37 38 30 37
0 3 157 35 36 135 227 208 184 136 82 51 22 15 4 0 0 0 0 0 0 0 0 0 0 0 0 0 0 0 0 0 0 0 0 0 17 18 36 47 30 31 18 8 12 4 4 13 10 18 12 16 22 25
18 59 58 63 216 137 144 161 113 130 128 66 25 22 13 1 0 0 0 0 0 0 0 0 0 0 0 0 0 0 0 0 0 0 0 0 0 3 20 32 43 45 21 13 28 29 27 31 30 17 10 0 3 4
58 83 190 243 188 196 179 119 85 89 109 61 38 32 13 4 0 1 0 0 0 0 0 0 0 0 0 0 0 0 0 0 0 0 0 0 0 0 5 8 6 6 13 18 14 16 22 22 25 24 0 0 0 0
194 33 51 59 122 127 74 25 28 14 9 34 27 35 20 1 0 0 0 0 0 0 0 0 0 0 0 0 0 0 0 0 0 0 0 0 0 0 0 0 0 0 0 5 11 14 12 0 0 0 0 0 0 0

GFSWCAN_con_mucape_048.txt.gz
CAPE
0 0 0 0 0 0 0 0 0 0 0 0 0 0 0 0 0 0 0 0 0 0 0 0 0 0 0 0 0 0 0 0 0 0 0 0 0 0 0 0 0 0 0 0 0 0 0 0 4 15 64 19 89 79
0 0 0 0 0 0 0 0 0 0 0 0 0 0 0 0 0 0 0 0 0 0 0 3 3 0 0 0 0 0 0 0 0 0 0 0 0 0 0 0 0 0 0 1 0 0 0 0 1 0 78 153 144 126
0 0 0 0 0 0 0 0 0 0 0 0 0 0 0 0 0 0 0 0 0 0 3 0 0 2 9 0 31 54 36 51 0 0 0 0 0 0 0 0 0 0 0 0 0 0 0 0 0 0 36 167 184 183
0 0 0 0 0 0 0 0 0 0 0 0 0 0 0 0 0 0 0 0 0 0 9 0 0 0 0 0 0 9 16 4 0 0 0 0 0 0 0 0 0 0 0 0 0 0 0 0 0 0 54 167 266 199
0 0 0 0 0 0 0 0 0 0 0 0 0 0 0 0 0 0 0 0 5 7 13 0 0 0 0 0 0 0 5 21 39 13 0 0 0 0 0 0 0 0 0 0 0 0 0 0 0 0 19 63 246 247
0 0 0 0 0 0 0 0 0 0 0 0 0 0 0 0 0 0 0 0 10 14 0 22 4 6 7 4 0 0 0 0 6 14 0 0 0 0 0 0 0 0 0 0 0 0 0 0 0 0 137 99 117 268
0 0 0 0 0 0 0 0 0 0 0 0 0 0 0 0 0 0 0 4 4 16 0 158 197 4 1 2 1 0 5 0 0 7 26 13 0 0 0 0 0 0 0 0 0 0 0 0 0 0 0 0 0 3
0 0 0 0 0 0 0 0 0 0 0 0 0 0 0 0 0 12 2 0 0 0 0 108 288 206 8 2 3 4 43 26 1 6 14 14 32 40 0 0 81 6 0 0 0 0 0 0 0 0 0 21 115 81
0 0 0 0 0 0 0 0 0 0 0 0 0 0 0 0 0 0 0 0 0 0 6 4 199 324 0 17 0 1 15 57 3 33 30 39 4 19 70 49 85 74 0 0 0 0 0 0 0 0 0 0 13 9
0 0 0 0 0 0 0 0 0 0 0 0 0 0 13 0 0 0 0 0 0 0 0 0 1 146 16 3 25 7 0 0 0 13 23 0 0 46 1 31 70 68 35 22 0 0 0 0 0 0 0 0 0 0
0 0 0 0 0 0 0 0 0 0 0 0 0 13 0 0 0 0 2 15 50 181 60 4 3 194 33 46 18 2 2 5 0 0 17 21 18 59 37 26 63 69 43 12 9 7 0 0 0 0 0 0 0 0
0 0 0 0 0 0 0 0 0 0 0 0 0 0 0 0 35 12 2 0 13 12 16 18 80 5 21 11 23 9 24 10 0 1 5 70 70 43 33 15 22 82 61 38 31 22 32 21 0 0 0 0 0 0
0 0 0 0 0 0 0 0 0 0 0 0 0 39 3 6 21 7 82 22 25 6 1 0 4 57 4 1 18 30 38 40 5 4 0 56 49 9 14 15 10 33 79 64 51 39 38 44 49 47 0 0 0 0
0 0 0 0 0 0 0 0 0 0 0 3 160 9 5 14 31 39 46 29 0 0 0 0 125 120 92 163 90 54 38 19 0 0 7 35 64 25 5 1 2 8 31 55 59 64 51 46 45 47 50 50 0 0
0 0 0 0 0 0 0 0 0 0 0 11 34 2 9 22 27 21 12 1 0 0 1 9 9 111 50 33 1 0 0 0 0 70 50 81 109 94 37 33 0 3 8 46 58 58 50 49 54 46 49 44 50 9
0 0 0 0 0 0 0 0 0 0 0 17 58 50 35 37 87 70 83 101 12 8 7 1 4 0 0 0 0 0 0 0 49 101 82 28 118 90 85 89 64 16 18 31 51 52 45 48 33 43 24 21 34 50
0 0 0 0 0 0 0 0 0 0 54 66 21 19 91 121 140 141 122 99 5 12 43 25 10 11 1 0 0 0 0 57 67 47 13 104 58 65 47 59 86 37 49 52 49 43 42 47 36 21 22 23 25 47
0 0 0 0 0 0 0 0 80 221 179 28 26 34 89 113 88 50 61 18 20 20 6 12 19 11 0 0 0 58 110 75 12 0 36 96 103 144 73 59 123 97 80 67 55 31 22 34 22 14 20 15 23 26
0 0 0 0 0 0 0 80 203 139 12 0 60 129 108 112 81 135 89 17 1 1 0 9 8 0 0 65 129 111 151 36 37 50 37 69 91 75 27 48 103 110 97 103 78 51 54 15 8 16 17 14 24 19
0 0 0 0 0 0 50 477 305 399 164 249 109 218 181 320 205 44 49 76 5 0 81 33 3 51 320 260 244 327 124 55 51 45 37 40 0 0 1 5 24 89 132 110 58 2 55 36 32 28 6 2 28 30
0 0 0 0 0 0 153 107 140 148 58 65 171 298 405 384 233 163 112 63 29 52 126 134 173 220 280 235 329 436 175 52 62 117 72 20 0 0 0 0 0 18 70 72 54 31 9 37 45 45 46 44 41 45
0 0 0 0 242 550 723 811 604 448 230 285 343 285 339 403 328 207 151 87 144 139 77 118 137 160 148 220 196 217 108 149 185 22 0 0 0 0 5 39 52 52 63 74 82 60 47 62 59 57 62 46 26 26
0 0 111 252 619 392 197 9 143 189 357 465 316 238 365 430 297 137 102 104 139 74 72 87 206 338 308 199 256 228 179 190 101 14 9 3 0 0 10 12 32 53 45 60 44 72 65 17 21 45 59 38 25 27
0 63 229 451 640 348 304 293 283 458 459 307 203 162 236 326 223 80 57 100 123 110 170 198 254 101 88 141 95 153 177 88 16 9 0 10 22 0 6 5 6 1 2 32 40 49 54 74 13 48 44 33 34 36
0 0 0 0 18 173 112 230 395 337 292 343 221 222 406 278 264 75 56 93 87 101 147 185 230 103 71 104 75 71 44 39 4 52 48 30 23 15 14 8 61 3 0 12 46 49 92 84 75 109 66 27 26 31
0 0 0 0 69 268 211 228 294 352 374 364 295 356 291 279 137 70 76 59 91 210 278 225 164 56 77 17 26 14 21 19 8 62 4 10 28 31 63 58 37 61 38 77 120 113 116 107 93 58 53 5 0 26
0 2 128 25 87 220 432 566 455 390 432 352 350 273 213 48 43 95 55 56 111 208 110 9 2 3 0 0 0 0 0 0 3 13 7 50 60 58 46 55 29 34 37 67 131 138 138 120 100 39 42 38 26 41
0 72 34 206 102 257 403 524 498 483 441 436 301 241 8 28 69 39 25 18 18 0 0 0 0 0 0 0 0 0 0 0 0 0 8 22 9 10 22 27 11 0 2 27 95 76 104 94 71 57 45 62 38 34
37 230 198 343 361 357 581 598 526 512 488 427 302 197 186 52 0 0 0 0 0 0 0 0 0 0 0 0 0 0 0 2 16 22 39 44 33 28 39 31 21 48 74 20 0 17 61 47 50 38 48 31 25 33
3 138 330 292 329 377 568 635 706 635 345 315 216 97 16 16 0 0 0 0 0 0 0 0 0 0 0 0 0 0 0 0 0 2 4 4 28 33 28 49 56 57 52 45 31 22 0 17 14 27 27 44 39 35
140 183 193 259 361 524 553 499 279 240 245 226 107 188 26 12 0 0 0 0 0 0 0 0 0 0 0 0 0 0 0 0 0 0 0 3 18 30 37 40 40 36 38 36 24 19 21 26 27 32 30 27 21 27
353 301 405 547 641 557 242 376 335 335 302 264 254 87 18 10 8 4 4 0 0 0 0 0 0 0 0 0 0 0 0 0 0 0 1 5 13 19 15 18 26 32 33 27 25 25 23 17 18 19 0 0 1 0
619 597 607 487 471 397 183 178 68 89 20 14 90 146 100 54 3 1 4 0 0 0 0 0 0 0 0 0 0 0 0 0 0 0 0 0 0 0 2 7 9 13 14 19 20 20 18 20 4 4 12 13 0 0

GFSWCAN_con_mucape_051.txt.gz
CAPE
0 0 0 0 0 0 0 0 0 0 0 0 0 0 0 0 0 0 1 10 0 14 2 3 1 0 11 20 21 17 29 28 0 0 0 0 0 0 0 0 50 0 72 142 52 58 65 47 47 26 33 0 11 97
0 0 0 0 0 0 0 0 0 0 0 0 0 0 0 0 0 0 0 0 8 0 1 0 0 0 1 5 30 7 43 12 0 0 0 0 0 0 0 0 0 0 104 0 99 6 79 12 0 1 0 0 41 42
0 0 0 0 0 0 0 0 0 0 0 0 0 0 0 0 0 0 0 0 0 2 4 35 0 0 1 4 7 33 52 45 9 29 0 0 0 0 0 0 0 0 0 0 0 0 0 0 0 0 0 0 0 61
0 0 0 0 0 0 0 0 0 0 0 0 0 0 0 0 0 0 0 0 0 17 38 19 0 12 0 6 5 13 22 31 53 72 0 0 0 0 0 0 0 0 0 0 0 0 0 0 0 0 0 0 0 42
0 0 0 0 0 0 0 0 0 0 0 0 0 0 0 0 0 0 0 0 10 11 176 143 23 20 7 15 27 47 22 16 88 93 84 0 0 0 0 0 0 0 0 0 0 0 0 0 0 0 0 5 3 43
0 0 0 0 0 0 0 0 0 0 0 0 0 0 0 0 0 0 20 2 0 0 16 264 185 59 12 10 4 60 5 25 33 44 36 59 58 45 0 0 0 0 0 0 0 0 0 0 0 0 0 0 0 1
0 0 0 0 0 0 0 0 0 0 0 0 0 0 0 0 0 0 7 0 0 0 8 83 511 419 26 19 45 1 21 51 49 55 47 29 40 71 67 0 62 35 0 0 0 0 0 0 0 0 0 0 0 0
0 0 0 0 0 0 0 0 0 0 0 0 0 0 0 0 0 0 0 0 0 0 20 180 342 454 184 261 106 1 47 39 39 58 47 37 38 45 54 46 57 43 40 0 0 0 0 0 0 0 0 0 0 0
0 0 0 0 0 0 0 0 0 0 0 0 0 0 0 0 0 1 0 0 0 0 72 226 632 289 224 147 72 37 19 100 28 37 36 22 46 54 66 33 60 24 43 43 0 0 0 0 0 0 0 0 0 0
0 0 0 0 0 0 0 0 0 0 0 0 0 4 15 0 0 0 0 0 0 6 9 323 301 492 198 238 107 52 41 38 44 45 25 45 3 51 31 45 88 53 32 35 40 0 0 0 0 0 0 0 0 0
0 0 0 0 0 0 0 0 0 0 0 0 58 165 10 0 1 3 269 316 256 234 398 388 206 421 199 360 65 54 35 16 6 82 38 78 44 66 30 39 45 37 28 35 42 39 36 35 0 0 0 0 0 0
0 0 0 0 0 0 0 0 0 0 0 3 0 0 2 4 192 214 84 51 106 122 76 74 81 273 389 281 141 93 31 55 55 27 42 13 108 47 25 29 32 31 35 24 23 20 22 23 20 42 0 0 0 0
0 0 0 0 0 0 0 0 0 0 0 0 14 172 355 143 106 46 237 238 54 53 34 56 44 471 171 125 74 176 87 127 42 28 112 67 84 73 41 22 26 30 31 40 40 24 30 31 2 29 19 45 0 0
0 0 0 0 0 0 0 0 0 0 0 201 314 269 103 87 83 83 87 80 77 3 19 62 101 583 468 385 302 212 104 35 61 139 82 136 218 68 67 36 40 37 36 37 52 50 33 55 28 30 29 0 16 14
0 0 0 0 0 0 0 0 0 0 0 209 151 100 71 76 91 136 100 186 162 216 145 94 70 188 310 104 85 2 45 80 69 68 116 147 168 118 89 42 38 38 42 51 29 14 42 29 18 22 36 32 0 15
0 0 0 0 0 0 0 0 0 0 73 137 148 100 102 86 166 184 347 179 251 204 144 51 162 47 1 1 1 0 0 10 125 223 119 277 239 139 61 84 52 65 48 59 72 70 47 57 37 36 38 36 31 22
0 0 0 0 0 0 0 0 30 84 201 190 165 82 69 360 177 298 339 482 306 245 184 150 83 32 22 0 1 1 30 167 151 79 121 256 141 125 65 58 63 76 67 59 65 51 48 56 44 35 33 37 34 50
0 0 0 0 0 0 0 0 236 195 269 338 211 174 204 209 305 361 504 202 154 132 141 151 48 132 117 91 99 143 225 248 180 92 107 174 150 128 107 61 45 71 71 80 48 60 45 58 48 27 27 29 26 28
0 0 0 0 0 0 31 336 277 194 304 242 199 167 327 833 880 570 203 116 49 48 174 145 116 151 164 165 224 256 260 150 71 86 78 124 89 72 44 39 42 56 71 118 99 52 52 30 36 34 32 29 32 28
0 0 0 0 0 59 8 235 614 436 468 511 328 351 439 674 585 365 296 122 148 99 195 183 169 285 250 399 399 265 253 252 93 149 175 48 52 20 51 16 52 91 119 102 75 2 76 63 55 45 29 31 42 41
0 0 0 0 0 42 171 186 396 415 346 310 383 497 460 474 315 273 122 136 255 101 123 157 187 267 210 361 188 171 185 238 173 178 237 74 28 41 41 40 54 44 67 107 105 72 8 55 64 46 32 35 50 61
25 0 145 11 328 533 529 481 642 740 568 517 504 533 490 359 369 249 183 90 99 102 101 108 172 213 160 144 117 219 288 246 289 139 23 7 30 54 65 78 92 97 170 169 181 105 126 79 53 63 67 60 31 15
0 0 320 328 468 534 239 439 402 509 513 519 542 336 372 338 349 343 126 83 121 72 85 137 205 338 482 236 408 147 188 186 182 84 42 54 27 28 50 74 77 60 169 152 66 112 127 0 19 64 89 89 69 78
0 172 183 319 578 453 486 525 538 582 679 551 366 339 402 400 379 142 84 97 73 84 102 151 159 223 173 243 61 66 91 63 68 44 51 44 39 11 48 96 88 101 89 102 90 80 135 145 7 101 93 93 82 84
3 0 3 0 280 442 327 341 454 545 577 500 423 328 355 453 328 118 50 55 73 82 90 84 71 70 65 81 47 45 25 21 55 75 103 45 7 19 121 42 121 59 69 157 217 178 66 125 179 148 106 93 107 78
0 0 0 1 35 194 284 198 312 398 462 449 452 580 517 350 186 133 70 133 152 112 95 31 21 28 8 1 0 0 0 6 37 41 20 42 43 99 152 148 84 79 84 100 260 151 151 96 166 130 59 20 5 44
0 1 104 100 355 373 384 476 515 485 470 460 429 519 334 144 141 140 128 59 51 10 0 0 0 0 0 0 0 0 0 6 12 34 33 45 48 58 83 33 77 83 74 141 183 204 151 138 155 119 60 85 78 82
0 39 73 262 209 302 400 515 493 498 451 443 475 411 269 217 229 75 25 7 0 0 0 0 0 0 0 0 0 0 2 5 14 20 18 27 37 33 41 36 19 0 8 46 68 127 161 120 51 98 116 72 79 56
9 48 141 381 423 426 497 522 417 641 595 488 499 455 445 221 42 7 2 0 0 0 0 0 0 0 0 0 0 0 0 0 17 43 43 19 23 29 41 41 52 55 30 4 0 2 16 35 53 62 55 65 49 55
2 58 284 282 281 287 409 563 579 845 903 722 654 414 186 44 13 6 8 0 0 0 0 0 0 0 0 0 0 0 0 0 0 11 37 15 14 17 28 28 26 29 29 23 24 16 1 17 23 52 49 31 39 30
98 178 193 200 161 263 739 841 768 700 674 665 512 546 196 74 23 8 4 2 2 0 0 0 0 0 0 0 0 0 0 0 0 0 0 5 11 21 19 20 28 38 26 24 31 36 37 35 42 50 44 39 33 17
352 390 404 393 319 324 596 586 678 687 656 432 346 150 22 49 44 1 0 1 2 0 0 0 0 0 0 0 0 0 0 0 0 0 0 4 11 10 16 23 24 24 20 28 33 23 27 29 32 16 27 25 13 20
386 419 447 424 326 686 644 505 399 446 249 218 138 60 208 122 82 22 0 0 1 0 0 0 0 0 0 0 0 0 0 0 0 0 0 0 0 0 2 15 14 18 21 22 21 19 21 23 15 15 6 0 0 0

GFSWCAN_con_mucape_054.txt.gz
CAPE
0 0 0 0 0 0 0 0 0 0 0 0 0 0 0 0 0 0 1 0 3 58 2 1 0 0 3 11 26 18 31 39 0 0 0 0 0 0 0 0 0 0 201 112 115 105 38 96 69 75 46 1 0 0
0 0 0 0 0 0 0 0 0 0 0 0 0 0 0 0 0 0 6 0 0 0 2 1 3 0 0 0 4 23 48 42 24 0 0 0 0 0 0 0 0 0 0 0 9 16 6 8 20 7 4 2 0 0
1 0 0 0 0 0 0 0 0 0 0 0 0 0 0 0 0 0 1 1 1 24 143 59 22 2 2 7 0 17 27 43 26 59 0 0 0 0 0 0 0 0 0 0 0 0 0 0 0 0 0 0 0 0
0 0 0 0 0 0 0 0 0 0 0 0 0 0 0 0 0 0 1 9 20 25 79 203 2 4 1 5 11 2 12 28 96 66 60 9 0 0 0 0 0 0 0 0 0 0 0 0 0 0 0 0 2 0
0 0 0 0 0 0 0 0 0 0 0 0 0 0 0 0 0 0 0 6 6 9 150 85 22 2 12 8 6 25 20 62 145 160 102 85 16 5 0 0 0 0 0 0 0 0 0 0 0 0 0 0 0 1
0 0 0 0 0 0 0 0 0 0 0 0 0 0 0 0 0 0 1 6 3 4 18 123 181 150 69 45 23 21 33 38 24 56 52 19 32 39 88 54 22 40 28 0 0 0 0 0 0 0 0 0 0 0
0 0 0 0 0 0 0 0 0 0 0 0 0 0 0 0 0 1 8 1 0 0 13 27 361 515 274 208 35 96 47 32 60 39 79 32 34 29 67 89 68 10 21 11 0 0 0 0 0 0 0 0 0 0
0 0 0 0 0 0 0 0 0 0 0 0 0 0 0 0 0 1 0 0 0 5 11 105 176 578 465 458 446 135 29 95 51 62 30 8 30 29 53 47 49 47 18 1 9 3 0 0 0 0 0 0 0 0
0 0 0 0 0 0 0 0 0 0 0 0 0 0 0 0 7 7 0 0 0 7 66 140 384 160 461 229 252 32 23 93 235 61 73 32 94 39 33 38 48 14 24 45 22 27 9 0 0 0 0 0 0 0
0 0 0 0 0 0 0 0 0 0 0 0 0 0 20 3 0 0 0 7 2 6 7 193 421 463 322 408 325 228 66 52 196 86 98 205 0 103 28 17 39 23 23 10 24 0 6 17 11 0 0 0 0 0
0 0 0 0 0 0 0 0 0 0 0 0 50 195 58 0 1 3 107 364 509 352 297 377 568 588 295 393 479 220 152 82 10 169 361 215 91 131 36 17 20 17 20 6 14 3 7 11 24 15 4 0 0 0
0 0 0 0 0 0 0 0 0 0 0 0 0 0 11 13 196 301 463 125 66 210 139 150 249 286 506 446 291 160 73 201 102 171 228 74 171 30 55 29 109 27 36 31 12 15 31 13 36 48 24 11 0 0
0 0 0 0 0 0 0 0 0 0 0 0 41 201 281 279 44 85 7 39 255 138 35 33 195 878 510 229 103 187 84 51 244 29 567 68 296 83 88 62 53 55 31 74 96 41 51 37 48 30 37 58 23 4
0 0 0 0 0 0 0 0 0 0 0 278 325 64 163 137 203 126 114 196 251 229 288 70 82 424 744 19 65 52 75 198 60 42 49 412 332 152 252 82 69 84 147 87 90 85 90 47 39 74 41 29 15 24
0 0 0 0 0 0 0 0 0 0 0 202 293 9 107 152 199 212 235 352 455 323 264 302 243 465 65 42 13 10 4 27 115 203 255 428 366 205 149 69 58 75 67 89 90 49 76 59 53 52 69 34 28 20
0 0 0 0 0 0 0 0 0 0 187 81 66 118 367 450 262 339 295 400 322 271 287 268 261 189 40 16 10 6 13 13 212 363 164 220 184 92 215 29 44 63 42 76 98 97 46 75 54 56 32 44 31 53
0 0 0 0 0 0 0 0 62 173 150 208 239 399 213 429 405 434 393 325 121 82 151 124 122 140 181 47 16 20 71 274 195 124 149 385 215 182 68 58 46 37 78 77 52 67 83 76 59 26 61 67 80 93
0 0 0 0 0 0 0 0 189 188 237 323 399 595 434 466 396 262 188 164 62 34 103 92 213 162 85 76 141 266 283 169 119 329 226 324 274 162 85 69 52 54 64 126 90 78 61 49 33 26 108 106 66 132
0 0 0 0 0 0 164 217 116 130 295 529 561 528 427 816 403 485 244 165 193 113 148 138 78 117 129 171 243 283 251 222 154 313 203 189 347 189 55 76 61 57 126 174 107 92 39 56 62 41 20 37 34 29
0 0 0 0 0 18 59 110 619 311 521 688 620 478 468 753 686 197 132 104 113 92 104 92 105 186 281 340 221 136 174 171 196 186 147 191 153 79 47 129 72 84 51 50 54 2 60 79 29 20 5 23 50 23
0 0 0 0 0 0 161 200 502 562 448 236 398 356 598 756 313 121 101 30 32 43 67 89 79 64 135 283 127 42 131 175 72 132 205 220 63 59 77 38 101 143 114 189 235 168 104 110 41 35 32 29 47 62
99 8 70 13 141 290 245 91 294 529 483 502 67 473 92 347 157 80 132 51 35 33 42 25 57 65 256 262 150 273 354 244 196 150 37 2 15 36 20 40 96 107 73 76 102 12 15 66 7 91 64 75 55 18
0 0 223 272 234 222 106 293 433 440 642 393 606 311 555 210 315 354 32 93 41 38 47 48 30 176 208 258 148 184 97 181 92 78 46 26 49 55 62 28 56 71 99 95 69 105 43 9 0 80 133 74 70 53
0 13 225 129 308 177 419 327 323 345 362 534 505 178 234 339 280 136 52 54 8 46 209 118 110 101 175 254 147 107 38 17 54 37 83 67 60 22 14 35 75 56 63 173 172 68 53 106 3 118 127 86 47 82
0 0 0 0 242 581 227 390 387 611 293 386 489 254 254 297 255 115 105 26 73 127 39 0 25 26 46 13 0 1 5 0 32 8 26 25 47 79 51 73 86 57 65 165 153 212 44 11 38 158 54 19 69 110
0 0 0 0 1 72 175 234 267 194 256 430 261 467 268 367 179 84 99 61 141 41 0 0 0 0 0 0 0 0 0 5 13 4 15 21 46 68 89 99 63 20 109 138 149 3 89 128 71 86 95 50 21 67
0 0 42 0 83 387 256 236 281 390 536 345 422 483 487 192 119 90 23 31 146 0 0 0 0 0 0 0 0 0 0 2 1 3 6 10 21 34 46 32 4 7 99 92 109 74 33 54 93 108 112 48 41 72
0 4 76 202 119 117 151 262 220 344 120 5 49 246 175 31 146 31 20 1 0 0 0 0 0 0 0 0 0 0 1 0 5 5 4 6 7 10 12 0 0 0 0 9 81 46 94 111 83 52 55 48 56 54
0 7 16 94 284 187 172 315 226 32 2 5 70 328 127 140 5 0 0 0 0 0 0 0 0 0 0 0 0 0 0 0 18 13 7 9 11 5 10 23 34 24 8 0 0 0 0 8 36 38 55 43 44 42
0 0 58 101 120 165 244 167 138 45 69 347 356 95 41 22 12 0 2 0 0 0 0 0 0 0 0 0 0 0 0 0 0 5 5 3 3 4 9 21 22 16 17 15 7 7 2 9 21 41 44 35 45 30
6 65 60 100 185 201 195 16 154 502 605 549 414 123 17 4 0 1 0 0 3 0 0 0 0 0 0 0 0 0 0 0 0 0 0 1 3 5 6 9 21 24 22 22 31 34 33 29 41 53 36 42 26 25
56 97 154 207 457 667 335 84 135 582 779 647 444 143 0 0 0 0 0 0 10 0 0 0 0 0 0 0 0 0 0 0 0 0 0 0 1 4 11 12 15 14 16 23 19 33 32 23 22 24 22 3 15 14
234 210 111 95 228 95 151 99 509 632 376 342 219 109 147 151 26 1 0 0 0 0 0 0 0 0 0 0 0 0 0 0 0 0 0 0 0 0 1 9 9 10 12 10 11 11 14 15 6 1 14 17 19 14

GFSWCAN_con_mucape_057.txt.gz
CAPE
4 0 0 0 0 0 0 0 0 0 0 0 0 0 0 0 0 0 0 0 0 0 0 0 0 0 3 2 11 3 15 0 0 0 0 0 0 0 0 0 0 0 0 0 0 0 0 0 0 8 0 0 0 0
4 0 0 0 0 0 0 0 0 0 0 0 0 0 0 0 0 0 1 0 0 0 0 0 0 0 0 0 0 2 5 1 0 0 0 0 0 0 0 0 0 0 0 0 0 0 0 0 0 0 0 0 0 0
4 0 0 0 0 0 0 0 0 0 0 0 0 0 0 0 0 0 0 0 0 0 3 65 28 3 0 0 0 6 10 8 3 8 0 4 0 0 0 0 0 0 0 0 0 0 0 0 0 0 0 0 0 0
0 0 0 0 0 0 0 0 0 0 0 0 0 0 0 0 0 0 0 0 8 1 9 149 38 10 0 0 0 9 4 20 8 0 0 0 0 0 0 0 0 0 0 0 0 0 0 0 0 0 0 0 0 0
0 0 0 0 0 0 0 0 0 0 0 0 0 0 0 0 0 0 0 0 10 10 1 0 0 10 2 10 13 4 0 20 20 19 4 7 0 0 0 0 0 1 0 0 0 0 0 0 0 0 0 0 0 0
0 0 0 0 0 0 0 0 0 0 0 0 0 0 0 0 0 0 0 10 1 8 7 1 10 6 2 2 17 25 10 22 18 31 33 15 5 0 3 0 0 0 0 2 0 0 0 0 0 0 0 0 0 0
0 0 0 0 0 0 0 0 0 0 0 0 0 0 0 0 0 0 1 0 0 1 17 12 29 67 15 7 43 36 17 29 35 32 18 6 0 0 9 0 0 0 0 0 0 2 0 0 0 0 0 0 0 0
0 0 0 0 0 0 0 0 0 0 0 0 0 0 0 0 0 0 0 0 0 6 10 15 8 385 64 346 316 43 0 3 44 17 12 1 9 0 2 0 4 0 0 0 0 0 0 0 12 0 0 0 0 0
0 0 0 0 0 0 0 0 0 0 0 0 0 0 0 0 0 0 0 0 4 5 2 96 139 153 289 291 234 5 1 13 95 71 31 60 4 0 0 0 11 6 0 0 0 0 8 14 1 10 0 0 0 0
0 0 0 0 0 0 0 0 0 0 0 0 0 0 0 2 0 0 0 0 0 0 0 33 225 130 206 109 165 157 34 26 78 65 59 2 0 0 15 0 20 8 9 0 0 0 0 0 9 3 0 0 0 0
0 0 0 0 0 0 0 0 0 0 0 0 2 85 33 3 0 0 13 19 22 46 6 11 4 42 96 66 162 18 42 18 8 41 53 6 0 42 30 20 41 19 7 4 0 0 1 2 8 0 3 1 0 0
0 0 0 0 0 0 0 0 0 0 0 0 0 0 0 9 52 156 273 90 93 20 2 21 153 102 186 231 24 0 44 47 0 83 14 0 14 25 27 56 9 28 66 20 0 3 26 48 0 15 12 1 5 6
0 0 0 0 0 0 0 0 0 0 0 0 0 7 293 248 145 98 12 8 2 458 330 231 137 766 526 86 0 17 47 0 13 0 0 42 130 120 83 111 43 9 46 68 39 42 35 34 16 2 9 9 0 0
0 0 0 0 0 0 0 0 0 0 0 1 322 180 265 314 131 245 132 232 195 206 208 263 456 461 154 52 44 0 0 62 88 39 35 96 44 143 152 167 175 59 46 72 87 67 65 13 28 16 13 5 0 10
0 0 0 0 0 0 0 0 0 0 0 142 302 34 139 231 443 346 305 441 292 296 290 218 224 244 55 11 0 0 1 43 116 153 122 109 171 166 220 102 97 46 37 69 58 14 34 35 48 47 45 29 6 14
0 0 0 0 0 0 0 0 0 0 29 136 121 97 156 219 80 76 40 136 236 393 669 439 160 73 3 0 6 14 17 34 74 175 197 181 89 170 216 229 152 180 52 16 46 83 92 7 3 68 64 35 39 13
0 0 0 0 0 0 0 0 0 0 95 85 217 196 327 404 100 199 42 131 327 91 209 147 86 79 98 48 16 28 87 95 78 162 153 156 249 185 114 225 243 149 243 47 24 186 129 123 18 1 36 41 70 9
0 0 0 0 0 0 0 0 33 144 138 280 270 467 479 198 296 521 222 326 551 332 187 57 142 102 77 40 100 128 186 72 115 207 25 68 177 243 160 266 223 215 213 312 250 120 98 143 159 0 90 51 26 19
0 0 0 0 0 0 41 107 27 0 96 294 499 549 570 286 129 384 441 829 390 380 253 230 66 95 127 108 132 171 331 218 173 236 46 81 225 188 145 95 68 122 324 72 99 3 0 113 60 24 17 29 22 18
0 0 0 0 0 0 22 203 694 724 282 679 745 701 654 886 988 408 501 332 473 274 106 88 74 159 134 149 186 105 191 344 113 149 86 30 15 1 56 61 74 21 124 247 139 0 9 1 14 3 18 8 8 28
0 0 0 0 0 0 1 222 782 801 689 887 181 57 84 462 384 332 81 458 38 91 110 106 104 220 339 391 341 441 445 282 161 79 91 46 53 8 4 20 17 0 0 0 29 8 4 0 4 29 20 47 0 6
49 50 0 0 0 196 223 314 78 856 415 521 347 160 209 113 422 179 344 356 129 121 176 135 200 220 269 267 259 319 306 423 158 110 8 22 16 25 24 17 61 64 38 82 31 0 0 1 1 1 23 11 11 1
0 0 5 154 222 62 44 592 395 146 347 552 568 231 541 248 488 418 260 153 361 389 424 268 328 244 186 183 300 283 195 357 118 83 42 20 12 10 19 13 5 47 65 31 114 54 84 2 22 21 88 71 17 0
0 0 99 77 119 19 218 453 429 393 542 167 368 506 396 755 287 376 74 130 87 77 75 306 436 242 286 537 206 184 86 35 13 10 13 9 22 11 31 30 18 4 87 52 39 32 58 80 54 39 21 18 1 6
4 0 16 0 41 244 253 314 601 453 211 174 156 189 16 59 236 287 112 119 97 28 10 16 3 0 0 0 0 0 0 0 0 0 15 37 25 13 23 7 15 60 65 88 144 21 54 177 159 82 3 30 31 57
0 0 0 0 1 0 32 153 432 379 118 28 160 38 35 31 104 118 193 87 144 8 0 0 0 0 0 0 0 0 0 0 0 0 1 3 18 25 16 7 31 52 30 46 47 69 104 46 31 39 22 18 9 51
0 0 11 156 90 35 195 273 286 249 86 32 4 0 6 0 4 82 19 64 104 0 0 0 0 0 0 0 0 0 0 0 1 0 0 0 1 1 0 0 0 23 43 40 20 53 97 95 70 69 46 35 50 35
0 0 10 132 236 112 131 182 442 61 21 2 2 54 80 28 16 65 35 45 1 0 0 0 0 0 0 0 0 0 0 0 1 0 0 0 0 0 0 0 0 0 2 1 11 35 67 43 42 41 40 31 42 38
0 0 7 24 122 227 385 372 60 23 1 0 27 195 241 230 2 7 0 0 0 0 0 0 0 0 0 0 0 0 0 4 13 0 0 0 0 0 6 3 0 0 0 0 0 0 0 0 16 32 50 40 32 8
0 0 0 0 108 303 454 424 210 27 25 14 3 4 4 21 32 9 0 6 30 11 0 0 0 0 0 0 0 0 0 0 0 0 0 0 0 0 9 13 9 5 2 4 0 0 10 12 25 29 21 13 22 30
0 4 12 79 304 275 139 179 202 110 211 84 3 54 29 1 0 0 1 67 3 1 0 0 0 0 0 0 0 0 0 0 0 0 0 0 0 1 7 14 5 8 20 25 30 16 10 22 20 24 27 11 11 10
5 88 104 433 324 458 167 36 140 347 182 42 131 7 0 4 0 0 0 2 0 0 0 0 0 0 0 0 0 0 0 0 0 0 0 0 0 2 12 7 2 2 16 12 17 15 16 6 2 0 0 0 18 20
337 418 518 468 270 86 24 5 12 121 129 211 265 103 47 23 3 13 8 0 1 0 0 0 0 0 0 0 0 0 0 0 0 0 0 0 0 0 0 0 2 6 5 10 2 2 3 3 0 0 0 0 0 0

GFSWCAN_con_mucape_060.txt.gz
CAPE
0 0 0 0 0 0 0 0 0 0 0 0 0 0 0 0 0 0 0 0 0 0 0 0 0 0 0 0 0 0 0 0 0 0 0 0 0 0 0 0 0 0 0 0 0 0 0 0 0 0 0 0 0 0
0 0 0 0 0 0 0 0 0 0 0 0 0 0 0 0 0 0 0 0 0 0 0 0 0 0 0 0 0 0 0 0 0 0 0 0 0 0 0 0 0 0 0 0 0 0 0 0 0 0 0 0 0 0
2 1 0 0 0 0 0 0 0 0 0 0 0 0 0 0 0 0 0 0 0 0 0 0 0 3 0 0 0 0 0 0 0 0 0 0 0 0 0 0 0 0 0 0 0 0 0 0 0 0 0 0 0 0
7 0 0 0 0 0 0 0 0 0 0 0 0 0 0 0 0 0 0 0 0 0 0 0 1 0 2 0 0 1 0 0 0 0 0 0 0 0 0 0 0 0 0 0 0 0 0 0 0 0 0 0 0 0
13 5 0 0 0 0 0 0 0 0 0 0 0 0 0 0 0 0 0 0 0 2 0 0 0 0 1 1 1 12 0 0 0 8 1 1 0 0 0 0 0 0 0 0 0 0 0 0 0 0 0 0 0 0
20 9 0 0 0 0 0 0 0 0 0 0 0 0 0 0 0 0 1 3 2 2 2 0 0 0 0 1 3 7 22 8 14 13 7 12 0 0 0 0 0 0 0 0 0 0 0 0 0 16 0 0 0 0
25 10 0 0 0 0 0 0 0 0 0 0 0 0 0 0 0 0 0 0 0 3 3 4 0 10 46 29 2 0 26 16 13 23 14 11 8 3 0 0 0 0 0 0 0 0 0 0 0 3 4 0 0 0
11 0 0 0 0 0 0 0 0 0 0 0 0 0 0 0 0 0 0 0 0 0 4 2 0 20 26 38 11 35 20 27 35 30 17 9 3 3 0 0 0 0 0 0 0 0 0 0 0 2 12 13 0 0
1 0 0 0 0 0 0 0 0 0 0 0 0 0 0 0 0 5 2 7 7 0 0 0 2 0 0 37 52 19 10 26 1 3 0 11 1 0 0 0 0 0 0 0 0 0 0 0 0 1 3 17 0 0
0 0 0 0 0 0 0 0 0 0 0 0 0 0 0 7 2 8 0 0 0 0 0 0 0 0 0 39 2 23 0 16 17 10 0 0 0 7 6 0 0 0 7 0 3 0 0 0 6 0 7 13 0 0
0 0 0 0 0 0 0 0 0 0 0 0 0 0 0 0 0 0 0 13 6 0 7 18 24 33 26 27 18 8 49 10 4 10 10 0 6 3 0 0 2 0 3 11 11 5 0 1 22 16 16 10 7 0
0 0 0 0 0 0 0 0 0 0 0 0 0 0 0 0 2 0 16 1 1 10 14 19 0 30 34 101 126 5 11 7 2 0 0 0 0 0 1 0 8 5 12 17 17 19 4 5 25 28 27 10 8 7
0 0 0 0 0 0 0 0 0 0 0 0 0 1 0 5 6 24 12 0 17 22 31 38 70 52 61 36 24 6 80 10 1 0 0 0 0 31 24 1 2 7 3 5 21 21 12 15 12 7 4 5 8 7
0 0 0 0 0 0 0 0 0 0 0 0 22 136 103 56 80 32 25 43 46 42 57 89 58 57 16 0 1 0 0 4 15 9 16 18 21 33 35 35 15 6 0 16 32 30 41 45 13 16 4 13 7 16
0 0 0 0 0 0 0 0 0 0 0 0 55 62 1 8 29 40 15 12 44 51 73 63 32 8 0 0 0 0 3 9 18 13 28 19 26 24 23 15 16 9 0 0 0 2 2 7 16 7 5 7 18 28
0 0 0 0 0 0 0 0 0 0 0 0 0 0 3 41 42 47 5 2 8 47 122 35 26 1 0 0 0 0 1 0 16 20 14 21 28 40 31 5 14 13 7 0 7 22 31 8 11 0 11 6 22 40
0 0 0 0 0 0 0 0 0 0 0 43 5 15 68 83 130 11 4 45 100 5 0 0 0 0 0 0 3 10 23 23 35 20 30 31 10 22 14 40 23 21 35 14 0 1 1 1 0 2 3 5 43 28
1 0 0 0 0 0 0 0 0 169 95 87 29 66 173 169 69 32 47 52 67 0 0 0 0 0 0 0 0 19 32 45 19 34 39 18 11 13 35 4 8 28 84 68 65 13 4 0 0 0 22 17 3 5
0 0 0 0 0 0 0 13 0 0 0 20 48 146 173 144 61 65 95 78 44 0 0 1 0 0 0 2 18 27 28 53 44 50 21 36 63 57 32 31 15 0 13 17 26 16 13 0 0 4 10 3 1 6
0 0 0 0 0 0 0 0 42 64 264 277 268 203 70 15 18 115 80 47 8 17 6 0 0 0 5 28 40 43 39 36 27 19 11 7 1 1 6 6 4 6 0 1 12 19 14 5 0 0 0 1 1 8
0 2 0 0 0 0 0 0 119 378 335 278 170 48 28 52 97 88 46 63 59 18 6 16 0 0 21 26 32 78 19 0 2 0 4 0 1 9 0 0 0 0 0 17 44 36 24 9 0 1 5 0 0 0
9 68 44 0 0 0 8 0 0 43 0 7 34 66 50 8 32 144 67 20 21 14 16 21 3 7 17 61 24 40 66 12 10 13 11 15 19 18 1 6 18 15 15 7 0 0 0 2 0 2 15 5 0 0
8 9 1 29 61 53 0 32 225 117 56 40 49 87 33 24 13 5 35 34 24 10 1 0 17 20 11 36 38 17 12 43 25 14 21 24 9 0 0 4 12 19 18 37 42 12 0 0 2 5 0 0 0 0
0 0 16 71 59 14 2 79 199 108 169 154 90 64 27 41 33 26 42 35 7 0 12 0 15 24 15 20 8 0 0 0 0 2 0 0 2 0 1 8 6 2 10 0 4 42 28 14 4 2 9 4 8 1
0 8 5 0 0 59 151 138 128 207 48 50 127 31 0 0 47 36 6 47 31 29 19 4 0 0 0 0 0 0 0 0 0 0 0 0 3 1 0 0 0 11 15 0 0 8 4 4 13 20 3 8 11 13
0 0 0 0 0 0 1 153 221 83 43 27 80 20 1 5 0 0 11 31 25 39 39 0 0 0 0 0 0 0 0 0 0 0 0 0 0 0 0 0 0 2 0 0 6 5 3 8 10 3 4 4 2 6
0 0 0 0 0 7 6 123 217 153 93 79 12 3 0 0 0 0 8 17 7 5 0 0 0 0 0 0 0 0 0 0 0 0 0 0 0 0 0 0 0 0 0 3 2 0 8 3 3 8 14 9 14 17
0 0 0 0 0 15 46 90 251 47 7 7 2 22 64 15 1 11 8 6 0 0 0 0 0 0 0 0 0 0 0 0 0 0 0 0 0 0 0 0 0 0 0 0 4 9 2 2 8 10 14 12 17 21
0 0 0 0 0 11 149 124 65 35 16 16 11 1 0 17 27 11 3 0 0 0 0 0 0 0 0 0 0 0 0 0 0 0 0 0 0 0 0 0 0 0 0 0 0 0 1 3 4 7 7 1 5 4
0 0 0 0 15 209 173 141 26 15 29 4 0 0 1 15 26 2 0 0 0 0 0 0 0 0 0 0 0 0 0 0 0 0 0 0 0 0 0 0 0 0 0 0 2 1 2 4 6 2 0 2 4 0
0 0 3 13 182 131 80 126 11 7 29 0 0 0 3 3 0 0 0 0 2 6 0 0 0 0 0 0 0 0 0 0 0 0 0 0 0 0 0 0 0 0 0 0 1 2 2 2 1 0 0 0 0 0
0 0 11 257 250 91 29 26 147 51 27 48 6 0 0 7 0 0 0 2 0 0 0 0 0 0 0 0 0 0 0 0 0 0 0 0 0 0 0 0 0 0 0 0 0 0 0 0 0 0 0 0 0 0
271 320 394 280 204 89 3 0 52 4 22 42 38 10 4 8 16 3 0 2 0 0 0 0 0 0 0 0 0 0 0 0 0 0 0 0 0 0 0 0 0 0 0 0 0 0 0 0 0 0 0 0 0 0

GFSWCAN_con_mucape_063.txt.gz
CAPE
0 0 1 0 0 0 0 0 0 0 0 0 0 0 0 0 0 0 0 0 0 0 0 0 0 0 0 0 0 0 0 0 0 0 0 0 0 0 0 0 0 0 0 0 0 0 0 0 0 0 0 0 0 0
0 0 2 0 0 0 0 0 0 0 0 0 0 0 0 0 0 0 0 0 0 0 0 0 0 0 0 0 0 0 0 0 0 0 0 0 0 0 0 0 0 0 0 0 0 0 0 0 0 0 0 0 0 0
0 12 6 0 0 0 0 0 0 0 0 0 0 0 0 0 0 0 0 0 0 0 0 0 0 0 0 0 0 0 0 0 0 0 0 0 0 0 0 0 0 0 0 0 0 0 0 0 0 0 0 0 0 0
2 5 7 0 0 0 0 0 0 0 0 0 0 0 0 0 0 0 0 0 0 0 0 0 0 0 0 0 0 0 0 0 0 0 0 0 0 0 0 0 0 0 0 0 0 0 0 0 0 0 0 0 0 0
1 13 15 0 0 0 0 0 0 0 0 0 0 0 0 0 0 0 0 0 0 0 0 0 0 0 0 0 0 0 0 2 2 0 0 0 2 0 0 0 0 0 0 0 0 0 0 0 0 0 0 0 0 0
8 34 33 0 0 0 0 0 0 0 0 0 0 0 0 0 0 0 0 0 0 3 1 0 0 0 0 0 0 0 1 14 7 42 2 14 10 3 0 0 0 0 0 0 0 0 0 0 0 5 10 25 17 0
7 7 17 0 0 0 0 0 0 0 0 0 0 0 0 0 0 0 0 0 0 0 0 0 0 0 0 4 1 2 17 22 5 6 0 0 18 20 11 0 0 0 0 0 0 0 0 0 0 0 12 34 36 31
1 3 6 0 0 0 0 0 0 0 0 0 0 0 0 0 0 0 1 3 1 0 0 0 0 0 0 0 22 18 21 18 17 0 26 3 0 22 0 0 0 0 0 0 0 0 0 0 0 12 18 26 24 0
4 2 0 0 0 0 0 0 0 0 0 0 0 0 0 0 0 0 1 4 2 0 0 0 0 0 1 0 7 15 78 65 70 2 8 4 1 0 0 0 0 0 0 0 0 0 0 0 0 4 24 20 11 0
9 0 0 0 0 0 0 0 0 0 0 0 0 0 0 0 0 0 0 0 0 0 0 0 0 0 0 0 0 10 18 18 21 9 1 12 6 1 0 0 1 0 0 0 0 0 0 0 0 8 27 23 12 3
0 0 0 0 0 0 0 0 0 0 0 0 0 0 0 0 0 0 0 0 0 0 0 0 0 0 8 22 16 22 39 16 4 0 0 0 0 0 0 1 0 0 0 1 11 14 8 3 0 10 27 32 9 7
0 0 0 0 0 0 0 0 0 0 0 0 0 0 0 0 0 0 0 1 0 1 0 0 10 0 17 5 41 18 9 16 3 0 0 0 0 0 0 0 0 0 0 2 14 17 32 16 13 35 29 14 12 5
0 0 0 0 0 0 0 0 0 0 0 0 0 0 0 0 3 0 0 3 7 7 17 12 34 29 25 25 18 3 79 0 0 0 0 0 2 4 3 2 0 0 0 0 5 38 46 26 23 52 35 21 5 2
0 0 0 0 0 0 0 0 0 0 0 0 0 5 35 2 4 13 22 33 10 6 47 62 54 42 49 15 0 0 0 0 2 0 0 0 9 19 18 14 5 2 1 25 14 33 53 55 46 21 0 17 14 18
0 0 0 0 0 0 0 0 0 0 0 0 0 3 43 14 4 8 19 10 2 8 6 73 74 65 44 0 0 0 0 10 0 0 0 8 15 9 15 19 36 6 28 36 21 22 30 23 17 10 0 13 16 20
0 0 0 0 0 0 0 0 0 0 0 0 0 0 3 5 5 17 44 15 0 0 3 46 46 19 5 0 0 0 1 0 0 3 8 5 15 14 21 24 5 20 26 23 13 12 5 19 33 3 0 6 14 33
0 0 0 0 0 0 0 0 0 0 0 0 13 3 2 17 31 44 37 0 16 17 0 0 0 0 0 0 0 8 5 18 34 20 24 30 36 27 15 23 35 0 15 16 22 24 1 6 8 1 0 0 17 20
9 0 0 0 0 0 0 0 0 30 35 11 0 0 2 33 94 73 35 13 32 5 0 0 2 0 0 0 4 13 38 35 39 21 33 34 17 20 25 14 0 11 35 4 22 8 6 4 0 0 18 14 0 1
3 0 0 0 0 0 0 0 0 0 0 0 1 36 101 77 89 59 45 70 57 16 0 3 0 6 0 0 8 34 43 30 26 21 29 25 24 2 0 4 20 14 3 0 0 4 5 23 3 12 38 7 0 6
0 0 0 0 0 0 0 0 4 22 0 129 167 175 113 44 0 20 44 48 27 12 17 23 14 4 18 5 31 45 13 4 0 6 7 5 7 4 0 14 5 0 0 0 0 1 16 54 27 31 14 4 16 29
0 100 0 0 0 0 0 0 27 123 181 248 156 101 54 29 19 5 19 20 42 29 21 17 25 25 55 52 0 0 0 0 0 5 8 7 6 5 3 11 12 12 3 0 31 39 34 20 9 1 13 10 26 46
0 56 79 37 0 0 0 0 0 0 0 0 3 0 3 15 0 0 2 11 27 23 17 7 1 21 10 8 0 9 11 19 21 18 8 6 14 0 0 11 18 13 0 0 0 0 3 12 0 1 16 8 3 27
0 3 15 0 68 13 0 0 38 67 16 31 57 18 11 2 8 12 0 0 8 25 15 2 21 15 19 12 8 7 16 19 10 12 1 0 0 0 0 5 7 0 0 0 0 3 1 0 1 5 6 8 21 21
0 0 6 71 21 30 22 21 80 68 35 36 26 20 8 0 0 0 0 0 5 2 17 25 39 10 18 16 9 0 0 0 0 0 0 0 0 0 0 1 0 0 0 0 2 5 8 5 1 6 0 14 14 14
0 0 2 0 0 74 90 66 85 79 62 22 40 15 0 0 0 13 17 3 8 4 0 12 8 3 0 0 0 0 0 0 0 0 0 0 0 0 0 0 0 0 0 2 3 5 5 7 7 14 7 23 20 6
0 0 0 0 0 0 1 26 179 65 25 24 25 0 0 0 0 0 5 0 7 4 0 0 0 0 0 0 0 0 0 0 0 0 0 0 0 0 0 0 0 0 0 0 0 0 0 0 0 1 2 6 2 3
0 0 0 0 0 0 2 11 107 75 33 38 17 1 2 0 0 0 3 4 11 0 0 0 0 0 0 0 0 0 0 0 0 0 0 0 0 0 0 0 0 0 0 0 5 0 5 6 5 4 2 1 6 10
0 0 0 0 0 0 4 7 85 55 29 14 3 19 40 0 0 18 21 11 8 0 0 0 0 0 0 0 0 0 0 0 0 0 0 0 0 0 0 0 0 0 0 2 2 6 6 5 8 11 11 10 6 16
0 0 0 0 0 0 20 104 61 25 11 15 19 1 0 10 8 0 0 0 0 0 0 0 0 0 0 0 0 0 0 0 0 0 0 0 0 0 0 0 0 0 0 0 0 0 1 0 0 2 3 4 2 3
0 0 0 0 0 38 126 86 25 20 24 31 19 1 13 10 0 0 0 0 0 0 0 0 0 0 0 0 0 0 0 0 0 0 0 0 0 0 0 0 0 0 0 0 0 0 1 2 1 0 0 1 0 0
0 0 0 0 16 0 40 92 16 10 0 0 0 0 1 0 0 0 0 0 0 0 0 0 0 0 0 0 0 0 0 0 0 0 0 0 0 0 0 0 0 0 0 0 0 1 2 0 0 0 0 0 0 0
0 0 0 2 28 4 37 19 20 7 2 10 0 0 0 0 0 0 0 0 0 0 0 0 0 0 0 0 0 0 0 0 0 0 0 0 0 0 0 0 0 0 0 0 0 0 0 0 0 0 0 0 0 0
41 93 118 71 34 28 12 36 10 0 0 2 25 6 0 0 0 0 0 0 1 3 0 1 0 0 0 0 0 0 0 0 0 0 0 0 0 0 0 0 0 0 0 0 0 0 0 0 0 0 0 0 0 0

GFSWCAN_con_mucape_066.txt.gz
CAPE
0 0 0 12 0 0 0 0 0 0 0 0 0 0 0 0 0 0 0 0 0 0 0 0 0 0 0 0 0 0 0 0 0 0 0 0 0 0 0 0 0 0 0 0 0 0 0 0 0 0 0 0 0 0
0 0 0 13 1 0 0 0 0 0 0 0 0 0 0 0 0 0 0 0 0 0 0 0 0 0 0 0 0 0 0 0 0 0 0 0 0 0 0 0 0 0 0 0 0 0 0 0 0 0 0 0 0 0
0 0 8 17 3 0 0 0 0 0 0 0 0 0 0 0 0 0 0 0 0 0 0 0 0 0 0 0 0 0 0 0 0 0 0 0 0 0 0 0 0 0 0 0 0 0 0 0 0 0 0 0 0 0
0 0 7 20 0 0 0 0 0 0 0 0 0 0 0 0 0 0 0 0 0 0 0 0 0 0 0 0 0 0 0 0 0 0 0 0 0 0 0 0 0 0 0 0 0 0 0 0 0 0 0 0 0 0
0 0 13 13 0 0 0 0 0 0 0 0 0 0 0 0 0 0 0 0 0 0 0 0 0 0 0 0 0 0 2 3 1 2 5 1 0 0 0 0 0 0 0 0 0 0 0 0 0 0 0 0 0 0
0 0 9 17 7 0 0 0 0 0 0 0 0 0 0 0 0 0 0 0 0 0 0 0 0 0 0 0 0 0 17 14 0 0 0 0 0 0 0 0 0 0 0 0 0 0 0 0 0 0 0 0 0 0
0 0 6 4 14 0 0 0 0 0 0 0 0 0 0 0 0 0 0 0 0 0 0 0 0 0 0 7 1 11 35 26 21 22 2 0 0 0 0 0 0 0 0 0 0 0 0 0 0 0 0 0 0 0
0 2 1 5 23 0 0 0 0 0 0 0 0 0 0 0 0 0 0 1 0 0 0 0 0 0 0 0 0 11 27 25 22 31 6 22 0 0 0 0 0 0 0 0 0 0 0 0 0 0 0 0 0 0
0 0 11 20 0 0 0 0 0 0 0 0 0 0 0 0 0 0 0 1 0 0 0 0 0 0 0 0 0 5 32 57 36 22 10 11 13 0 0 6 0 0 0 0 0 0 0 0 0 0 0 0 0 3
0 13 3 1 0 0 0 0 0 0 0 0 0 0 0 0 0 1 0 0 0 0 0 0 0 0 0 0 2 14 28 20 14 7 0 0 0 0 0 1 0 0 7 0 0 0 0 0 0 0 0 0 4 0
4 3 4 0 0 0 0 0 0 0 0 0 0 0 0 0 0 0 0 0 0 0 0 5 10 6 1 0 4 4 15 15 5 0 0 0 0 0 0 0 1 9 7 0 0 1 13 12 17 0 0 11 14 2
18 14 0 0 0 0 0 0 0 0 0 0 0 0 0 0 0 1 0 0 0 0 3 14 12 16 12 2 3 9 11 16 0 0 0 0 0 0 0 0 1 2 0 0 1 13 17 14 20 0 0 14 27 4
2 0 0 0 0 0 0 0 0 0 0 0 0 0 0 0 2 2 0 14 24 26 21 32 17 18 5 8 12 1 7 1 0 0 0 0 0 0 1 0 0 4 0 0 6 17 7 7 15 1 7 20 9 7
0 0 0 0 0 0 0 0 0 0 0 0 0 0 0 0 0 0 6 21 29 18 2 0 33 20 6 17 1 0 0 0 5 0 0 0 0 0 0 0 4 5 1 11 30 18 5 1 23 23 25 0 0 8
0 0 0 0 0 0 0 0 0 0 0 0 0 0 0 17 1 2 29 29 12 0 0 5 0 2 14 5 0 0 0 0 1 0 0 0 6 3 6 10 8 11 13 25 26 40 37 22 46 33 10 3 0 6
0 3 0 0 0 0 0 0 0 0 0 0 0 0 9 3 0 19 28 20 21 6 1 18 1 0 0 0 0 0 0 0 0 0 0 7 12 23 35 30 32 41 21 18 2 45 32 30 19 17 13 3 3 8
0 5 0 0 0 0 0 0 0 0 0 0 0 0 0 0 0 12 47 21 0 20 4 0 0 0 0 0 0 0 0 0 0 11 22 26 35 25 15 18 23 18 17 8 3 12 24 12 19 16 11 0 4 7
4 0 0 0 0 0 0 0 0 0 1 0 0 0 0 0 12 13 28 26 3 16 16 8 1 0 0 0 0 2 6 10 20 14 13 18 18 26 17 24 27 6 1 4 8 2 3 0 11 14 9 7 26 0
4 0 0 0 0 0 0 0 0 0 0 0 3 1 36 39 16 1 0 0 1 8 11 7 2 0 7 0 2 0 11 20 24 7 0 11 15 7 2 2 0 0 0 0 0 0 1 2 0 5 17 15 18 3
0 0 0 0 0 0 0 0 0 0 0 6 0 33 99 56 1 0 2 20 36 23 14 12 0 6 3 7 16 15 13 9 0 1 6 3 2 3 10 8 9 4 0 4 6 37 22 12 14 15 13 30 42 33
1 19 55 0 0 0 0 0 0 44 92 82 100 91 0 0 0 14 11 14 25 27 25 14 0 2 0 7 11 0 2 0 7 17 6 0 2 4 0 0 3 0 0 0 0 2 16 16 9 3 0 34 39 34
0 0 84 56 51 0 0 0 0 0 0 0 0 0 0 1 1 5 5 27 9 25 0 20 9 6 0 9 7 7 7 5 3 0 0 0 0 0 0 0 0 0 0 0 0 0 2 2 6 0 13 24 32 11
0 0 22 31 3 29 2 0 7 17 2 1 32 10 13 9 8 0 0 6 16 0 14 16 1 13 0 8 16 8 0 0 0 0 0 0 0 0 0 0 0 0 0 0 0 0 0 4 0 0 0 5 7 0
0 0 22 14 5 14 19 31 40 55 51 59 21 12 7 4 0 0 0 1 2 13 24 12 0 0 6 10 10 0 0 0 0 0 0 0 0 0 0 0 0 0 0 0 0 3 1 0 0 13 10 7 2 0
2 0 0 4 0 54 116 55 46 60 105 37 10 8 9 0 0 0 12 0 2 18 5 0 0 7 4 0 0 0 0 0 0 0 0 0 0 0 0 0 0 0 0 0 0 0 6 8 15 16 13 6 9 7
0 0 0 0 0 0 1 13 109 88 36 19 18 27 12 12 0 0 1 22 22 10 2 0 0 0 0 0 0 0 0 0 0 0 0 0 0 0 0 0 0 0 0 0 0 1 5 10 12 18 8 3 11 11
0 0 0 0 0 0 0 0 25 39 47 28 17 17 16 0 0 0 1 25 21 6 0 0 0 0 0 0 0 0 0 0 0 0 0 0 0 0 0 0 0 0 0 0 0 3 4 7 11 14 19 23 18 20
0 0 0 0 0 0 0 6 8 31 45 24 17 12 16 26 24 18 5 8 6 0 0 0 0 0 0 0 0 0 0 0 0 0 0 0 0 0 0 0 0 0 0 0 4 8 3 7 10 7 4 4 7 12
0 0 0 0 0 0 0 11 32 36 29 23 25 1 0 5 12 5 0 0 0 0 0 0 0 0 0 0 0 0 0 0 0 0 0 0 0 0 0 0 0 0 0 0 0 0 1 3 3 3 7 1 0 0
0 0 0 0 0 0 6 45 38 23 13 6 2 0 0 1 0 0 0 0 0 0 0 0 0 0 0 0 0 0 0 0 0 0 0 0 0 0 0 0 0 0 0 0 0 0 1 0 0 0 0 0 0 0
0 0 0 0 0 7 38 66 27 14 4 3 0 0 0 0 0 0 0 0 0 0 1 0 0 0 0 0 0 0 0 0 0 0 0 0 0 0 0 0 0 0 0 0 0 0 0 0 0 0 0 0 0 0
0 0 0 0 23 16 24 20 26 7 0 0 0 0 0 0 0 0 0 0 0 0 2 0 0 0 0 0 0 0 0 0 0 0 0 0 0 0 0 0 0 0 0 0 0 0 0 0 0 0 0 0 0 0
32 1 4 22 32 15 16 52 16 0 0 0 0 0 0 0 0 0 0 2 1 8 10 3 0 0 0 0 0 0 0 0 0 0 0 0 0 0 0 0 0 0 0 0 0 0 0 0 0 0 0 0 0 0

GFSWCAN_con_mucape_069.txt.gz
CAPE
0 0 0 0 0 0 0 0 0 0 0 0 0 0 0 0 0 0 0 0 0 0 0 0 0 0 0 0 0 0 0 0 0 0 0 0 0 0 0 0 0 0 0 0 0 0 0 0 0 0 0 0 0 0
0 0 0 0 0 1 0 0 0 0 0 0 0 0 0 0 0 0 0 0 0 0 0 0 0 0 0 0 0 0 0 0 0 0 0 0 0 0 0 0 0 0 0 0 0 0 0 0 0 0 0 0 0 0
0 0 0 0 3 3 0 0 0 0 0 0 0 0 0 0 0 0 0 0 0 0 0 0 0 0 0 0 0 0 0 0 0 0 0 0 0 0 0 0 0 0 0 0 0 0 0 0 0 0 0 0 0 0
0 0 0 0 7 0 0 0 0 0 0 0 0 0 0 0 0 0 0 0 0 0 0 0 0 0 0 0 0 0 0 0 0 0 0 0 0 0 0 0 0 0 0 0 0 0 0 0 0 0 0 0 0 0
0 0 0 0 24 12 0 0 0 0 0 0 0 0 0 0 0 0 0 0 0 0 0 0 0 0 0 0 0 0 3 11 2 0 0 0 0 0 0 0 0 0 0 0 0 0 0 0 0 0 0 0 0 1
0 0 0 1 13 25 0 0 0 0 0 0 0 0 0 0 0 0 0 0 0 0 0 0 0 0 0 0 0 0 13 18 22 0 2 1 2 0 0 0 0 0 0 0 0 0 0 0 0 0 0 0 0 0
0 0 0 11 15 6 0 0 0 0 0 0 0 0 0 0 0 0 0 0 0 0 0 0 0 0 0 0 0 0 4 15 15 13 39 43 1 0 0 0 0 0 0 0 0 0 0 0 0 0 0 0 0 0
0 0 0 14 4 24 0 0 0 0 0 0 0 0 0 0 0 0 0 0 0 0 0 0 0 0 0 0 0 0 8 13 13 32 2 4 5 2 0 0 0 0 0 0 0 0 0 0 0 0 0 0 0 0
0 0 3 1 4 11 0 0 0 0 0 0 0 0 0 0 0 0 0 0 0 0 0 0 0 0 0 0 0 15 33 41 27 56 24 15 7 0 0 0 0 0 0 0 0 0 0 0 0 0 0 0 0 0
0 0 3 3 11 2 0 0 0 0 0 0 0 0 0 0 0 0 0 0 0 0 0 0 0 0 0 0 4 27 33 53 60 12 8 0 0 0 0 0 0 0 0 2 10 0 0 0 0 0 0 0 1 19
7 9 9 17 0 0 0 0 0 0 0 0 0 0 0 0 0 0 0 0 0 0 0 3 6 2 11 18 52 3 16 39 24 11 5 0 0 6 0 3 0 2 0 0 0 1 1 0 0 3 0 0 7 29
7 2 3 0 0 0 0 0 0 0 0 0 0 0 0 0 0 0 0 0 0 0 3 4 18 7 2 7 25 2 43 24 0 3 2 0 29 0 0 6 34 36 1 0 0 2 5 2 3 2 19 32 32 34
2 0 0 0 0 0 0 0 0 0 0 0 0 0 0 0 3 0 0 2 9 23 14 16 24 25 7 6 17 0 24 0 4 16 0 0 92 11 0 0 15 35 51 19 51 45 25 18 24 7 39 89 64 23
0 0 0 0 0 0 0 0 0 0 0 0 0 0 0 0 0 0 14 36 30 29 24 21 26 24 9 20 2 0 0 7 0 0 9 91 147 59 2 3 25 59 22 19 47 82 89 104 81 82 81 122 67 29
0 0 0 0 0 0 0 0 0 0 0 0 0 0 1 0 0 2 16 19 20 27 20 6 13 23 20 0 0 0 0 0 35 72 82 221 73 26 74 33 25 12 23 34 18 14 13 81 102 171 140 60 45 66
1 0 0 0 0 0 0 0 0 0 0 0 0 0 0 0 0 0 37 94 24 4 0 7 17 11 0 0 0 0 0 0 30 69 153 37 35 30 43 44 50 43 49 34 19 1 11 16 1 23 28 18 60 94
7 2 0 0 0 0 0 0 0 0 0 0 0 0 0 0 0 0 18 118 25 17 45 0 9 0 0 0 0 0 13 60 56 99 50 6 1 29 27 61 44 31 35 38 60 77 18 13 9 0 1 2 49 102
2 0 0 0 0 0 0 0 0 1 1 0 0 0 0 0 34 30 52 21 30 29 22 26 15 1 1 0 9 2 36 21 30 49 23 2 8 18 31 51 20 14 33 43 48 50 1 0 0 1 0 0 14 61
0 0 0 0 0 0 0 0 0 0 0 0 0 1 3 105 71 46 27 24 25 20 27 12 0 0 0 0 0 28 36 40 82 23 4 0 0 24 23 25 25 12 33 53 76 172 167 55 1 0 0 26 88 58
6 0 0 0 0 0 0 0 0 0 0 0 0 0 44 176 66 28 28 33 40 22 14 0 0 1 0 0 20 45 44 19 14 27 9 0 0 17 32 38 22 25 28 41 23 8 142 116 144 7 2 0 6 51
2 0 30 16 0 0 0 0 1 0 36 86 100 90 221 8 29 30 38 30 18 0 11 0 0 0 0 7 24 16 5 0 8 5 3 1 0 7 10 0 0 3 18 38 65 96 43 125 54 17 0 47 36 45
0 0 0 11 14 4 0 0 0 0 0 0 7 1 60 52 35 33 16 14 23 18 12 2 0 3 0 7 12 6 1 0 0 0 0 0 0 0 0 2 0 1 16 69 61 79 0 1 52 82 32 27 1 12
0 0 1 6 10 7 2 0 14 22 8 16 50 131 106 62 20 0 60 31 9 10 10 5 7 0 0 2 4 5 0 0 0 0 0 0 0 0 0 0 0 9 43 27 13 22 0 0 35 32 37 32 0 0
0 0 32 37 4 1 18 43 41 119 96 90 110 204 62 16 1 8 10 2 0 9 11 0 3 0 0 1 2 0 0 0 0 0 0 0 0 0 0 0 0 0 0 2 54 66 69 82 18 58 26 8 4 12
0 7 0 0 0 44 132 186 121 119 128 111 123 157 16 5 7 35 0 2 0 0 3 0 0 0 0 0 0 0 0 0 0 0 0 0 0 0 0 0 0 0 0 0 19 48 67 84 130 108 101 44 13 23
0 0 0 0 6 4 0 19 49 180 119 106 157 5 14 5 2 0 0 2 21 15 4 0 0 0 0 0 0 0 0 0 0 0 0 0 0 0 0 0 0 0 0 0 15 29 41 61 80 56 48 19 4 30
0 0 0 0 0 0 1 0 0 83 173 174 123 20 13 0 0 1 4 1 8 3 0 0 0 0 0 0 0 0 0 0 0 0 0 0 0 0 0 0 0 0 0 7 16 29 35 36 44 45 46 33 19 39
0 0 0 0 0 0 0 3 9 109 199 64 28 7 0 20 51 11 0 0 0 0 0 0 0 0 0 0 0 0 0 0 0 0 0 0 0 0 0 0 0 0 0 0 5 9 14 20 19 17 19 14 3 0
0 0 0 0 0 0 0 0 20 118 51 70 110 29 37 63 7 0 0 0 0 0 0 0 0 0 0 0 0 0 0 0 0 0 0 0 0 0 0 0 0 0 0 0 0 0 0 0 0 0 0 0 0 0
0 0 0 0 0 0 0 3 106 68 14 48 46 15 0 0 0 0 0 0 0 0 0 0 0 0 0 0 0 0 0 0 0 0 0 0 0 0 0 0 0 0 0 0 0 0 0 0 0 0 0 0 0 0
0 0 0 0 0 0 14 28 28 21 17 10 3 0 0 0 0 0 0 0 0 0 0 0 0 0 0 0 0 0 0 0 0 0 0 0 0 0 0 0 0 0 0 0 0 0 0 0 0 0 0 0 0 0
0 0 0 0 23 52 24 103 137 143 87 43 0 0 0 0 0 0 0 0 0 0 1 0 0 0 0 0 0 0 0 0 0 0 0 0 0 0 0 0 0 0 0 0 0 0 0 0 0 0 0 0 0 0
4 0 0 0 65 85 72 122 41 0 0 37 62 0 6 1 33 0 0 12 12 4 12 22 9 1 0 0 0 0 0 0 0 0 0 0 0 0 0 0 0 0 0 0 0 0 0 0 0 0 0 0 0 0

GFSWCAN_con_mucape_072.txt.gz
CAPE
0 0 0 1 3 0 0 0 0 0 0 0 0 0 0 0 0 0 0 0 0 0 0 0 0 0 0 0 0 0 0 0 0 0 1 7 10 5 0 0 0 2 12 20 15 21 4 0 0 0 0 0 0 0
0 0 0 0 0 0 0 0 0 0 0 0 0 0 0 0 0 0 0 0 0 0 0 0 0 0 0 0 0 0 0 0 0 0 0 0 8 0 5 10 0 6 1 26 7 18 0 0 0 0 0 0 0 0
0 0 0 0 0 0 1 1 0 0 0 0 0 0 0 0 0 0 0 0 0 0 0 0 0 0 0 0 0 4 0 0 0 0 0 0 0 1 11 7 1 0 0 5 0 0 0 0 0 0 0 0 0 0
0 0 0 0 0 0 6 0 0 0 0 0 0 0 0 0 0 0 0 0 0 0 0 0 0 0 0 0 0 0 0 0 0 0 17 17 23 0 8 7 1 1 1 0 0 0 0 0 0 0 0 0 0 0
0 0 0 0 0 0 16 0 0 0 0 0 0 0 0 0 0 0 0 0 0 0 0 0 0 0 0 0 0 0 0 1 2 1 0 0 8 2 0 1 10 0 0 5 15 0 0 0 0 0 0 0 0 0
0 0 0 0 1 5 20 2 0 0 0 0 0 0 0 0 0 0 11 0 0 0 4 0 0 0 0 0 0 0 1 2 13 12 35 3 6 0 59 24 3 1 0 6 8 0 0 0 0 0 0 0 2 3
0 0 0 0 0 10 2 3 0 0 0 0 0 0 0 0 0 0 6 0 0 0 2 0 0 0 0 0 0 0 0 4 12 20 18 55 22 7 0 11 24 54 20 9 1 0 0 0 0 0 0 1 0 0
0 0 1 3 1 5 4 0 0 0 0 0 0 0 0 0 0 0 0 0 0 13 2 0 0 0 0 37 68 0 39 29 28 51 35 57 3 1 2 1 36 12 0 0 0 0 2 0 0 0 1 2 6 11
0 1 8 19 4 6 10 0 0 0 0 0 0 0 0 0 6 2 0 0 0 12 10 0 43 65 0 95 90 26 68 95 104 113 113 50 17 6 9 87 28 0 0 0 53 1 0 0 1 6 6 5 7 7
0 0 4 9 6 3 0 0 0 0 0 0 0 0 24 10 0 0 2 16 0 12 5 2 0 121 35 74 114 99 116 54 73 80 3 39 25 99 136 156 19 5 39 0 3 44 0 0 4 16 36 34 29 14
2 9 17 3 4 1 0 0 0 0 0 0 0 11 0 0 3 10 10 0 1 6 1 0 0 94 14 167 131 85 73 95 38 35 30 2 8 126 129 133 25 27 20 1 1 2 17 12 37 65 79 76 63 23
3 9 10 2 0 0 0 0 0 0 0 0 1 0 3 13 15 9 1 3 2 116 85 44 103 5 47 41 108 47 69 55 0 63 34 30 72 96 166 258 270 157 214 90 39 76 79 122 117 116 123 106 124 42
0 0 1 0 0 0 0 0 0 0 0 0 0 2 12 13 2 7 27 208 273 329 223 99 118 53 25 65 87 100 0 0 20 54 61 46 148 165 252 259 239 308 299 253 266 230 213 186 210 211 192 197 195 158
0 0 0 0 0 0 0 0 0 0 0 0 0 3 8 7 8 202 339 326 291 282 324 344 180 186 69 92 84 10 17 52 0 3 137 131 128 167 197 218 240 135 178 221 210 160 176 226 193 217 238 293 232 247
3 0 0 0 0 0 0 0 0 0 0 0 0 0 0 3 230 331 434 402 365 354 270 114 192 191 124 77 7 0 0 0 47 100 85 188 193 194 163 138 179 120 112 122 106 81 104 168 200 202 230 274 260 247
2 1 1 0 0 0 0 0 0 0 0 0 0 0 0 23 16 243 409 566 484 349 148 317 161 109 71 21 0 0 0 0 56 63 198 219 185 221 231 154 107 80 62 60 38 40 86 95 121 84 17 59 264 287
5 1 1 0 0 0 0 0 0 0 0 0 0 0 0 0 0 0 32 310 408 193 219 71 17 5 0 0 0 0 0 64 95 161 211 346 304 246 108 61 58 41 40 53 62 33 55 38 40 85 201 110 105 186
9 2 0 0 0 0 0 0 0 0 0 0 0 0 0 0 4 43 332 494 328 332 176 76 21 0 0 0 0 2 72 71 199 117 96 189 139 74 43 39 43 42 56 67 72 86 116 109 37 17 0 70 285 77
4 1 0 0 0 0 0 0 2 0 0 0 0 0 1 89 290 424 463 385 244 81 13 9 6 1 0 0 0 67 81 86 83 81 112 80 67 56 49 39 24 35 51 72 99 106 122 147 135 0 0 21 172 0
2 1 0 0 0 0 0 0 3 6 1 32 0 129 268 523 614 447 368 372 315 33 28 0 3 0 0 6 84 119 85 91 60 107 71 54 51 46 40 22 13 31 45 50 73 4 97 246 112 42 0 0 102 110
0 0 0 13 1 0 0 0 0 0 5 114 167 554 255 543 714 217 223 13 32 119 0 11 1 66 113 123 71 56 66 64 53 37 19 27 10 17 31 35 30 22 25 42 77 23 61 70 112 83 115 187 144 109
2 0 0 0 11 7 0 0 0 0 0 0 0 33 77 390 481 396 74 257 216 2 12 18 316 431 135 83 32 23 31 12 0 0 0 0 9 13 17 14 19 26 32 72 13 0 21 23 142 278 129 0 7 53
0 0 0 5 21 16 1 18 52 59 85 246 407 538 629 538 356 178 340 293 67 8 9 5 1 38 60 18 5 1 1 0 0 0 0 1 4 7 8 16 24 45 63 58 1 12 84 8 113 207 71 52 46 36
0 1 41 49 29 4 52 168 299 354 353 526 439 266 510 381 185 48 49 27 0 7 13 13 2 43 9 0 0 0 0 0 0 0 0 3 2 0 6 24 33 26 35 97 68 82 171 191 36 83 57 43 44 40
4 38 1 0 17 48 74 165 179 235 198 223 156 349 366 184 44 33 25 5 7 21 4 9 3 57 34 0 0 0 0 0 0 0 0 0 0 6 16 25 23 24 35 42 47 63 91 108 83 86 73 51 43 29
0 0 1 40 45 40 10 12 95 164 111 55 234 350 231 139 18 44 16 6 6 2 2 6 15 2 0 0 0 0 0 0 0 0 0 0 0 7 17 24 23 24 25 36 39 38 39 31 26 35 32 14 2 35
0 0 0 0 6 17 15 25 19 21 42 123 310 115 27 0 29 56 28 0 2 0 0 1 0 0 0 0 0 0 0 0 0 0 0 0 0 6 20 18 14 11 15 25 31 33 30 21 22 20 21 33 21 14
0 0 0 0 0 0 0 0 0 0 37 457 312 166 14 2 103 120 3 0 0 0 0 0 0 0 0 0 0 0 0 0 0 0 0 0 0 1 2 4 0 0 5 9 14 21 25 25 27 27 25 24 19 15
0 0 0 0 0 0 0 0 0 134 625 579 236 247 157 255 208 39 0 0 0 0 0 0 0 0 0 0 0 0 0 0 0 0 0 0 0 0 0 2 0 3 5 2 0 0 0 0 6 9 9 15 19 26
0 0 0 0 0 0 0 0 89 569 481 338 410 178 102 78 18 0 0 0 0 0 0 0 0 0 0 0 0 0 0 0 0 0 0 0 0 0 0 0 0 0 2 8 2 0 0 0 0 0 0 0 14 23
0 0 0 0 0 0 0 25 274 298 361 326 297 367 188 44 0 0 0 0 0 0 0 0 0 0 0 0 0 0 0 0 0 0 0 0 0 0 0 0 0 0 0 0 0 0 0 0 0 0 0 0 0 0
0 0 0 0 0 218 319 403 411 418 433 295 394 280 72 44 44 36 2 0 0 0 4 3 0 0 0 0 0 0 0 0 0 0 0 0 0 0 0 0 0 0 0 0 0 0 0 0 0 0 0 0 0 0
0 0 0 0 0 140 350 435 484 369 209 263 290 192 157 159 156 142 1 21 24 1 8 15 18 0 4 2 0 0 0 0 0 0 0 0 0 0 0 0 0 0 0 0 0 0 0 0 0 0 0 0 0 0

GFSWCAN_con_mucape_075.txt.gz
CAPE
4 3 0 7 0 12 7 0 0 0 0 0 0 0 0 0 0 0 0 0 20 1 0 0 0 0 0 0 4 0 0 0 0 0 6 70 20 8 0 12 7 43 79 62 40 72 192 0 0 0 0 0 0 0
3 0 0 0 0 0 4 2 0 0 0 0 0 0 0 0 0 0 3 0 0 0 17 0 0 0 0 0 1 0 2 0 0 1 0 8 6 7 4 38 0 10 25 203 54 123 23 0 0 1 0 0 0 0
0 0 0 0 0 0 1 3 2 0 0 0 0 0 0 0 0 0 0 0 0 2 5 0 0 0 0 0 0 30 3 0 0 0 4 12 3 6 45 46 10 0 0 0 4 1 0 0 0 0 0 0 0 0
0 0 0 0 0 1 0 6 4 0 0 0 0 0 0 0 0 0 1 0 0 0 1 9 0 0 0 0 2 8 9 0 3 2 33 22 37 17 52 110 101 42 11 0 1 0 0 0 0 0 0 0 0 0
0 0 0 0 0 5 0 6 4 0 0 0 0 0 0 0 0 0 0 0 0 34 43 23 0 0 0 0 0 6 11 18 16 27 30 44 35 76 104 81 233 204 125 343 177 29 24 2 1 0 0 0 0 0
0 0 0 0 0 3 0 40 2 0 0 0 0 0 0 0 0 0 19 0 0 0 10 21 2 0 0 0 2 15 27 23 13 39 36 116 45 54 61 140 210 170 143 144 115 55 29 28 1 0 0 0 0 0
0 0 0 0 0 4 0 30 8 0 0 0 0 0 0 0 0 4 26 7 0 0 20 3 10 0 0 0 18 40 39 24 66 11 42 69 73 23 4 21 27 48 104 139 150 23 19 7 0 0 0 0 0 5
0 0 0 0 3 0 7 11 10 0 0 0 0 0 0 0 0 0 0 0 0 13 1 19 60 16 0 28 60 62 26 16 28 111 93 108 34 38 23 46 96 40 113 63 149 40 46 38 7 6 2 4 6 7
0 0 0 0 8 11 10 4 3 0 0 0 0 0 0 0 11 6 0 0 0 7 128 39 259 353 138 102 235 123 56 147 131 168 164 97 108 127 53 151 175 255 165 87 46 41 75 39 42 15 20 21 27 34
0 0 0 10 36 4 3 4 0 0 0 0 0 0 52 20 0 0 3 6 0 9 9 175 178 220 125 220 311 410 216 117 142 108 75 104 158 194 230 227 314 336 142 16 1 57 71 57 46 54 53 43 58 50
0 1 5 5 4 3 6 2 0 0 0 0 1 51 29 0 3 11 12 2 2 107 123 153 206 294 153 265 390 259 158 97 90 108 78 72 22 162 182 213 326 340 207 88 132 104 71 48 59 43 41 40 65 63
2 3 5 2 1 0 0 0 0 0 0 1 16 3 7 9 12 22 13 5 7 332 337 260 264 200 254 263 290 166 83 92 4 28 41 83 89 205 177 180 178 279 235 171 206 237 209 192 117 137 133 74 65 88
0 0 0 0 0 0 0 0 0 0 0 0 0 9 14 13 60 12 88 265 406 473 535 531 506 314 218 252 236 169 49 2 15 45 119 93 222 181 151 144 139 182 355 389 385 480 461 405 331 238 201 193 129 194
5 0 0 0 0 0 0 0 0 0 0 0 3 32 15 11 119 299 390 510 550 351 634 782 781 406 214 199 157 0 52 47 0 0 57 118 247 196 222 212 229 203 167 220 235 257 290 360 340 450 425 336 397 319
3 0 0 0 0 0 0 0 0 0 0 0 0 0 0 0 115 475 604 502 512 489 756 626 476 349 345 107 40 0 0 0 0 64 57 340 228 309 270 222 211 186 148 92 49 61 61 58 90 170 210 277 370 393
3 1 0 0 0 0 0 0 0 0 0 0 0 0 0 2 12 101 380 462 402 482 720 582 247 187 73 21 0 0 0 0 20 31 218 380 340 286 289 216 154 90 47 48 44 50 55 64 82 82 95 120 186 243
3 11 2 0 0 0 0 0 0 0 0 0 0 0 0 0 0 0 0 28 640 568 564 261 84 86 22 0 0 0 0 7 115 185 284 365 322 278 110 42 41 32 28 34 46 43 71 76 79 115 85 82 137 261
10 13 3 1 0 0 0 0 0 0 0 0 0 0 0 0 4 40 190 878 783 558 536 257 15 0 7 0 0 0 21 51 182 181 243 238 199 101 36 41 31 23 31 44 49 62 81 106 123 152 103 27 31 81
7 2 0 0 0 0 0 0 0 3 1 2 0 0 0 8 128 191 450 655 749 492 194 38 7 1 0 0 0 26 102 114 89 110 166 133 84 40 31 25 25 31 20 29 47 80 75 238 234 58 33 13 3 101
3 3 0 0 0 0 0 0 13 24 12 45 10 20 62 97 225 374 564 733 621 383 46 1 2 0 0 0 17 49 112 50 50 84 114 36 27 31 11 14 10 31 42 46 53 13 52 283 269 45 0 1 17 33
0 0 0 0 2 0 0 17 19 5 4 10 80 146 217 744 531 668 735 829 497 302 49 10 11 38 26 131 153 99 104 73 52 15 16 41 1 7 16 26 26 36 46 66 112 33 25 138 240 169 1 0 58 124
6 0 0 0 49 25 13 31 2 18 0 3 36 121 403 580 725 742 665 473 362 160 52 43 240 382 438 218 142 88 107 18 0 0 0 0 10 7 7 9 33 41 43 63 18 49 155 200 202 168 5 0 0 3
0 0 0 6 84 159 32 70 39 50 101 230 372 426 701 717 680 509 503 343 111 63 44 117 132 227 327 102 72 47 7 0 0 0 0 0 0 1 7 19 38 46 33 55 74 64 140 22 86 44 54 35 17 25
2 1 33 73 92 44 31 124 246 219 265 362 403 309 430 812 574 346 179 6 33 27 6 2 19 46 50 48 42 16 1 0 0 0 0 1 1 3 11 24 25 38 50 60 82 231 180 98 28 75 92 51 64 38
19 3 4 2 54 14 32 90 198 259 312 401 400 337 524 574 341 159 60 0 4 8 23 8 10 40 41 27 0 0 0 0 0 0 0 0 0 7 16 18 18 24 28 42 59 68 86 69 74 47 38 25 42 48
15 8 30 26 39 36 67 66 113 256 138 154 393 588 657 53 0 38 98 26 13 40 44 36 64 79 2 0 0 0 0 0 0 0 0 0 0 9 19 18 19 18 26 32 25 27 35 45 42 46 57 18 5 43
0 1 3 0 26 50 54 61 93 85 134 170 334 297 61 5 24 79 20 26 30 29 29 17 4 0 0 0 0 0 0 0 0 0 0 0 0 5 17 20 13 9 18 22 22 23 21 21 24 30 28 38 40 43
8 3 2 2 3 2 0 21 43 38 35 207 227 246 154 142 161 142 23 0 2 0 0 0 0 0 0 0 0 0 0 0 0 0 0 0 0 0 1 3 0 0 2 2 0 20 21 20 25 25 27 31 36 38
2 7 0 0 0 0 0 0 5 19 513 251 299 298 271 388 355 55 0 0 0 0 0 0 0 0 0 0 0 0 0 0 0 0 0 0 0 0 0 0 0 1 5 0 0 0 0 0 5 14 18 25 30 29
6 2 0 0 0 0 0 0 0 149 421 290 579 397 318 344 195 6 0 0 0 0 0 0 0 0 0 0 0 0 0 0 0 0 0 0 0 0 0 0 1 2 5 9 2 0 0 0 0 1 12 27 29 38
1 0 0 0 0 0 0 0 12 133 262 426 575 567 251 278 128 51 0 0 0 0 0 0 0 0 0 0 0 0 0 0 0 0 0 0 0 0 0 0 0 0 3 3 4 11 13 10 11 15 15 16 10 10
0 0 0 0 1 2 137 208 497 537 576 592 537 454 438 313 212 147 70 3 0 0 1 3 1 0 0 3 1 1 0 0 0 0 0 0 0 0 0 0 0 0 1 0 1 5 2 0 7 9 13 19 21 19
0 0 0 0 0 0 194 451 513 562 680 569 544 402 358 218 156 306 153 116 66 4 12 0 16 1 1 0 6 0 0 0 0 0 0 0 0 0 0 0 0 0 0 2 3 3 1 0 4 3 5 13 20 9

GFSWCAN_con_mucape_078.txt.gz
CAPE
5 6 3 0 0 0 0 1 2 0 0 0 0 0 0 0 0 0 1 0 55 219 4 0 0 0 0 1 58 0 0 0 0 0 19 493 29 68 1 34 139 38 178 212 36 157 318 2 0 0 2 0 0 0
8 8 0 0 0 0 0 3 0 0 0 0 0 0 0 0 0 0 2 0 0 2 43 0 0 0 0 0 5 0 0 0 2 4 0 49 1 5 4 101 0 60 35 501 160 377 178 3 1 0 0 0 0 0
0 0 0 0 0 0 0 1 3 4 0 0 0 0 0 0 0 0 0 0 0 0 2 0 0 0 0 0 0 14 26 0 0 0 3 15 33 14 27 55 30 22 0 16 83 68 74 70 1 0 0 0 0 0
0 0 0 0 0 0 0 0 4 0 0 0 0 0 0 0 0 0 0 2 0 4 2 11 0 0 0 0 0 0 2 0 0 0 5 22 19 23 51 33 338 182 65 13 18 3 3 0 4 0 0 0 0 0
0 0 0 0 0 0 1 0 4 0 0 0 0 0 0 0 0 0 0 0 0 64 328 82 0 0 0 0 0 0 2 1 8 3 8 20 9 18 32 23 232 85 113 440 473 112 160 114 26 14 0 0 0 0
0 0 0 0 0 0 5 0 8 4 0 0 0 0 0 0 0 0 20 0 0 0 2 31 74 0 0 0 0 0 10 10 2 12 11 45 39 25 55 75 48 109 67 209 250 352 287 113 214 28 9 5 0 0
0 0 0 0 0 0 4 0 28 8 0 0 0 0 0 0 0 0 18 26 0 0 45 130 28 1 0 0 2 18 21 5 14 13 18 42 159 14 18 32 0 0 31 59 242 145 263 240 84 9 0 8 4 4
0 0 0 0 0 0 5 7 13 13 0 0 0 0 0 0 0 0 0 0 0 0 77 92 226 215 0 7 11 11 15 24 27 28 129 212 33 21 50 24 61 39 64 109 142 138 81 246 88 6 4 23 12 1
0 0 0 0 0 1 10 9 8 2 0 0 0 0 0 0 21 8 0 0 0 0 323 166 294 184 70 85 55 100 76 191 68 161 318 171 118 10 22 38 122 115 99 206 245 107 25 41 33 27 6 20 34 32
0 0 0 0 0 5 7 4 4 0 0 0 0 0 130 76 0 0 1 7 3 11 31 243 239 473 247 177 573 286 272 226 213 172 135 186 256 81 96 150 208 116 131 135 160 96 136 118 73 59 69 74 90 37
6 10 4 2 11 9 3 4 3 0 0 0 6 83 67 0 0 22 7 10 10 78 138 152 276 336 404 366 568 390 250 226 180 182 90 173 73 46 104 224 166 167 125 137 241 170 184 2 25 29 3 102 116 115
1 1 0 0 0 0 1 1 0 0 21 13 28 43 21 15 12 31 32 36 86 230 420 286 351 253 590 317 558 220 102 105 50 23 26 36 22 110 122 37 54 158 96 90 176 215 131 123 111 303 165 184 145 266
0 0 0 0 0 0 0 0 0 0 0 17 5 26 29 22 30 24 23 192 341 383 475 469 575 885 979 685 450 190 64 0 26 3 303 13 116 292 147 94 19 60 107 386 308 319 297 316 268 216 158 192 226 57
0 0 0 0 0 0 0 0 0 0 0 7 15 0 5 21 57 183 361 514 478 459 230 595 730 800 608 92 326 5 49 0 0 0 6 128 521 178 295 131 76 88 215 180 361 262 78 59 227 455 363 249 302 39
7 1 0 0 0 0 0 0 0 0 0 5 1 0 1 0 25 154 424 321 323 381 421 838 856 512 331 220 79 0 0 0 0 2 37 411 213 271 283 214 131 97 81 122 24 42 58 33 36 100 139 64 50 84
3 6 1 0 0 0 0 0 0 0 0 0 0 0 0 1 18 46 482 325 331 582 709 815 452 370 181 5 0 0 0 0 7 27 233 179 256 217 153 75 23 9 27 26 39 31 23 37 28 30 45 55 55 80
0 0 6 15 2 0 0 0 1 1 0 0 0 0 0 0 0 0 0 0 28 539 585 430 268 133 1 0 0 0 0 20 61 101 264 410 208 86 25 1 11 17 18 32 27 36 111 76 70 88 81 122 80 75
1 6 15 8 7 0 1 0 3 0 2 0 0 0 0 0 0 0 9 184 479 727 643 282 155 49 0 0 0 1 8 42 96 134 390 204 132 56 14 14 9 19 6 17 12 52 56 84 211 186 92 11 5 10
5 4 0 0 0 0 0 5 0 4 3 4 2 1 0 0 1 3 53 985 779 515 352 99 1 0 0 0 15 25 73 94 111 164 167 102 32 0 0 17 20 17 20 30 57 61 63 187 160 11 10 51 18 57
4 6 2 0 0 0 0 10 30 10 0 1 10 6 17 63 137 259 548 182 309 782 337 128 48 3 19 14 9 38 89 61 49 76 115 65 48 19 0 0 0 29 40 120 35 8 22 179 67 12 9 0 0 63
1 0 0 0 0 0 15 20 43 7 4 1 0 13 130 446 22 0 128 671 739 512 257 159 26 21 23 31 87 274 28 104 44 4 2 26 3 4 18 20 22 22 27 13 11 12 24 7 19 21 0 0 33 204
0 0 0 3 41 39 15 8 0 13 2 2 0 15 95 309 205 573 833 702 461 277 250 224 540 387 367 163 111 85 96 2 0 0 0 0 8 4 1 9 17 25 27 21 13 46 138 319 127 66 10 0 0 0
0 0 0 35 42 55 10 4 12 34 21 99 431 335 434 173 26 358 707 403 196 137 501 408 312 296 465 177 57 21 3 0 0 0 0 0 0 0 6 10 23 27 37 31 33 47 131 38 76 147 77 102 85 43
1 14 36 33 50 11 25 38 108 81 193 279 281 130 314 239 926 599 185 52 104 84 68 45 32 32 42 57 30 8 0 0 0 0 0 1 1 0 7 6 10 23 33 36 61 61 79 93 44 73 105 39 86 31
1 0 0 0 71 32 6 26 104 235 234 204 234 281 386 761 420 212 122 13 45 25 6 34 25 31 22 45 3 0 0 0 0 0 0 0 0 2 8 3 6 15 29 22 48 55 55 60 46 61 25 13 24 54
28 8 0 20 24 7 40 24 132 118 140 146 219 574 473 15 0 69 108 16 21 27 28 45 24 58 44 12 0 0 0 0 0 0 0 0 1 10 10 10 15 3 14 17 21 25 28 32 43 48 40 23 8 17
7 1 8 0 17 27 46 58 50 39 30 85 419 371 248 89 64 90 29 21 23 28 38 52 50 79 1 0 0 0 0 0 0 0 0 0 0 0 7 14 11 0 6 8 13 17 12 18 19 16 29 27 29 45
24 17 27 40 24 19 8 24 27 18 29 232 326 223 47 95 128 57 21 4 9 23 12 3 0 0 0 0 0 0 0 0 0 0 0 0 0 0 0 0 0 0 0 0 0 20 14 17 17 14 16 14 29 36
2 49 43 28 37 45 26 16 27 53 580 307 314 185 165 400 85 17 0 0 0 0 0 0 0 0 0 0 0 0 0 0 0 0 0 0 0 0 0 0 0 0 0 0 0 0 0 0 0 1 17 20 33 40
20 29 26 19 6 6 9 12 22 49 337 258 577 442 423 341 120 1 0 0 0 0 0 0 0 0 0 0 0 0 0 0 0 0 0 0 0 0 0 0 0 2 2 1 0 0 0 0 0 0 6 28 43 54
24 24 10 5 2 1 0 0 8 72 277 458 531 488 244 202 94 2 0 0 0 0 0 0 0 0 0 0 0 0 0 0 0 0 0 0 0 0 0 0 0 0 0 7 8 17 10 5 15 26 30 28 17 21
9 5 3 0 0 0 11 32 165 823 292 973 693 659 259 336 236 111 26 0 0 2 0 0 2 1 0 1 1 0 0 0 0 0 0 0 0 0 0 0 0 0 0 1 2 10 8 4 17 12 25 15 36 27
0 0 0 0 0 2 24 133 469 784 705 751 683 589 221 286 245 125 139 98 92 44 10 22 11 0 0 1 1 0 0 0 0 0 0 0 0 0 0 0 0 0 0 0 3 9 2 2 4 13 10 13 25 21

GFSWCAN_con_mucape_081.txt.gz
CAPE
0 0 1 15 0 0 0 0 0 0 0 0 0 0 0 0 0 0 0 3 0 72 64 0 0 0 0 9 16 0 0 4 0 0 134 331 81 160 0 0 2 0 1 20 0 3 14 0 0 0 0 6 20 10
0 0 0 0 0 0 0 0 0 0 0 0 0 0 0 0 0 0 0 72 12 0 29 0 0 0 0 0 0 0 0 0 0 0 0 74 9 0 0 7 0 0 18 0 57 32 0 0 0 3 0 0 2 18
0 0 0 0 0 0 0 0 0 0 0 0 0 0 0 0 0 0 0 0 0 0 1 0 0 0 0 0 0 0 0 0 0 0 0 4 2 1 2 5 7 1 0 0 1 118 46 6 7 2 0 0 0 0
0 0 0 0 0 0 0 0 0 2 0 0 0 0 0 0 0 0 0 0 0 2 15 0 0 0 0 0 0 0 0 0 0 0 0 0 1 1 15 9 20 22 42 1 0 0 0 2 0 0 0 0 0 0
0 0 0 0 0 0 0 0 0 4 0 0 0 0 0 0 0 0 0 0 0 0 111 67 1 0 0 0 0 0 0 0 1 2 0 0 0 0 0 0 0 2 44 16 22 124 202 86 17 0 0 0 0 0
0 0 0 0 0 0 0 0 0 0 0 0 0 0 0 0 0 0 5 0 0 0 0 175 1 0 0 0 0 0 0 0 0 0 0 1 0 0 0 42 0 0 30 3 34 75 133 141 69 140 1 0 0 0
0 0 0 0 0 0 0 1 0 1 1 0 0 0 0 0 0 0 19 0 0 0 5 142 91 3 0 0 0 0 0 1 0 7 5 4 11 4 5 1 2 0 0 19 0 27 136 123 176 78 92 1 0 0
0 0 0 0 0 0 0 0 0 9 5 0 0 0 0 0 0 0 0 0 5 0 38 48 263 61 4 0 0 10 6 0 5 7 14 37 6 2 1 0 0 0 0 9 48 72 56 103 82 67 87 92 0 0
0 0 0 0 0 0 0 2 5 6 1 0 0 0 0 0 4 40 0 0 0 0 156 213 324 244 76 27 105 37 1 22 173 1 27 29 12 0 0 0 0 20 18 8 30 24 83 88 95 43 56 40 5 0
0 1 0 0 0 8 4 13 1 11 5 0 0 0 73 55 0 0 2 34 9 14 11 133 408 352 209 112 166 207 118 121 50 44 122 7 12 1 21 25 33 273 123 0 5 33 35 16 18 29 33 9 6 26
0 0 0 0 2 11 12 3 2 7 0 0 17 98 106 11 8 84 17 14 38 12 82 26 0 146 203 137 286 263 156 148 34 106 36 54 0 9 29 102 171 72 36 0 17 90 117 65 66 23 0 1 9 15
0 0 0 0 0 1 0 0 2 0 22 20 22 59 165 102 90 18 55 85 49 89 480 227 295 440 733 440 162 109 52 50 36 16 0 0 4 37 189 78 44 73 31 14 120 205 168 142 29 6 20 0 1 42
0 0 0 0 0 0 0 0 0 0 0 5 21 45 63 58 7 7 12 35 131 303 468 415 802 876 592 172 42 58 0 2 0 0 0 0 16 30 60 46 114 8 50 131 93 36 83 221 152 80 36 121 109 106
17 0 0 0 0 0 0 0 0 0 0 8 35 0 14 17 26 57 73 377 260 232 50 273 123 457 360 125 173 0 0 0 0 0 1 42 4 32 17 28 307 124 114 54 53 122 47 36 21 28 245 67 92 96
11 19 0 0 0 0 0 0 0 0 0 13 13 0 1 4 35 84 227 186 90 228 89 43 45 257 139 66 0 2 0 0 0 2 54 74 57 100 104 88 14 10 2 4 2 3 1 0 0 0 1 5 17 23
0 3 2 4 1 0 0 0 0 0 0 0 0 0 1 7 0 67 148 544 107 40 140 81 213 138 68 2 0 0 0 0 11 69 90 108 136 112 66 3 2 3 0 0 0 0 2 5 5 12 18 24 19 14
3 7 0 8 9 1 0 0 0 0 0 0 0 0 0 0 0 0 13 33 652 611 837 574 124 73 1 0 0 0 0 24 24 108 89 103 104 93 12 5 0 0 0 0 0 2 2 23 50 30 14 1 0 0
0 5 12 15 11 12 7 0 3 22 0 0 0 0 0 1 87 38 73 355 1010 916 820 265 437 51 3 0 0 0 1 52 52 84 95 166 71 20 0 0 0 0 0 0 17 23 28 28 0 0 0 0 0 0
0 6 15 3 7 7 4 0 6 0 0 4 43 57 37 67 267 443 454 474 733 891 663 148 79 8 0 0 0 19 69 56 43 107 99 106 101 1 0 14 28 49 79 25 9 27 16 0 0 0 0 0 3 0
16 11 9 1 0 0 0 4 93 39 0 27 6 28 172 201 182 283 140 20 42 47 92 100 141 76 64 0 0 110 57 181 59 78 79 18 3 12 0 1 8 8 3 0 0 1 0 0 0 0 0 0 23 21
5 9 8 2 2 0 0 22 93 57 73 41 31 32 76 473 219 36 95 0 0 0 128 173 246 162 122 108 323 308 220 96 4 1 41 15 7 41 31 44 17 2 0 0 0 0 0 0 0 0 0 0 7 54
0 0 0 3 35 49 13 10 0 43 36 31 15 43 80 507 495 31 252 133 234 251 556 439 276 470 379 249 307 48 72 0 0 0 0 0 6 2 0 1 0 0 0 0 0 11 30 56 54 62 38 6 3 1
2 1 0 21 49 14 0 49 3 39 24 54 397 263 420 350 318 109 259 331 616 763 592 578 348 265 215 200 109 102 34 1 0 0 0 0 0 1 2 2 0 0 0 6 10 48 80 48 31 75 77 29 61 19
0 0 33 42 11 0 0 89 81 70 102 50 248 123 11 323 211 79 91 161 116 316 169 197 32 33 79 84 9 2 0 8 0 0 1 0 0 3 2 0 1 0 3 22 24 37 54 66 46 23 44 46 30 64
0 0 0 0 14 54 7 0 15 88 111 122 172 56 24 515 313 239 121 45 28 52 29 44 13 32 14 19 6 0 0 0 0 0 6 0 0 0 0 0 0 1 3 11 24 35 37 28 37 46 29 4 6 47
0 0 0 1 2 0 9 37 62 106 129 111 189 470 730 78 11 113 53 28 30 10 24 37 35 36 42 17 0 0 0 0 3 0 0 0 0 2 1 0 0 0 0 1 7 9 11 21 22 38 14 6 4 19
14 3 3 19 2 8 40 84 18 53 70 70 641 407 250 84 44 8 9 0 1 13 17 40 17 27 15 0 0 0 0 0 0 0 0 0 0 3 1 5 0 0 0 0 2 3 1 9 13 12 7 9 20 22
1 17 3 42 42 24 3 3 5 11 31 562 512 243 17 19 109 181 45 6 11 26 26 42 43 55 0 0 0 0 0 0 0 0 0 0 0 0 0 0 0 0 0 0 0 0 0 6 14 9 4 2 10 14
0 5 13 23 51 23 35 32 29 31 547 368 680 463 83 208 284 36 36 0 11 18 8 0 0 0 0 0 0 0 0 0 0 0 0 0 0 0 0 0 0 0 0 0 0 0 0 0 0 0 6 18 27 24
0 0 10 26 32 7 3 1 18 154 378 552 590 543 223 262 330 3 0 0 0 0 0 0 0 0 0 0 0 0 0 0 0 0 0 0 0 0 0 0 0 0 0 0 0 0 0 0 0 0 1 10 28 40
7 5 11 21 7 6 5 6 15 93 569 341 176 84 198 44 29 10 0 0 0 0 0 0 0 0 0 0 0 0 0 0 0 0 0 0 0 0 0 0 0 0 0 0 0 0 0 0 0 5 6 34 2 6
0 9 30 24 5 8 10 3 26 1053 536 368 9 0 0 10 35 154 81 7 0 0 0 0 0 0 0 0 0 0 0 0 0 0 0 0 0 0 0 0 0 0 0 0 0 10 1 9 31 10 31 22 21 16
16 7 12 8 9 12 20 263 561 723 585 273 84 13 53 55 50 19 97 82 53 20 13 7 8 0 17 15 10 0 0 0 0 0 0 0 0 0 0 0 0 0 0 0 0 7 5 1 0 26 14 18 28 24

GFSWCAN_con_mucape_084.txt.gz
CAPE
0 0 0 0 0 0 0 0 0 0 0 0 0 0 0 0 0 0 0 0 0 0 0 0 0 0 0 0 0 0 0 0 0 0 5 0 0 0 0 0 0 0 0 0 0 0 0 0 0 0 0 0 36 96
0 0 0 0 0 0 0 0 0 0 0 0 0 0 0 0 0 0 0 0 0 0 0 0 0 0 0 0 0 0 0 0 0 0 0 0 0 0 0 0 0 0 0 0 0 0 0 0 0 0 0 1 40 54
0 0 0 0 0 0 0 0 0 0 0 0 1 0 0 0 0 0 0 0 0 0 0 0 0 0 0 0 0 0 0 0 0 0 0 0 0 0 0 0 0 0 0 0 0 0 0 0 0 0 0 5 0 22
0 0 0 0 0 0 0 0 0 0 0 0 0 0 0 0 0 0 0 0 0 0 0 0 0 0 0 0 0 0 0 0 0 0 0 0 0 0 0 0 0 0 0 0 0 0 0 0 0 0 2 21 20 4
0 0 0 0 0 0 0 0 0 0 0 0 0 0 0 0 0 0 0 0 0 0 3 13 0 0 0 0 0 0 0 0 0 0 0 0 0 0 0 0 0 0 0 0 0 0 0 0 0 0 0 1 0 0
0 0 0 0 0 0 0 0 0 0 0 0 0 0 0 0 0 0 0 0 0 0 0 6 0 0 0 0 0 0 0 0 0 0 0 0 0 0 0 0 0 0 0 0 0 0 0 0 10 4 0 0 0 0
0 0 0 0 0 0 0 0 1 0 0 0 0 0 0 0 0 0 0 0 0 0 0 16 30 2 1 0 0 0 0 0 0 0 0 0 0 0 0 0 0 0 0 0 0 0 0 0 1 32 25 7 0 4
0 0 0 0 0 0 0 0 2 3 0 0 0 0 0 0 0 0 0 0 0 0 0 2 24 0 0 0 0 0 0 0 0 0 0 0 0 0 0 0 0 0 0 0 0 0 0 0 0 18 17 15 31 7
0 0 0 0 0 0 0 0 0 0 5 10 0 0 0 0 2 6 0 0 0 0 47 74 23 95 61 2 0 0 0 0 0 0 0 0 0 0 0 0 0 0 0 0 0 4 6 2 0 5 1 0 63 51
0 0 0 0 0 0 0 0 1 0 4 1 2 0 17 20 18 0 0 0 0 0 0 0 113 182 43 43 2 1 7 9 0 0 0 5 0 0 0 0 0 0 1 10 8 0 0 0 7 11 2 21 33 66
0 0 0 0 9 10 13 11 4 6 10 7 3 14 44 61 11 5 0 0 0 0 0 0 0 104 107 104 28 15 10 13 0 0 0 0 0 0 0 0 1 11 34 1 0 1 0 7 13 18 7 3 8 8
0 0 0 0 6 4 0 8 9 3 0 4 47 47 36 33 37 8 1 7 4 5 135 135 30 0 173 87 66 30 11 1 0 15 0 5 0 0 1 5 52 33 9 6 2 11 18 27 43 27 19 15 0 2
4 0 0 0 0 0 1 0 0 0 0 1 10 5 84 14 17 0 0 5 52 80 209 329 224 144 145 59 19 22 0 0 5 8 3 0 0 0 0 12 3 0 14 19 6 9 21 30 65 77 54 2 3 0
17 13 0 0 0 0 0 0 0 0 0 1 22 0 0 2 12 7 17 121 82 188 147 89 21 94 43 23 25 17 0 0 0 0 0 0 6 7 13 2 0 3 0 0 1 6 4 13 59 126 124 85 61 54
4 12 9 0 0 0 0 0 0 0 0 0 2 0 0 0 56 23 13 32 49 55 32 31 29 17 11 18 8 0 6 2 0 0 0 0 4 13 3 0 0 4 21 30 16 10 6 10 13 23 17 9 5 2
5 2 14 9 9 0 0 0 0 0 0 0 0 0 0 0 0 0 21 75 25 11 0 1 0 18 23 0 10 10 0 0 0 0 3 6 12 28 5 1 3 2 10 7 2 1 1 5 7 10 13 13 10 9
29 16 12 2 10 11 3 0 0 0 0 0 0 0 0 0 0 0 1 63 55 30 79 37 15 9 1 0 0 0 0 0 0 12 12 10 4 0 0 0 10 8 0 0 0 0 0 0 0 0 0 0 0 0
19 3 6 4 4 12 7 16 5 16 0 0 0 0 0 0 0 0 339 141 138 134 61 62 14 0 0 0 0 0 0 0 2 7 15 10 0 0 0 0 0 0 0 0 0 0 0 0 0 0 0 0 0 0
9 0 8 8 5 5 0 1 6 0 0 0 0 0 0 2 188 170 267 229 103 121 83 34 26 0 4 0 0 0 0 0 0 7 14 4 0 0 0 0 0 2 2 0 0 0 0 0 0 0 0 0 0 0
11 10 10 12 9 0 0 0 12 0 0 2 0 0 0 2 120 27 23 25 25 28 9 0 2 1 1 2 0 0 0 1 1 1 0 0 1 0 0 0 0 0 0 0 0 0 0 0 0 0 0 0 0 0
8 6 11 13 7 0 0 0 22 10 9 6 0 8 11 43 33 27 13 6 4 0 0 0 5 14 8 1 0 0 0 1 0 0 0 0 0 0 0 0 0 0 0 0 0 0 0 0 0 0 0 0 3 8
30 0 0 0 0 7 0 0 0 0 0 0 0 0 0 120 66 31 19 1 0 0 0 1 0 1 1 0 0 0 0 2 6 30 20 7 0 0 0 0 0 0 0 0 0 0 0 0 0 0 0 0 5 1
0 0 0 4 40 21 0 0 3 0 11 19 62 53 44 23 16 1 0 21 60 33 4 0 0 2 0 0 0 0 0 0 0 0 0 1 0 0 0 0 0 0 0 0 0 11 23 23 10 18 32 9 12 15
6 15 27 13 6 0 0 14 42 26 28 9 16 46 0 0 14 0 0 8 3 3 1 0 0 0 0 0 5 7 8 0 0 0 0 0 0 0 0 0 0 0 0 0 0 4 15 26 26 17 13 10 20 21
0 0 0 0 5 16 10 1 0 0 34 29 33 24 25 0 10 28 16 14 5 17 8 0 0 0 0 0 1 0 0 0 0 0 0 0 0 0 0 0 0 0 0 0 0 4 11 19 25 18 4 0 2 8
0 0 0 0 0 0 17 44 53 38 11 30 48 61 96 22 0 12 0 1 5 16 10 7 0 0 1 0 0 0 0 0 0 0 0 0 0 0 0 0 0 0 0 0 0 0 1 0 1 0 1 1 0 3
0 0 0 0 0 11 15 38 14 6 14 52 144 48 27 30 28 0 0 0 0 0 0 2 7 8 13 9 0 0 0 0 0 0 0 0 0 0 0 0 0 0 0 0 0 0 0 0 0 0 0 0 0 3
0 0 0 0 5 1 0 1 1 9 24 250 89 83 27 7 6 8 0 0 0 0 0 9 24 31 3 0 0 0 0 0 0 0 0 0 0 0 0 0 0 0 0 0 0 0 0 0 0 0 0 0 0 3
0 0 0 0 2 9 11 14 0 6 12 62 158 54 19 24 32 3 0 0 0 0 1 9 28 22 15 3 0 0 0 0 0 0 0 0 0 0 0 0 0 0 0 0 0 0 0 0 0 0 0 0 0 1
0 0 0 0 5 0 6 4 0 0 41 240 192 84 60 59 41 23 30 3 3 0 0 0 0 0 0 0 0 0 0 0 0 0 0 0 0 0 0 0 0 0 0 0 0 0 0 0 0 0 0 0 0 0
0 0 0 0 2 0 0 2 1 318 341 210 99 31 7 9 1 1 19 19 1 0 0 0 0 0 0 0 0 0 0 0 0 0 0 0 0 0 0 0 0 0 0 0 0 0 0 0 0 0 0 0 0 13
0 0 1 3 0 0 0 6 2 370 219 79 63 34 31 21 20 3 27 18 0 0 0 0 0 0 0 0 0 0 0 0 0 0 0 0 0 0 0 0 0 0 0 0 0 0 0 0 0 0 0 0 1 4
0 0 0 1 0 0 0 2 365 248 182 65 58 43 11 0 0 0 37 28 16 48 51 14 2 0 0 0 0 0 0 0 0 0 0 0 0 0 0 0 0 0 0 0 0 0 0 0 0 0 0 0 0 0

GFSWCAN_con_mucape_087.txt.gz
CAPE
0 0 0 0 0 0 0 0 0 0 0 0 0 0 0 0 0 0 0 0 0 0 0 0 0 0 0 0 0 0 0 0 0 0 0 0 0 0 0 0 0 0 0 0 0 0 0 0 0 0 0 0 6 88
0 0 0 0 0 0 0 0 0 0 0 0 0 0 0 0 0 0 0 0 0 0 0 0 0 0 0 0 0 0 0 0 0 0 0 0 0 0 0 0 0 0 0 0 0 0 0 0 0 0 0 0 0 21
0 0 0 0 0 0 0 0 0 0 0 0 0 0 0 0 0 0 0 0 0 0 0 0 0 0 0 0 0 0 0 0 0 0 0 0 0 0 0 0 0 0 0 0 0 0 0 0 0 0 0 0 0 31
0 0 0 0 0 0 0 0 0 0 0 0 0 7 0 0 0 0 0 0 0 0 0 0 0 0 0 0 0 0 0 0 0 0 0 0 0 0 0 0 0 0 0 0 0 0 0 0 0 0 0 0 0 0
0 0 0 0 0 0 0 0 0 0 0 0 0 0 0 0 0 0 0 0 0 0 0 0 0 0 0 0 0 0 0 0 0 0 0 0 0 0 0 0 0 0 0 0 0 0 0 0 0 0 0 0 0 0
0 0 0 0 0 0 0 0 0 0 0 0 0 0 0 0 0 0 0 0 0 0 0 0 0 0 0 0 0 0 0 0 0 0 0 0 0 0 0 0 0 0 0 0 0 0 0 0 0 0 0 0 0 0
0 0 0 0 0 0 0 0 0 0 0 0 0 0 0 0 0 0 0 0 0 0 0 0 4 0 0 0 0 0 0 0 0 0 0 0 0 0 0 0 0 0 0 0 0 0 0 0 0 0 5 9 7 2
0 0 0 0 0 0 0 0 2 2 0 0 0 0 0 0 0 0 0 0 0 0 0 1 15 0 0 0 0 0 0 0 0 0 0 0 0 0 0 0 0 0 0 0 0 0 0 0 0 0 0 0 0 3
0 0 3 0 0 0 0 0 2 1 3 0 0 0 0 0 0 4 0 0 0 0 6 18 16 0 0 0 0 0 0 0 0 0 0 0 0 0 0 0 0 0 0 0 0 0 0 0 0 0 0 0 0 0
0 0 0 0 0 0 0 0 0 0 6 7 13 17 2 2 24 1 0 0 0 0 0 0 55 189 32 22 0 0 2 5 0 0 0 0 0 0 0 0 0 0 0 0 0 0 0 0 0 0 0 0 0 0
0 0 0 4 7 10 17 13 6 9 2 4 9 8 63 43 6 1 1 0 0 0 0 0 0 64 29 36 6 18 24 10 0 0 4 0 0 0 0 0 0 0 0 0 0 0 0 0 0 0 0 0 0 0
0 0 0 1 16 15 10 21 9 2 5 7 16 66 19 20 2 9 0 0 0 0 10 75 18 0 57 56 58 24 21 11 0 6 35 0 0 0 0 0 0 0 0 0 0 0 0 0 2 16 21 20 16 7
18 3 0 0 1 9 6 3 1 0 1 26 41 36 68 8 2 0 0 1 6 22 158 212 120 38 15 39 33 20 2 0 0 0 0 0 1 0 0 0 4 0 0 0 0 0 7 16 16 36 44 48 23 4
15 34 4 0 0 0 0 0 0 0 0 0 27 0 0 4 2 0 35 30 73 101 145 114 43 94 9 17 30 16 0 0 0 1 0 0 0 0 0 0 0 0 0 0 0 11 18 8 7 34 59 58 58 52
17 7 16 0 0 0 0 0 0 0 0 0 2 2 0 3 41 24 16 6 32 109 79 34 23 24 9 6 0 0 0 0 0 0 0 0 0 0 2 2 3 1 1 5 5 14 4 0 2 20 16 19 16 18
5 3 2 20 3 3 0 0 0 0 0 0 0 0 0 2 6 0 0 4 19 29 5 3 0 2 6 0 0 0 0 0 0 0 0 0 0 0 0 0 0 3 3 0 0 0 0 0 0 0 1 0 0 0
15 6 14 15 31 21 9 0 0 0 0 0 0 0 0 0 0 0 0 2 7 6 0 0 5 16 2 0 0 0 0 0 0 0 0 0 0 0 0 0 0 0 0 0 0 0 0 0 0 0 0 0 0 0
19 20 27 22 10 18 16 11 6 0 0 0 0 0 0 0 0 0 105 140 15 1 2 1 0 0 0 0 0 0 0 0 0 0 0 0 0 0 0 0 0 0 0 0 0 0 0 0 0 0 0 0 0 0
17 14 4 9 2 3 5 0 0 0 0 0 0 0 0 0 0 48 117 89 72 61 34 5 4 0 0 1 0 0 0 0 0 0 0 0 0 0 0 0 0 0 0 1 0 0 0 0 0 0 0 0 0 0
25 12 11 16 16 21 0 0 13 0 0 0 0 0 0 0 7 116 134 114 82 87 41 26 6 12 9 0 0 0 0 0 0 0 0 0 0 0 0 0 0 0 2 2 0 0 0 0 0 0 0 0 0 0
12 15 12 2 4 3 0 0 0 0 0 0 0 0 0 53 50 44 41 29 26 12 22 20 10 4 0 3 0 0 0 0 0 0 3 0 0 0 0 0 0 0 0 0 0 0 0 0 0 0 0 0 0 3
6 5 11 12 3 0 0 0 0 0 0 0 0 0 0 11 25 22 19 18 9 25 16 0 0 0 0 1 0 0 0 0 0 0 0 0 0 0 0 0 0 0 0 0 0 0 0 0 6 2 6 7 0 4
4 4 0 0 26 28 5 0 6 8 0 1 11 26 38 23 22 10 9 0 19 19 14 6 1 0 0 0 0 0 0 0 0 0 0 0 0 0 0 0 0 0 0 0 0 0 0 6 6 2 13 7 13 14
2 8 0 7 7 4 2 1 14 12 19 1 2 28 7 0 20 0 0 0 0 1 0 0 0 0 0 0 0 1 8 8 2 0 0 5 0 0 1 0 0 0 0 0 0 0 5 19 19 6 4 3 4 3
0 0 0 1 10 13 6 8 0 6 8 26 39 2 22 4 0 8 7 2 0 0 0 0 0 0 0 0 0 7 5 0 0 0 0 0 0 0 0 0 0 0 0 0 0 0 0 4 10 14 3 0 0 5
0 1 0 0 0 0 16 37 32 25 5 22 12 17 17 0 0 2 0 0 0 0 1 0 0 0 0 0 2 0 0 0 0 0 0 0 0 0 0 0 0 0 0 0 0 0 0 0 0 0 0 0 0 0
0 0 0 0 0 9 24 9 12 3 2 9 31 23 30 28 31 21 0 0 0 0 2 2 0 0 0 0 0 0 0 0 0 0 0 0 0 0 0 0 0 0 0 0 0 0 0 0 0 0 0 0 0 0
0 0 0 0 0 0 2 9 0 0 11 58 21 3 21 18 2 19 0 0 0 0 0 0 0 0 0 3 4 3 0 0 0 0 0 0 0 0 0 0 0 0 0 0 0 0 0 0 0 0 0 0 0 0
0 0 0 0 0 6 1 2 0 3 11 69 34 12 27 14 9 16 0 0 0 0 0 0 0 5 16 26 15 3 0 0 0 0 0 0 0 0 0 0 0 0 0 0 0 0 0 0 0 0 0 0 0 0
0 0 0 0 0 0 3 5 15 9 2 14 29 43 59 32 36 20 7 0 0 0 0 0 0 12 25 4 1 0 0 0 0 0 0 0 0 0 0 0 0 0 0 0 0 0 0 0 0 0 0 0 0 0
0 0 0 0 0 0 1 10 6 27 176 234 121 54 33 24 15 11 6 9 2 0 0 0 0 4 1 0 0 0 0 0 0 0 0 0 0 0 0 0 0 0 0 0 0 0 0 0 0 0 0 0 0 0
0 0 0 0 0 8 24 22 21 35 37 92 53 59 46 41 40 21 16 1 10 46 33 0 0 0 0 0 0 0 0 0 0 0 0 0 0 0 0 0 0 0 0 0 0 0 0 0 0 0 0 0 0 0
0 0 0 0 3 4 5 29 116 211 143 62 33 36 16 18 17 0 4 0 1 0 4 6 33 29 0 0 0 0 0 0 0 0 0 0 0 0 0 0 0 0 0 0 0 0 0 0 0 0 0 0 0 0

GFSWCAN_con_mucape_090.txt.gz
CAPE
0 0 0 0 0 0 0 0 0 0 0 0 0 0 0 0 0 0 0 0 0 0 0 0 0 0 0 0 0 0 0 0 0 0 0 0 0 0 0 0 0 0 0 0 0 0 0 0 0 0 0 0 1 59
0 0 0 0 0 0 0 0 0 0 0 0 0 0 0 0 0 0 0 0 0 0 0 0 0 0 0 0 0 0 0 0 0 0 0 0 0 0 0 0 0 0 0 0 0 0 0 0 0 0 0 0 0 3
0 0 0 0 0 0 0 0 0 0 0 0 0 0 0 0 0 0 0 0 0 0 0 0 0 0 0 0 0 0 0 0 0 0 0 0 0 0 0 0 0 0 0 0 0 0 0 0 0 0 0 0 0 0
0 0 0 0 0 0 0 0 0 0 0 0 0 0 0 0 0 0 0 0 0 0 0 0 0 0 0 0 0 0 0 0 0 0 0 0 0 0 0 0 0 0 0 0 0 0 0 0 0 0 0 0 0 0
0 0 0 0 0 0 0 0 0 0 0 0 0 0 1 0 0 0 0 0 0 0 0 0 0 0 0 0 0 0 0 0 0 0 0 0 0 0 0 0 0 0 0 0 0 0 0 0 0 0 0 0 0 0
0 0 0 0 0 0 0 0 0 0 0 0 0 0 0 0 0 0 0 0 0 0 0 0 0 0 0 0 0 0 0 0 0 0 0 0 0 0 0 0 0 0 0 0 0 0 0 0 0 0 0 0 0 0
0 0 0 0 0 0 0 0 0 1 1 0 0 0 0 0 0 0 0 0 0 0 0 0 0 0 0 0 0 0 0 0 0 0 0 0 0 0 0 0 0 0 0 0 0 0 0 0 0 0 0 0 0 0
0 0 0 0 0 0 0 0 0 2 2 0 0 0 0 0 0 0 0 0 0 0 0 0 0 0 0 0 0 0 0 0 0 0 0 0 0 0 0 0 0 0 0 0 0 0 0 0 0 0 0 0 0 0
0 0 0 2 0 0 0 0 0 3 8 0 0 0 0 0 0 0 0 0 0 0 0 0 0 0 0 0 0 0 0 0 0 0 0 0 0 0 0 0 0 0 0 0 0 0 0 0 0 0 0 0 0 0
0 0 0 7 3 10 4 0 2 2 1 0 1 0 0 0 0 0 0 0 0 0 0 0 17 104 0 0 0 0 2 5 0 0 0 0 0 0 0 0 0 0 0 0 0 0 0 0 0 0 0 0 0 0
0 0 0 4 15 18 14 0 0 4 1 8 3 22 35 29 0 0 0 0 0 0 0 0 0 79 12 27 8 5 18 17 7 0 1 0 0 0 0 0 0 0 0 0 0 0 0 0 0 0 0 0 0 0
17 2 0 4 9 10 12 15 6 14 8 7 0 26 30 19 0 0 0 0 0 0 0 1 0 5 60 40 41 33 37 25 7 1 18 0 0 0 0 0 0 0 0 0 0 0 0 0 0 0 5 13 16 20
4 26 0 0 17 15 14 23 18 11 11 0 1 4 0 0 0 0 0 0 1 3 33 119 30 16 41 79 28 42 36 6 0 0 0 0 0 0 0 0 0 0 0 0 0 0 0 5 10 14 24 17 14 20
5 15 3 0 0 0 1 6 1 0 0 0 0 0 0 0 0 0 0 7 54 107 157 168 71 71 14 9 21 17 1 0 0 0 0 0 0 0 0 0 0 0 0 0 0 0 3 11 12 18 22 30 32 51
11 7 5 0 0 0 0 0 0 0 0 0 13 0 0 0 4 35 25 18 27 97 79 64 53 37 20 16 9 7 0 0 0 0 0 0 0 0 0 0 0 0 2 1 0 0 0 0 0 0 0 0 0 0
5 8 5 19 12 0 0 0 0 0 0 0 0 0 0 0 5 12 9 5 11 36 40 29 14 9 10 1 0 0 0 0 0 0 0 0 0 0 0 0 0 0 0 0 0 0 0 0 0 0 0 0 0 0
16 18 22 8 9 24 21 1 0 0 0 0 0 0 0 0 0 0 0 2 12 24 34 6 0 0 0 0 0 0 0 0 0 0 0 0 0 0 0 0 0 0 0 0 0 0 0 0 0 0 0 0 0 0
8 20 26 18 38 25 15 0 7 0 0 0 0 0 0 0 0 0 0 24 57 27 27 36 15 6 0 0 0 0 0 0 0 1 0 0 0 0 0 0 0 0 0 0 0 0 0 0 0 0 0 0 0 0
22 20 6 3 4 21 24 13 3 0 0 0 0 0 0 0 0 0 0 24 58 44 16 17 22 0 0 0 0 0 0 1 4 0 0 0 0 0 0 0 0 0 0 0 0 0 0 0 0 0 0 0 0 0
14 11 5 6 13 18 1 6 1 0 0 0 0 0 0 0 0 0 31 87 60 73 44 29 1 11 0 9 11 7 0 0 0 0 0 0 0 0 0 0 0 0 0 0 0 0 0 0 0 0 0 0 0 0
15 4 17 27 16 10 1 0 0 0 0 0 0 0 0 1 41 49 63 67 55 27 16 26 27 21 16 6 1 0 0 0 0 0 0 0 0 0 0 0 0 0 0 0 0 0 0 0 0 0 0 0 0 0
7 10 0 1 0 0 0 0 0 0 0 0 0 0 0 0 1 3 14 12 1 0 0 8 18 13 3 1 0 0 0 0 0 0 0 0 0 0 0 0 0 0 0 0 0 0 0 0 0 0 0 9 2 1
7 3 0 3 0 0 0 0 0 0 0 0 5 7 10 23 31 6 14 1 0 0 1 10 22 23 19 4 0 0 0 0 0 6 4 0 0 0 0 0 0 0 0 0 0 0 0 0 1 0 0 0 0 4
1 2 1 0 0 0 7 9 15 15 16 2 10 25 23 18 11 3 9 0 0 1 5 14 8 8 10 0 0 0 0 3 8 8 2 0 0 0 0 0 0 0 0 0 0 0 0 0 0 0 1 2 1 8
0 0 0 1 20 28 20 11 3 30 18 37 34 0 10 10 26 4 2 20 10 0 0 0 0 0 0 0 0 1 8 9 3 0 0 0 0 0 0 0 0 0 0 0 0 0 0 0 0 2 4 0 0 0
0 0 0 0 0 0 1 41 47 30 18 2 41 36 33 41 18 7 20 2 0 0 0 0 0 0 0 0 0 1 2 0 0 0 0 0 0 0 0 0 0 0 0 0 0 0 0 0 0 0 0 0 0 0
2 0 0 0 0 5 22 18 19 8 2 10 0 1 27 34 23 33 16 0 0 0 0 0 0 0 0 0 5 0 0 0 0 0 0 0 0 0 0 0 0 0 0 0 0 0 0 0 0 0 0 0 0 0
0 0 0 0 0 4 2 1 0 6 6 10 25 1 0 13 6 14 11 0 0 0 0 2 0 0 0 17 6 0 0 0 0 0 0 0 0 0 0 0 0 0 0 0 0 0 0 0 0 0 0 0 0 0
0 0 0 0 0 0 0 0 1 3 3 36 28 8 6 20 20 27 27 9 0 0 0 0 0 0 0 3 0 0 0 0 0 0 0 0 0 0 0 0 0 0 0 0 0 0 0 0 0 0 0 0 0 0
0 0 0 0 0 0 0 0 9 17 6 1 4 11 10 12 22 25 16 5 14 9 2 0 0 0 7 18 19 25 37 21 0 0 0 0 0 0 0 0 0 0 0 0 0 0 0 0 0 0 0 0 0 0
0 0 0 0 0 0 1 7 8 8 8 60 89 73 46 23 6 8 15 29 33 20 4 6 65 66 61 73 63 18 3 0 0 0 0 0 0 0 0 0 0 0 0 0 0 0 0 0 0 0 0 0 0 0
0 0 0 0 0 6 6 7 14 16 46 62 60 32 35 32 31 22 38 36 39 7 0 0 48 83 97 60 9 0 0 0 0 0 0 0 0 0 0 0 0 0 0 0 0 0 0 0 0 0 0 0 0 0
0 0 0 0 3 14 21 42 49 124 97 85 127 67 46 28 12 0 0 0 19 0 0 4 38 34 3 0 0 0 0 0 0 0 0 0 0 0 0 0 0 0 0 0 0 0 0 0 0 0 0 0 0 0

GFSWCAN_con_mucape_093.txt.gz
CAPE
0 0 0 0 0 0 0 0 0 0 0 0 0 0 0 0 0 0 0 0 0 0 0 0 0 0 0 0 0 0 0 0 0 3 1 3 99 0 0 0 1 0 0 0 0 0 0 0 0 0 0 0 0 8
0 0 0 0 0 0 0 0 0 0 0 0 0 0 0 0 0 0 0 0 0 0 0 0 0 0 0 0 0 0 0 0 0 0 0 0 0 0 0 0 0 18 0 190 0 0 0 0 0 0 0 0 0 0
0 0 0 0 0 0 0 0 0 0 0 0 0 0 0 0 0 0 0 0 0 0 0 0 0 0 0 0 0 0 0 0 0 0 0 0 0 0 0 0 0 0 0 7 1 0 0 0 0 0 0 0 0 0
0 0 0 0 0 0 0 0 0 0 0 0 0 0 0 0 0 0 0 0 0 0 0 0 0 0 0 0 0 0 0 0 0 0 0 0 0 0 0 0 0 0 0 0 0 0 0 0 0 0 0 0 0 0
0 0 0 0 0 0 0 0 0 0 0 0 0 0 0 0 0 0 0 0 0 0 0 0 0 0 0 0 0 0 0 0 0 0 0 0 0 0 0 0 0 0 0 0 9 0 2 0 0 0 0 0 0 0
0 0 0 0 2 0 0 0 0 0 0 0 0 0 0 0 0 0 0 0 0 0 0 0 0 0 0 0 0 0 0 0 0 0 0 0 0 0 0 0 0 0 0 0 0 0 0 0 0 0 0 0 0 0
0 0 0 0 2 2 0 0 0 0 0 0 0 0 0 0 0 0 0 0 0 0 0 0 0 0 0 0 0 0 0 0 0 0 0 0 0 0 0 0 0 0 0 0 0 0 0 0 0 0 0 0 0 0
0 0 0 3 11 0 0 0 0 0 3 0 0 0 0 0 0 0 0 0 0 0 0 0 0 0 0 0 0 0 0 0 0 0 0 0 0 0 0 0 0 0 0 0 0 0 0 0 0 0 0 0 0 0
1 0 0 11 13 1 0 0 0 0 4 0 0 0 0 0 0 0 0 0 0 0 0 1 40 0 0 0 0 0 0 0 0 0 0 0 0 0 0 0 0 0 0 0 0 0 0 0 0 0 0 0 0 0
0 8 6 1 13 13 3 2 0 7 13 3 5 3 1 0 0 0 0 0 0 0 0 10 0 85 0 0 0 10 0 9 58 0 0 1 0 0 0 0 0 0 0 0 0 0 0 0 0 0 0 0 0 0
5 8 4 0 5 13 5 3 0 13 3 5 7 38 3 51 0 0 0 0 0 0 0 0 16 43 0 48 88 46 77 3 141 55 26 23 0 0 0 0 0 0 0 0 0 0 0 0 0 0 0 0 2 10
9 2 17 0 2 6 2 2 0 16 5 6 15 45 34 27 0 0 0 0 0 0 0 7 5 59 48 11 303 50 114 15 49 1 41 2 0 0 0 0 0 0 0 0 0 3 4 9 9 10 6 16 22 23
0 4 14 0 13 4 5 2 3 10 19 3 6 0 0 0 0 0 0 0 0 0 1 16 38 91 67 71 56 74 60 111 1 18 10 0 0 0 0 0 0 0 0 0 0 2 8 7 4 15 32 35 34 29
4 0 12 0 1 8 5 3 4 8 7 0 0 0 0 0 0 0 0 0 1 40 71 122 63 199 13 119 49 114 3 13 23 0 0 0 0 0 0 0 0 0 0 2 5 5 0 0 0 0 0 0 0 0
12 6 3 9 0 0 0 0 1 0 0 0 0 0 0 0 0 0 5 55 89 120 151 133 97 63 31 50 27 8 1 7 12 1 0 0 0 0 0 0 0 0 0 0 3 2 1 0 0 0 0 0 0 0
7 12 15 2 0 0 0 0 0 0 0 0 0 6 0 0 2 42 22 32 56 120 95 88 81 125 31 22 1 0 0 0 0 0 0 0 0 0 0 0 0 0 1 0 0 0 0 0 0 0 0 0 0 0
1 35 9 8 8 9 0 0 0 0 0 0 0 0 0 0 5 10 4 0 13 70 234 93 51 13 1 0 0 0 21 11 0 0 0 0 0 0 0 0 0 0 0 0 0 0 0 0 0 0 0 0 0 0
6 1 8 8 22 19 8 0 1 0 0 0 0 0 0 0 1 0 0 5 103 133 75 141 5 39 69 8 31 28 6 9 1 3 2 0 0 0 0 0 0 0 0 0 0 0 0 0 0 0 0 0 0 0
9 10 18 12 22 7 8 1 0 0 0 0 0 0 0 0 0 0 0 69 35 52 30 21 50 81 76 3 59 26 8 17 13 6 2 0 0 0 0 0 0 0 0 0 0 0 0 0 0 0 0 0 6 22
1 7 15 4 3 3 13 4 0 1 0 0 0 0 0 0 0 17 46 35 97 146 134 123 141 115 89 73 12 21 27 17 3 0 0 0 0 0 0 0 0 0 0 0 0 0 0 0 0 0 0 0 12 33
0 1 5 4 8 0 0 0 0 24 36 10 3 3 2 0 68 93 54 10 168 175 219 180 246 151 25 16 24 12 3 0 0 0 0 0 0 0 0 0 0 0 0 0 0 0 0 0 0 0 0 7 19 30
1 1 1 0 0 0 0 0 0 0 0 0 0 0 0 80 161 69 13 60 79 164 75 127 65 77 36 11 6 0 0 0 0 0 0 0 0 0 0 0 0 0 0 0 0 0 0 0 0 0 0 16 8 10
4 6 0 0 0 0 0 0 0 26 24 1 5 31 31 48 41 0 113 71 86 54 38 2 5 3 19 3 0 0 0 0 0 0 0 0 0 0 0 0 0 0 0 0 0 0 0 0 0 0 9 13 8 11
3 3 0 0 0 0 14 0 0 6 23 23 28 53 82 77 24 70 89 114 61 21 0 0 0 0 0 0 0 0 0 0 0 0 1 1 0 0 0 0 0 0 0 0 0 0 0 0 0 18 29 23 10 8
8 0 0 0 28 41 11 29 18 85 74 81 86 73 71 112 83 28 71 63 4 0 0 0 0 0 0 0 0 0 0 0 0 0 3 14 20 10 0 0 0 0 0 0 0 0 0 0 7 20 30 28 0 0
0 0 0 0 3 12 17 35 56 39 41 64 66 55 16 19 22 45 72 51 0 1 0 0 0 0 0 0 0 0 0 3 0 0 0 0 0 2 0 0 0 0 0 0 0 0 0 0 0 6 11 1 0 0
0 0 3 0 0 7 4 12 5 62 0 0 0 18 125 70 104 99 45 22 3 0 0 0 0 0 0 0 0 0 2 0 0 0 0 0 0 5 0 0 0 0 0 0 0 0 0 0 0 6 9 2 0 0
0 0 0 0 12 8 4 14 12 1 0 41 87 82 51 72 134 64 46 13 0 0 6 0 0 0 0 0 3 0 0 0 0 0 0 0 0 1 0 0 0 0 0 0 0 0 0 0 0 2 7 6 0 0
0 21 0 0 7 6 0 7 20 5 6 176 64 142 92 52 42 27 28 24 13 5 12 2 0 0 0 3 15 9 0 0 0 0 0 0 0 0 0 0 0 0 0 0 0 0 0 0 0 0 0 0 0 0
0 0 0 0 3 0 0 1 12 14 6 1 11 81 40 31 37 40 36 28 22 12 16 10 1 0 13 20 23 18 21 37 40 8 0 0 0 0 0 0 0 0 0 0 0 0 0 0 0 0 0 0 0 0
0 0 0 0 0 0 0 0 1 3 0 25 13 59 55 51 39 44 40 33 17 18 33 17 4 40 29 44 55 37 47 45 62 70 35 0 0 0 0 0 0 0 0 0 0 0 0 0 0 0 0 0 0 0
0 0 0 0 0 0 0 4 6 13 35 66 128 43 27 105 109 18 22 12 10 7 13 14 7 0 81 38 29 2 0 0 4 1 0 0 0 0 0 0 0 0 0 0 0 0 0 0 0 0 0 0 0 0
0 0 0 0 1 7 16 48 158 224 232 255 236 83 35 59 48 50 19 0 1 0 3 0 0 9 15 51 24 0 0 0 0 0 0 0 0 0 0 0 0 0 0 0 0 0 0 0 0 0 0 0 0 0

GFSWCAN_con_mucape_096.txt.gz
CAPE
12 4 0 0 0 0 0 0 0 0 0 0 0 0 0 0 0 0 0 0 2 0 0 0 0 0 0 0 0 0 0 0 0 0 7 202 152 204 177 211 146 37 45 45 22 25 1 0 0 6 18 0 13 149
7 1 0 0 0 0 0 0 0 0 0 0 0 0 0 0 0 0 0 0 0 0 0 0 0 0 0 0 0 0 4 0 0 0 0 23 0 42 104 130 104 289 21 183 2 58 43 26 1 0 0 0 0 69
4 0 0 0 0 0 0 0 0 0 0 0 0 0 0 0 0 0 0 0 0 0 0 0 0 0 0 0 0 0 0 0 0 11 0 0 0 0 0 0 0 93 16 113 21 13 13 24 0 0 0 0 0 5
0 0 0 0 0 0 0 0 0 0 0 0 0 0 0 0 0 0 0 0 1 0 0 0 0 0 0 0 0 0 0 0 0 0 0 0 0 0 0 6 0 0 1 7 11 1 54 42 23 0 0 0 0 1
6 0 0 0 0 0 0 0 0 0 0 0 0 0 0 0 0 0 0 0 0 28 0 14 0 0 0 0 0 0 0 0 0 0 0 0 0 0 0 0 0 0 0 0 0 0 0 0 0 10 0 0 0 0
0 0 0 0 0 0 0 0 0 0 0 0 0 0 0 0 0 0 0 0 0 11 5 0 1 0 0 0 0 0 0 0 0 0 0 0 0 0 0 8 31 0 0 0 0 0 0 12 0 0 0 0 0 0
0 0 0 0 0 0 0 0 1 0 0 0 0 0 0 0 2 3 0 0 0 0 36 0 1 0 0 0 0 0 0 0 0 0 0 0 0 0 0 115 0 0 0 0 0 0 0 0 0 0 0 0 0 0
0 0 0 0 0 0 0 1 5 0 0 2 0 0 0 0 0 0 3 0 0 0 0 67 138 0 0 1 2 0 0 0 0 7 0 6 13 0 155 135 43 0 0 0 0 0 1 2 0 0 0 0 0 0
0 0 0 0 1 8 1 4 29 3 5 5 0 1 0 0 0 0 0 0 0 0 5 3 216 76 0 0 3 0 2 76 15 23 19 29 160 506 174 219 99 3 0 0 0 0 0 1 3 0 0 0 0 0
1 0 0 0 0 18 13 22 16 0 10 7 6 4 0 1 0 0 0 51 29 0 0 9 137 100 0 11 33 121 102 198 222 200 55 125 408 257 226 182 93 24 1 0 0 0 0 1 1 0 0 0 0 0
2 1 5 8 0 16 15 14 10 8 12 11 7 57 86 8 50 103 61 16 2 0 0 0 86 179 8 113 146 245 206 209 168 390 281 385 64 265 69 92 89 9 0 0 0 2 7 18 7 0 0 0 0 1
2 8 4 1 0 5 8 6 2 12 11 2 27 39 86 155 86 84 38 8 0 0 0 12 46 227 112 234 268 327 237 290 134 205 186 161 81 182 3 0 0 0 0 0 0 4 6 2 2 6 1 7 9 8
4 2 2 3 0 10 3 2 4 21 15 18 103 88 67 17 4 0 0 0 0 0 15 43 91 366 218 367 242 363 145 197 222 169 159 66 241 26 1 0 0 0 0 0 0 21 30 50 70 86 148 77 56 47
5 1 5 0 4 6 2 6 3 5 2 7 0 0 0 0 0 0 0 0 13 55 87 44 141 130 259 361 252 108 202 244 162 165 97 129 380 41 0 0 2 7 17 35 65 117 153 139 32 1 0 0 0 0
0 4 5 11 0 0 0 3 1 0 0 0 0 0 0 0 0 3 8 51 123 283 347 200 168 176 221 229 225 229 240 99 58 102 106 211 244 63 7 6 26 40 60 69 51 22 6 3 1 0 0 0 0 0
0 10 13 16 18 0 0 0 0 0 1 2 0 6 38 0 49 66 52 105 237 177 468 238 221 160 154 272 243 192 122 87 89 54 103 267 181 66 9 10 20 19 18 6 0 1 0 0 0 0 0 0 0 1
6 0 9 0 0 0 0 0 0 0 0 0 0 0 7 69 83 7 14 51 209 385 327 282 159 161 235 235 169 160 113 44 50 68 99 119 249 125 1 1 0 0 0 0 0 0 0 0 0 0 2 0 2 4
0 9 8 15 8 4 0 0 0 0 0 0 0 0 0 0 14 19 15 162 201 201 270 217 201 173 190 150 108 113 93 98 34 35 33 211 108 12 0 1 0 0 0 0 0 1 0 0 1 6 2 1 6 10
9 0 5 13 8 22 12 5 0 0 0 13 21 7 0 0 0 1 32 177 256 366 303 201 190 162 210 202 132 140 105 106 93 12 11 49 39 8 0 0 0 0 0 1 4 13 9 0 6 3 5 7 20 15
13 14 7 12 7 1 0 0 0 45 27 24 1 0 0 8 16 44 43 164 253 247 249 247 231 231 180 125 81 47 113 138 29 17 8 7 11 1 0 0 0 0 1 5 13 2 1 3 4 5 6 8 22 39
1 0 8 2 10 2 7 3 44 45 84 86 69 70 97 66 73 119 171 217 293 209 265 265 237 190 197 213 276 262 204 51 41 27 4 1 0 0 0 0 0 0 2 6 9 3 0 8 9 8 14 30 31 29
2 1 11 16 6 0 0 2 12 25 39 58 61 86 102 196 303 321 287 196 153 146 148 167 188 160 178 788 538 331 106 94 50 1 0 0 0 0 0 0 0 0 0 2 3 1 0 7 5 4 9 23 6 32
15 14 31 0 0 0 0 56 0 28 21 38 30 56 45 82 196 129 207 190 179 197 208 194 268 538 449 332 382 163 63 56 18 0 0 0 0 0 0 0 0 0 0 0 0 0 0 0 0 2 16 8 22 33
6 12 34 0 0 0 69 83 88 73 70 88 40 40 115 326 68 167 306 264 273 372 193 361 339 301 209 91 130 77 37 10 0 3 0 2 1 0 0 0 0 0 0 0 0 0 0 0 1 1 13 19 24 28
10 0 5 0 17 67 42 2 42 62 33 85 79 76 171 393 211 177 187 308 256 255 360 420 192 88 67 57 85 41 4 0 9 8 11 3 8 3 0 0 0 0 0 0 0 0 0 1 4 23 19 19 11 5
0 9 9 49 50 48 44 58 60 88 89 65 83 105 140 81 79 177 215 285 157 125 241 277 236 135 109 124 33 1 0 1 27 48 29 38 28 0 0 0 0 0 0 0 0 0 0 0 10 15 21 4 0 0
1 44 65 48 42 35 56 47 50 59 37 0 0 0 40 152 82 192 381 318 225 209 233 115 83 126 200 46 9 0 0 8 34 49 41 37 15 11 10 1 0 0 0 0 0 0 0 1 7 11 21 19 13 9
19 43 48 58 53 38 32 39 6 0 0 0 20 42 45 38 204 471 350 181 170 155 248 92 0 6 25 10 0 0 0 0 0 0 0 0 0 8 6 0 5 0 0 0 0 0 0 1 5 17 21 19 16 8
26 48 39 37 41 46 56 5 31 8 68 110 37 27 78 303 212 168 171 97 21 130 212 80 35 1 0 0 0 0 0 4 0 0 0 0 0 0 0 0 0 0 1 1 0 0 1 2 4 10 14 17 19 10
40 53 50 33 24 21 39 35 66 75 41 11 9 14 163 230 83 32 23 35 74 89 104 208 81 30 17 3 0 6 0 0 0 0 0 0 0 0 0 0 0 0 0 0 0 0 0 0 0 0 0 1 11 12
41 14 0 18 10 5 4 2 0 3 0 1 156 243 336 339 165 32 23 20 20 20 16 20 36 18 11 2 55 35 4 1 7 8 14 0 0 0 1 0 0 0 0 0 0 0 0 0 0 4 3 3 3 0
18 13 15 7 10 2 0 0 0 0 144 410 411 314 274 329 320 169 16 0 1 0 0 0 28 0 0 0 39 27 14 2 3 1 0 9 0 0 0 0 0 0 0 0 0 0 0 0 4 2 1 0 0 0
10 4 2 1 0 13 29 102 247 512 432 263 176 84 118 168 138 120 64 4 0 5 4 1 7 4 0 0 9 5 0 0 0 0 0 0 0 0 0 0 0 0 0 0 0 0 0 0 0 0 0 0 0 0

GFSWCAN_con_mucape_099.txt.gz
CAPE
0 0 0 0 0 0 0 0 0 0 0 0 0 0 0 0 0 0 0 6 126 71 36 0 0 0 0 0 31 0 0 0 7 127 135 305 284 310 254 304 421 373 358 295 280 131 187 3 0 46 235 99 152 300
0 0 0 0 0 0 0 0 0 0 0 0 0 0 0 0 0 0 0 0 7 124 133 4 0 0 0 1 2 0 33 4 68 51 10 301 125 256 70 206 229 342 228 466 296 570 237 111 304 157 111 103 73 154
0 0 0 0 0 0 0 0 0 0 0 0 0 0 0 0 0 0 0 0 0 36 0 0 0 0 0 0 0 3 1 15 0 54 126 48 58 3 218 222 221 103 391 229 249 174 28 9 7 13 17 6 0 40
0 0 0 0 0 0 0 0 0 0 0 0 0 0 0 0 0 0 0 0 0 84 11 15 0 0 0 0 0 0 3 0 2 0 2 16 5 32 67 194 35 57 294 90 205 237 129 67 25 12 0 0 0 0
0 0 0 0 0 0 0 0 0 0 0 0 0 0 0 0 0 0 0 0 0 98 86 79 7 0 0 0 0 0 0 0 0 0 0 2 9 21 0 10 40 50 20 19 59 83 142 36 60 6 0 0 0 0
0 0 0 0 0 0 0 0 0 0 0 0 0 0 0 0 0 0 0 0 0 0 174 126 122 0 0 0 0 0 0 0 0 2 6 1 27 0 25 149 228 123 12 14 48 41 57 35 46 30 0 1 0 0
0 0 0 0 0 0 0 0 0 0 0 0 2 0 0 0 0 0 13 4 0 29 30 30 151 23 0 0 3 1 0 2 13 33 5 29 82 0 16 245 284 61 7 20 68 127 24 42 16 2 0 6 0 0
0 0 0 0 0 0 3 2 0 0 7 4 0 0 0 0 0 0 0 0 0 34 20 59 178 66 0 7 12 19 36 47 78 146 155 68 360 140 169 333 342 183 78 54 72 7 10 76 15 30 9 4 3 1
0 0 0 0 0 1 0 0 10 18 20 7 2 0 0 0 0 0 0 23 12 136 102 33 203 156 0 18 46 109 117 165 270 187 161 266 243 704 380 468 502 342 141 118 44 4 1 61 43 26 9 3 0 2
0 0 0 0 0 0 16 13 50 16 10 26 14 12 1 1 1 2 48 219 74 4 98 171 91 262 9 65 166 225 150 149 311 332 424 272 401 482 617 517 545 354 160 135 114 55 5 46 32 28 22 9 0 1
0 0 0 2 8 0 16 27 23 13 30 33 7 51 255 0 45 94 29 34 87 28 1 0 98 272 119 174 163 191 264 217 214 356 297 604 901 576 684 588 649 346 194 69 82 66 41 32 34 21 20 15 10 7
0 1 2 1 3 0 5 18 6 5 13 5 89 112 188 197 127 56 44 29 28 0 0 0 0 335 220 355 454 404 249 269 214 447 289 482 563 664 382 249 309 376 305 162 56 30 31 120 28 27 37 38 36 26
0 5 5 1 0 0 6 5 1 5 18 20 108 194 244 81 50 9 32 29 13 4 9 8 0 264 375 368 283 318 182 209 304 239 367 438 828 611 396 212 143 110 47 44 32 56 22 16 27 47 62 93 12 17
0 4 1 0 0 1 2 1 7 1 5 69 3 0 0 0 22 36 33 42 14 7 13 37 107 175 192 257 196 171 202 247 155 236 325 607 998 565 318 185 118 39 38 19 20 36 57 231 279 199 81 2 2 9
0 0 8 0 0 0 0 3 4 1 4 0 0 0 0 72 36 35 17 30 48 71 56 55 153 254 175 159 136 191 200 119 132 226 294 1045 907 577 325 161 85 77 63 57 42 149 234 169 64 4 0 0 0 0
0 0 6 0 6 0 0 0 1 0 0 0 0 34 41 44 10 37 48 66 213 469 531 290 125 105 118 105 86 91 94 175 251 218 641 950 779 505 357 176 97 40 54 49 61 94 65 21 6 1 0 0 0 0
0 0 1 10 5 3 0 0 0 0 0 0 0 0 1 39 6 60 74 182 530 947 514 380 128 94 138 132 205 159 156 220 207 228 360 794 836 562 330 125 56 39 43 35 36 23 8 2 1 2 3 2 4 9
1 3 1 4 0 0 5 11 17 0 0 0 0 0 2 27 93 71 114 190 345 552 432 97 120 167 102 133 215 315 263 272 182 247 390 810 715 479 173 94 27 28 28 18 8 1 1 1 0 5 13 9 3 15
0 6 2 7 13 12 2 0 15 0 19 59 38 6 6 7 34 77 100 187 262 313 558 309 199 197 210 182 111 173 136 189 412 364 505 773 591 285 45 24 13 11 6 0 0 2 6 1 1 5 9 7 14 15
9 1 0 4 4 0 16 6 16 27 80 64 78 94 97 65 15 37 99 144 208 388 343 310 281 242 201 89 88 79 113 248 279 268 501 454 220 51 21 4 4 0 0 3 3 1 7 0 3 2 5 4 12 21
5 14 14 11 1 0 0 0 52 75 95 94 72 113 81 91 104 96 65 44 117 221 230 268 291 231 239 989 258 118 155 248 250 285 147 89 36 20 15 5 0 0 0 6 7 2 0 2 5 7 4 0 18 25
0 0 4 4 3 0 8 7 31 57 76 72 142 148 197 182 301 241 179 273 196 90 73 125 159 183 210 443 372 655 217 704 791 215 66 9 20 19 19 2 0 0 1 4 6 3 0 1 7 8 5 16 2 21
1 0 37 5 2 34 64 85 55 38 37 32 36 38 74 135 479 410 415 304 226 191 126 159 455 291 290 259 525 865 842 740 466 395 82 38 35 32 28 2 0 0 1 4 4 1 0 1 0 1 10 0 10 24
6 52 27 58 57 83 72 121 95 81 47 36 55 91 203 345 393 270 165 156 149 190 204 698 313 311 475 794 521 580 650 604 340 233 66 55 38 27 18 3 4 0 2 5 0 0 1 0 0 0 4 21 19 32
5 4 91 8 60 59 22 19 48 50 72 81 79 81 307 471 371 275 252 372 350 531 563 846 597 488 285 273 257 163 495 426 181 81 23 22 18 15 14 16 3 3 0 0 0 0 1 0 0 2 12 23 22 20
13 4 105 45 55 70 60 16 50 86 69 51 155 242 227 214 58 131 184 491 344 114 94 218 445 392 238 517 386 166 404 277 120 13 16 21 17 13 32 16 2 1 0 0 0 0 0 2 3 10 20 7 0 0
1 26 64 75 61 55 90 67 88 72 9 38 29 75 28 98 57 62 432 309 266 113 212 121 69 61 301 270 451 356 131 101 133 43 23 45 29 35 41 26 13 10 0 0 0 0 0 1 5 12 18 28 22 5
29 29 47 87 66 46 28 37 17 0 0 0 19 50 11 14 119 504 1152 630 459 334 281 100 36 105 100 97 32 24 34 22 33 44 39 37 93 61 63 42 26 0 0 0 0 0 0 3 7 17 24 29 35 37
33 37 23 46 62 52 38 33 0 0 0 0 9 45 68 247 355 350 364 371 337 371 375 182 95 38 65 44 15 25 39 21 12 11 16 15 35 26 29 25 0 0 0 0 0 0 3 2 7 17 28 35 39 38
42 27 24 29 26 14 29 35 72 23 51 37 59 85 279 513 384 178 172 179 388 492 430 461 369 95 35 22 26 5 0 12 4 11 8 4 11 19 20 10 5 3 0 0 0 0 0 0 0 0 1 15 36 39
19 11 17 17 6 18 34 23 20 33 81 54 355 452 432 585 323 246 91 36 22 30 93 135 174 142 52 30 19 4 0 3 21 15 6 16 12 7 2 9 4 4 1 3 9 9 7 0 0 13 22 24 25 10
0 3 6 14 30 36 15 11 20 29 134 494 399 285 263 362 406 399 7 0 10 14 0 3 24 0 6 14 0 0 28 52 62 52 27 15 3 1 15 9 9 8 4 8 2 8 17 39 27 25 43 53 58 54
6 29 27 27 22 9 5 44 113 369 528 372 221 123 104 61 40 165 9 1 2 7 8 0 1 8 7 10 0 0 0 0 6 6 9 0 0 0 2 12 6 0 0 0 0 1 1 5 26 36 50 57 46 31

GFSWCAN_con_mucape_102.txt.gz
CAPE
0 0 0 0 0 0 0 0 0 0 0 0 0 0 0 0 0 0 0 1 0 198 168 34 0 0 0 0 54 7 0 1 3 50 92 266 279 235 217 402 479 394 280 308 485 176 160 23 18 48 468 117 292 499
0 0 0 0 0 0 0 0 0 0 0 0 0 0 0 0 0 0 0 4 10 24 214 129 0 0 0 0 1 20 69 250 24 74 89 118 122 123 194 121 162 240 407 502 421 547 446 296 655 456 301 214 164 296
0 0 0 0 0 0 0 0 0 0 0 0 0 0 0 0 0 0 0 4 15 0 0 17 2 0 0 0 0 0 22 6 3 0 215 14 100 22 96 117 240 68 231 259 261 568 158 17 63 53 34 11 9 64
0 0 0 0 0 0 0 0 0 0 0 0 0 0 0 0 0 0 0 0 0 16 24 0 0 0 0 0 0 0 0 18 0 0 0 15 19 45 27 270 36 205 269 1 107 238 82 18 0 6 1 0 0 0
0 0 0 0 0 0 0 0 0 0 0 0 0 0 0 0 0 0 0 0 0 27 177 179 3 0 0 0 0 0 0 0 0 0 0 21 32 85 38 5 45 11 33 46 62 432 805 97 103 31 1 0 0 0
0 0 0 0 0 0 0 0 0 0 0 0 0 0 0 0 0 0 0 0 0 0 114 246 104 11 0 0 0 0 0 0 0 1 14 76 150 87 1 106 203 32 66 31 121 129 145 88 133 94 16 1 4 0
0 0 0 0 0 0 0 0 0 0 0 0 0 0 0 0 0 0 0 0 0 55 88 199 182 60 0 0 0 0 0 0 0 10 5 60 159 0 0 139 323 202 79 77 43 209 201 127 178 47 4 18 0 0
0 0 0 0 0 0 1 0 0 0 0 0 0 0 0 0 0 0 0 0 0 14 2 0 113 190 18 0 2 2 1 3 22 58 128 142 415 229 176 223 309 276 144 64 93 66 97 89 69 126 24 26 0 4
5 5 4 0 0 0 0 1 0 0 3 8 5 2 1 0 3 0 0 0 0 32 47 0 6 218 50 22 5 17 31 133 87 122 89 129 172 1193 497 443 495 505 361 274 179 122 36 109 130 111 18 12 9 18
6 0 0 0 0 0 0 1 3 17 15 8 1 1 0 0 11 1 43 208 8 0 112 164 51 286 250 36 30 185 90 109 317 410 234 381 549 1134 615 658 708 576 397 240 206 167 90 89 146 215 45 45 15 6
0 0 0 0 0 0 0 5 15 23 11 10 4 57 334 12 43 32 5 81 44 0 0 43 150 241 252 106 164 161 144 120 145 481 339 430 492 964 678 567 1058 574 440 203 185 114 152 527 105 96 32 9 7 9
0 0 1 0 0 0 0 2 28 33 21 10 4 144 149 20 120 70 78 10 70 11 35 5 22 253 41 553 175 155 394 224 159 232 249 1127 439 976 895 487 525 635 320 205 119 264 153 295 33 27 34 22 26 38
0 0 0 8 0 0 2 0 19 3 6 9 55 150 140 104 65 63 31 15 22 22 19 11 9 317 375 294 447 380 137 67 85 374 274 522 1458 1049 654 383 324 380 340 254 142 99 201 135 50 26 85 222 56 45
0 1 3 2 0 0 2 12 5 1 0 0 0 0 65 50 75 67 106 98 66 43 76 7 3 366 249 178 124 52 35 117 120 128 164 272 1832 1161 679 389 304 202 127 130 130 81 111 135 274 259 220 126 15 0
0 0 10 5 5 0 2 4 3 0 0 0 0 0 18 27 105 137 85 61 67 51 74 11 3 66 433 189 125 110 68 83 71 88 251 1547 1902 1423 586 321 193 95 95 96 102 81 220 139 212 117 11 0 0 0
0 0 1 1 5 0 0 0 0 0 0 0 0 0 39 98 99 99 85 46 66 149 119 121 177 96 62 107 51 0 26 38 78 507 1171 1581 1797 1150 1085 347 177 305 57 35 64 141 50 90 75 49 3 0 0 0
0 0 9 10 12 0 0 0 4 0 0 0 0 0 0 10 46 31 143 177 263 451 211 349 14 6 103 55 1 22 7 56 230 594 830 1715 1822 1585 839 445 298 57 49 28 29 70 91 28 25 13 2 0 7 0
5 3 2 7 6 13 5 12 21 0 0 0 0 0 9 8 46 56 59 47 180 368 492 57 37 70 80 34 16 94 132 317 73 529 1090 1444 1840 1487 691 490 702 251 83 98 45 27 18 6 2 0 4 4 2 0
7 1 9 5 0 0 0 24 22 0 23 21 37 14 15 29 135 97 110 437 314 143 194 61 0 2 11 120 133 410 302 375 443 547 1185 1458 1297 847 799 393 103 53 42 23 9 2 1 4 0 3 5 2 0 14
3 10 8 1 3 6 8 2 1 14 55 138 84 74 80 54 29 55 70 108 352 66 49 173 13 0 90 22 35 246 273 465 483 629 763 709 648 728 481 145 27 23 15 9 0 0 7 0 0 3 1 1 2 2
7 4 0 1 7 0 5 2 19 39 46 69 94 157 90 92 80 54 64 61 110 127 157 221 423 217 208 56 35 437 720 209 242 337 435 589 337 16 18 38 42 19 5 1 1 0 0 0 0 0 0 0 0 0
4 6 5 0 6 3 22 8 18 57 35 48 90 188 173 237 90 84 99 118 40 39 91 90 342 193 321 138 304 951 447 627 492 92 112 181 78 14 12 13 23 12 1 2 3 4 0 0 1 1 2 2 0 2
2 0 9 0 16 11 0 37 52 20 18 49 57 46 56 130 182 197 313 195 122 95 249 167 516 930 857 848 1146 738 719 539 300 90 312 250 161 21 12 23 27 3 1 5 5 6 2 0 0 1 1 0 9 5
1 61 51 62 20 5 42 86 62 32 61 46 25 55 140 216 219 454 309 235 228 200 237 992 465 315 523 1187 237 911 989 761 355 119 219 34 31 31 41 43 17 5 2 5 5 3 0 0 0 0 0 4 1 11
21 0 74 0 60 34 48 34 25 27 38 68 39 73 274 546 345 318 200 303 423 447 447 590 331 398 462 387 360 302 993 384 109 442 166 45 21 30 51 37 18 13 5 6 5 0 0 0 0 0 0 0 9 8
0 25 2 29 30 35 40 23 40 50 51 26 78 314 430 319 106 84 370 199 93 249 156 309 187 131 302 433 383 227 97 310 138 231 149 64 32 16 13 16 15 14 4 1 2 0 0 0 0 0 0 0 0 0
25 32 30 49 49 68 58 77 108 114 73 65 70 177 99 58 128 177 20 53 120 218 192 115 163 103 247 389 547 643 457 479 365 152 56 31 9 15 34 22 27 16 0 0 0 0 0 0 0 0 0 10 10 0
37 33 33 96 48 31 14 46 58 0 1 16 16 53 38 29 82 76 23 132 459 581 302 155 164 320 231 256 128 111 180 48 47 16 28 26 9 4 6 30 25 0 0 0 0 0 0 0 0 1 2 3 12 16
30 26 2 21 71 80 61 55 10 0 0 1 34 1 12 85 318 182 347 393 520 444 172 27 128 156 212 122 117 84 28 35 13 22 47 37 51 35 61 35 3 4 10 0 0 0 0 0 0 3 8 14 30 43
15 22 8 20 42 51 37 23 0 5 4 10 5 27 3 547 328 282 215 210 231 188 264 350 305 288 82 27 13 13 33 34 33 40 27 23 7 11 28 0 4 7 7 5 0 0 0 0 0 2 2 3 26 40
24 14 9 3 15 30 21 47 88 70 23 43 90 83 522 740 422 180 0 0 2 13 0 0 19 40 74 48 20 23 2 0 1 0 1 9 68 70 49 38 20 2 12 12 2 0 0 2 4 3 0 0 5 6
17 6 1 11 12 29 20 51 42 51 390 496 321 239 285 500 551 13 0 0 1 1 0 0 3 0 3 22 20 35 0 0 0 4 27 6 13 10 6 8 29 26 26 10 9 14 13 10 0 0 1 15 33 29
10 3 2 10 13 27 37 28 103 273 466 352 143 133 101 53 27 19 11 3 1 2 7 9 1 3 3 8 11 7 5 7 5 2 16 11 4 0 0 0 0 18 27 24 11 4 8 27 37 58 71 50 41 65

GFSWCAN_con_mucape_105.txt.gz
CAPE
0 0 0 0 0 0 0 0 0 0 0 0 0 0 0 0 0 0 0 0 3 76 63 186 25 7 0 0 14 0 0 0 0 6 0 229 20 0 0 47 512 293 26 119 30 26 0 35 4 8 76 88 112 497
0 0 0 0 0 0 0 0 0 0 0 0 0 0 0 0 0 0 0 0 9 84 14 16 9 0 0 0 0 33 179 196 68 18 131 284 104 23 88 251 36 319 261 307 69 1 1 57 198 274 135 17 73 57
0 0 0 0 0 0 0 0 0 0 0 0 0 0 0 0 0 0 0 2 5 46 0 0 5 1 0 0 0 0 6 63 136 1 129 166 28 63 138 26 253 338 262 275 233 148 236 273 74 70 59 13 0 7
0 0 0 0 0 0 0 0 0 0 0 0 0 0 0 0 0 0 0 0 0 0 49 0 0 0 0 0 0 0 0 34 3 0 4 0 31 13 34 164 80 241 98 4 438 272 68 49 18 0 1 0 0 0
10 4 0 0 0 0 0 0 0 0 0 0 0 0 0 0 0 0 0 0 0 0 59 53 53 118 0 0 0 0 0 0 34 0 0 0 246 145 50 0 6 26 84 0 212 331 126 48 31 12 0 0 0 0
18 30 9 0 0 0 0 0 0 0 0 0 0 0 0 0 0 0 0 0 0 0 86 201 184 43 0 0 0 0 0 0 0 0 0 163 110 45 0 136 21 35 66 16 383 168 74 122 137 8 0 0 0 0
2 22 5 0 0 0 0 0 0 0 0 0 0 0 0 0 0 0 0 3 0 0 153 204 242 124 2 0 0 0 0 17 6 4 33 76 43 10 0 43 168 160 172 89 180 131 46 62 35 16 16 1 0 5
3 10 3 0 0 0 0 0 0 0 0 0 0 0 0 0 0 0 3 5 0 67 110 60 113 91 19 7 0 0 0 0 122 47 130 189 148 227 72 100 291 343 137 77 49 79 162 49 44 12 8 5 0 0
4 3 0 4 1 0 0 0 0 1 0 0 0 0 0 0 0 0 0 7 25 134 124 32 40 296 90 52 8 23 68 69 57 12 8 219 138 418 438 365 585 425 258 209 163 137 68 113 186 28 8 0 0 9
7 1 2 0 0 0 0 0 2 0 1 3 8 1 0 0 5 8 118 265 143 36 192 178 109 397 311 230 69 167 72 128 179 221 477 225 615 806 557 431 644 764 366 214 196 137 91 135 100 47 22 2 0 3
3 0 0 0 0 0 0 0 4 1 8 9 7 92 219 2 132 155 97 166 98 1 0 7 131 191 219 206 188 174 300 235 296 430 380 546 348 339 610 970 683 662 467 232 332 122 345 82 31 44 22 16 20 23
0 0 0 0 0 0 0 0 2 10 4 12 5 36 201 194 142 77 124 66 129 0 0 0 5 291 281 218 377 186 215 403 205 299 402 413 586 1182 826 741 857 840 461 357 215 144 121 33 6 13 7 15 42 5
0 0 0 0 5 2 0 0 4 12 3 0 27 45 135 121 31 44 38 79 48 155 32 0 12 126 234 249 201 180 112 69 21 447 263 87 1366 1131 821 573 479 462 448 307 359 281 41 23 3 7 10 11 1 13
0 0 0 0 2 0 0 3 5 9 0 0 2 1 0 0 29 81 117 159 128 284 112 102 93 478 179 93 162 122 191 39 154 124 182 478 1194 864 708 514 379 325 285 287 98 65 71 11 5 11 28 15 10 0
0 0 0 5 1 4 10 6 12 0 0 1 0 0 0 16 48 120 335 117 192 150 230 137 157 520 174 319 181 61 61 54 62 54 87 1105 1056 800 631 474 383 257 200 40 25 11 29 16 17 17 15 6 2 0
0 0 0 6 5 5 0 0 2 3 3 0 0 0 0 19 73 94 150 91 256 364 188 251 251 166 58 98 55 77 9 8 43 1058 1278 1035 835 718 668 441 236 161 1 0 0 0 9 9 8 6 2 0 0 0
0 0 0 8 7 2 0 8 0 0 0 0 0 0 0 3 14 14 91 162 322 327 194 334 120 62 39 10 7 6 1 28 952 1283 1200 1124 1015 945 800 629 97 2 0 0 0 0 2 7 4 4 1 0 0 0
0 5 0 13 9 3 4 4 7 1 0 0 0 0 0 11 12 17 27 315 453 81 19 44 102 41 62 13 20 3 185 681 941 947 1054 1276 1257 948 715 90 69 36 0 0 0 1 0 2 3 0 0 0 0 0
2 4 6 1 12 5 30 21 66 0 4 4 0 0 0 5 7 20 201 49 60 88 43 113 96 71 0 262 200 158 70 205 401 562 773 1084 1087 794 651 54 41 4 2 0 0 0 0 0 0 0 0 0 0 0
3 0 8 2 2 0 0 0 8 0 1 172 85 41 19 170 319 175 158 125 275 21 0 0 16 5 32 266 79 229 84 112 97 158 389 684 772 775 581 94 1 31 10 0 0 0 0 0 0 0 0 0 0 0
0 13 12 1 0 7 8 0 25 31 26 44 104 190 181 301 246 173 157 58 80 158 6 0 0 0 8 2 21 29 49 204 125 451 569 652 617 395 377 18 10 5 5 1 0 0 0 0 0 0 0 0 0 0
8 2 0 0 0 2 6 10 11 53 64 47 71 124 207 251 204 175 349 334 110 164 183 114 61 63 73 5 0 1 1 23 642 294 521 501 339 149 26 9 14 1 3 0 0 0 0 1 0 0 0 0 0 0
1 3 9 0 1 0 0 7 45 38 21 59 104 41 125 218 426 390 468 285 101 355 546 661 786 118 41 31 84 148 13 148 489 606 423 435 208 46 0 2 1 2 0 0 0 0 0 0 0 0 0 0 0 0
4 0 2 62 0 0 17 106 139 71 38 31 41 48 128 267 499 449 72 98 155 309 262 792 725 754 990 1005 538 1144 807 692 701 761 490 319 169 37 13 15 7 5 0 0 0 4 0 0 0 0 0 0 0 0
0 0 2 0 47 31 25 35 74 109 48 144 50 126 351 571 377 317 234 454 561 590 297 179 313 713 383 556 518 319 953 807 577 409 246 290 80 39 12 4 0 27 1 0 0 0 0 0 0 0 0 0 0 0
0 13 1 25 24 47 34 30 58 56 53 42 141 382 425 297 100 126 480 257 340 376 461 634 830 272 396 296 186 288 230 227 482 253 255 112 41 20 17 10 12 3 0 0 1 0 0 0 0 0 0 0 0 0
0 7 19 41 103 57 32 120 215 139 67 101 174 202 226 56 112 116 2 13 42 137 122 163 298 136 399 465 369 524 367 424 294 64 211 56 23 18 25 11 7 7 2 0 2 0 0 0 0 0 0 0 0 0
7 44 37 143 114 71 20 32 23 23 3 3 0 49 55 13 0 1 13 117 70 121 116 111 165 193 278 476 335 295 343 168 79 33 57 84 18 52 24 0 0 0 0 0 1 5 0 0 0 0 0 0 6 2
28 39 19 35 68 83 76 25 6 0 1 14 70 46 25 66 30 40 58 81 218 114 25 0 22 63 197 479 442 208 92 8 31 17 53 10 4 2 7 0 0 0 0 0 0 1 0 0 0 0 0 0 0 25
1 10 12 1 22 45 15 25 5 10 11 3 51 0 0 25 73 24 12 82 195 135 50 20 91 44 55 37 21 18 21 20 17 7 14 5 4 4 19 1 1 0 0 0 2 6 1 11 0 0 0 0 9 38
13 27 13 6 0 1 34 14 0 6 9 78 18 2 21 97 263 9 0 0 0 0 0 0 0 0 22 35 26 13 3 7 11 11 0 0 0 23 16 6 0 0 1 2 5 3 0 0 0 0 1 11 9 0
10 12 14 2 0 8 39 38 27 76 127 56 84 59 234 570 218 0 0 0 0 0 0 0 0 0 0 0 23 40 53 27 19 3 3 0 13 11 7 0 1 6 11 7 1 0 0 0 0 0 0 5 3 0
9 8 0 0 0 8 34 59 231 452 337 333 193 117 117 106 61 120 36 0 0 0 0 0 0 0 0 2 2 2 7 22 15 0 0 8 17 11 1 0 5 11 25 13 7 10 13 3 0 0 0 0 3 16

GFSWCAN_con_mucape_108.txt.gz
CAPE
0 0 0 0 0 0 0 0 0 0 0 0 0 0 0 0 0 0 0 0 0 0 11 35 33 2 0 0 0 0 0 0 0 0 7 32 23 0 0 4 53 69 19 12 0 0 0 0 4 0 9 208 227 95
1 0 0 0 0 0 0 0 0 0 0 0 0 0 0 0 0 0 0 0 0 0 4 10 15 2 0 0 6 0 6 0 0 1 6 44 3 0 6 32 2 132 91 0 59 92 110 100 129 17 80 653 257 632
0 0 0 0 0 0 0 0 0 0 0 0 0 0 0 0 0 0 0 0 0 0 14 7 13 5 0 0 0 0 0 0 5 0 1 4 5 0 7 0 43 138 107 228 76 69 164 102 122 72 34 47 7 166
2 4 1 0 0 0 0 0 0 0 0 0 0 0 0 0 0 0 0 0 0 0 0 12 13 19 7 6 0 0 0 0 0 0 0 0 1 0 1 0 23 1 0 66 99 98 205 64 53 51 47 11 0 17
0 1 16 5 0 0 0 0 0 0 0 0 0 0 0 0 0 0 0 0 0 0 0 27 17 7 7 3 0 0 0 0 0 0 0 0 15 12 0 0 2 4 0 91 91 110 8 0 0 0 0 0 0 0
0 0 4 14 6 0 0 0 0 0 0 0 0 0 0 0 0 0 0 0 0 0 0 19 95 100 55 4 0 0 0 0 0 0 0 0 8 1 0 0 0 0 0 2 213 72 27 11 1 0 0 0 0 0
0 0 2 8 3 0 0 0 0 0 0 0 0 0 0 0 0 0 0 0 0 0 0 31 107 89 0 0 0 0 0 0 0 0 0 0 0 0 0 6 11 9 29 56 31 34 40 3 3 4 1 0 0 0
0 0 3 0 13 0 0 0 0 0 0 0 0 0 0 0 0 0 6 13 0 0 42 9 62 80 47 12 9 0 0 0 0 0 0 3 0 4 0 0 108 65 36 17 13 8 17 12 1 0 0 0 0 0
2 2 2 1 0 0 0 0 0 0 0 0 0 0 0 0 0 0 22 28 0 4 0 0 26 104 82 41 24 0 0 0 0 0 0 3 57 64 22 34 303 66 71 52 31 23 34 22 7 2 0 0 0 0
0 0 7 3 6 2 0 0 0 0 0 0 1 0 0 0 0 0 45 75 23 0 6 56 94 55 95 68 13 5 0 5 0 0 0 0 0 31 99 102 346 181 147 113 112 66 16 27 4 1 3 6 2 0
2 9 6 0 0 0 0 0 0 0 2 3 1 1 23 0 0 25 37 47 51 0 0 11 11 44 81 83 61 103 83 12 2 1 5 89 106 323 221 178 297 333 294 254 182 90 39 33 5 3 8 12 1 3
12 10 1 0 0 0 0 0 0 2 5 3 0 24 22 67 44 2 32 14 45 0 0 0 27 95 61 145 160 38 64 62 20 6 53 70 164 117 218 342 179 242 231 227 136 95 42 7 21 35 40 23 6 0
0 0 0 0 0 0 2 0 0 4 4 1 2 20 12 2 0 0 0 18 13 67 21 0 34 59 71 55 111 67 39 12 21 18 39 35 70 319 311 499 505 259 213 189 122 50 6 16 11 11 4 2 0 0
2 0 0 0 2 1 0 0 0 5 5 6 0 6 0 0 0 1 33 83 66 82 66 2 73 27 9 16 24 34 32 19 2 0 15 40 391 467 374 354 366 361 265 243 132 51 59 19 0 0 0 0 0 0
0 0 0 0 3 0 3 4 7 12 6 0 0 0 0 0 0 23 34 101 102 77 104 16 167 98 90 47 48 36 58 38 2 0 35 21 505 511 492 338 159 217 280 187 36 21 11 3 0 0 1 0 0 0
0 0 0 7 7 0 0 0 18 14 0 0 0 0 0 0 0 39 58 66 65 123 93 48 17 19 63 62 25 22 0 0 0 30 58 171 639 536 355 107 77 61 121 99 45 35 35 1 0 0 1 8 9 3
0 0 0 3 7 0 0 0 1 9 0 0 0 0 0 23 21 18 8 16 45 47 17 47 35 29 10 21 0 0 0 0 671 892 820 688 550 441 112 91 55 29 8 0 0 0 0 0 0 0 0 0 0 0
0 3 4 2 9 0 0 9 2 0 0 0 0 0 0 0 0 19 11 65 32 20 11 32 5 9 0 0 0 9 8 152 730 799 700 655 346 117 87 46 14 0 0 0 0 0 0 0 0 0 0 0 0 0
0 6 6 10 6 1 1 0 5 0 0 0 0 0 0 0 0 0 10 16 29 20 23 2 4 0 0 0 0 42 59 202 568 528 518 415 354 273 113 25 0 0 0 0 0 0 0 0 0 0 0 0 0 0
2 8 11 0 10 0 2 0 0 0 0 3 1 0 15 6 20 44 20 19 4 1 1 0 0 0 0 0 0 6 22 47 249 158 259 589 390 270 98 6 0 0 4 7 5 0 0 0 0 0 0 0 0 0
0 0 3 5 1 0 0 0 0 0 0 0 13 27 14 16 39 34 11 38 14 11 1 2 0 0 0 19 11 17 12 19 24 7 85 199 449 308 147 61 0 5 7 1 0 0 0 0 0 0 0 0 0 0
12 3 8 6 4 0 0 2 0 9 8 4 0 2 15 28 33 51 65 54 31 20 26 25 26 17 19 23 8 5 41 33 60 5 19 67 290 276 188 60 0 5 6 3 0 0 3 7 1 0 0 0 0 0
0 0 0 0 0 0 0 0 7 5 1 1 15 0 0 0 14 34 17 23 2 21 26 59 120 80 40 37 10 15 16 6 16 20 27 97 212 208 186 47 11 6 4 3 4 5 0 0 0 0 0 0 0 0
7 8 0 0 0 0 0 4 3 15 24 2 0 20 14 0 67 22 12 39 40 41 47 73 69 44 43 42 24 54 69 47 27 55 267 334 263 193 148 80 30 28 20 0 1 0 0 0 0 0 0 0 0 0
0 0 0 1 5 2 12 26 26 23 23 16 36 16 17 43 21 3 5 37 80 106 172 115 154 83 49 41 46 48 75 174 117 96 88 128 191 138 96 70 46 36 10 0 0 0 0 0 0 0 0 0 0 0
0 0 0 1 11 22 26 31 27 24 22 28 17 25 40 5 3 38 39 30 24 33 44 46 56 85 78 66 64 53 137 105 182 213 249 264 201 110 75 59 37 12 0 0 3 0 0 0 0 0 0 0 0 0
0 0 10 0 10 24 4 22 25 21 37 47 25 30 34 49 49 23 15 0 11 20 22 41 53 120 94 36 68 50 10 1 19 83 201 165 128 94 31 59 51 21 14 13 11 7 2 2 2 0 0 0 0 0
0 0 14 21 17 26 16 14 21 18 0 0 0 11 43 24 0 0 0 19 36 12 25 56 66 41 73 76 68 169 55 96 148 73 71 54 100 14 19 67 40 12 6 0 1 22 15 4 1 0 0 0 0 0
0 12 4 6 1 13 18 21 12 0 0 7 16 22 1 7 30 7 7 15 14 37 46 1 17 38 61 210 118 52 42 58 76 83 49 37 37 43 47 28 22 32 5 0 0 1 6 11 14 9 0 0 0 0
0 2 0 0 3 23 0 0 15 11 16 10 5 6 21 0 13 20 13 15 34 10 14 0 10 41 40 38 68 67 50 40 27 33 35 34 40 21 30 6 1 6 1 0 0 0 0 0 12 2 1 0 0 0
1 1 0 0 0 18 0 1 0 0 0 0 0 0 1 25 30 0 0 0 0 0 0 0 0 0 3 30 38 33 27 33 32 41 37 13 31 11 1 4 0 11 17 3 0 0 0 4 5 1 0 0 0 0
0 0 0 0 0 0 2 15 0 0 45 28 19 15 14 22 14 0 0 0 0 0 0 0 0 0 0 7 20 33 37 34 35 20 18 3 21 0 1 16 23 10 0 0 0 7 6 0 0 0 0 0 0 0
1 0 0 0 0 5 30 35 46 19 0 29 36 40 32 12 0 0 0 0 0 0 0 0 0 0 0 4 6 7 10 17 20 13 0 0 0 0 0 0 0 0 0 0 0 0 0 0 0 0 0 0 0 0

GFSWCAN_con_mucape_111.txt.gz
CAPE
0 0 0 0 0 0 0 0 0 0 0 0 0 0 0 0 0 0 0 0 0 0 0 13 0 0 0 0 0 0 0 0 0 0 0 1 0 0 0 0 13 21 1 2 0 0 0 0 0 0 30 225 202 365
0 0 0 0 0 0 0 0 0 0 0 0 0 0 0 0 0 0 0 0 0 0 0 0 3 0 4 0 0 0 0 0 0 0 0 2 3 0 0 6 8 100 34 1 3 0 35 39 42 155 295 233 179 186
0 0 0 1 1 0 0 0 0 0 0 0 0 0 0 0 0 0 0 0 0 0 0 0 12 0 2 23 2 0 8 0 6 0 0 1 0 0 0 0 0 45 79 153 10 17 153 118 67 187 358 227 452 236
0 1 3 1 2 0 0 0 0 0 0 0 0 0 0 0 0 0 0 0 0 0 0 0 0 0 0 5 12 0 4 5 0 0 0 0 0 0 0 0 77 138 113 93 43 109 59 99 80 70 126 265 380 404
0 0 0 1 8 6 2 0 0 0 0 0 0 0 0 0 0 0 0 0 0 0 0 0 0 14 3 1 0 1 3 5 9 0 0 0 0 0 0 0 2 4 20 67 26 135 50 7 0 0 4 87 238 391
0 0 0 0 0 15 8 0 0 0 0 0 0 0 0 0 0 0 0 0 0 0 0 3 0 9 30 1 0 0 0 1 9 0 0 0 0 0 0 0 0 0 1 19 56 167 28 0 0 0 0 0 0 144
0 0 0 0 0 0 7 0 0 0 0 0 0 0 0 0 0 0 0 0 0 0 0 1 20 99 66 6 6 1 0 0 0 0 0 0 0 0 0 0 0 0 1 5 83 133 47 37 5 0 0 0 0 20
0 0 0 0 2 3 4 5 0 0 0 0 0 0 0 0 0 0 0 3 0 0 1 11 3 60 14 8 9 0 0 0 0 0 0 0 0 0 0 0 0 1 39 42 55 64 48 27 16 5 0 0 0 59
0 0 0 0 2 0 0 0 0 0 0 0 0 0 0 0 0 0 0 5 3 0 0 0 0 85 82 14 18 11 27 0 0 0 0 0 0 0 0 0 71 24 42 26 23 25 23 20 22 16 4 0 2 84
0 0 0 1 3 1 0 6 0 0 0 0 0 0 0 0 0 0 17 3 0 3 0 0 30 50 66 58 68 62 58 5 0 0 0 0 0 2 0 1 52 4 2 11 28 36 38 38 38 39 19 0 0 0
0 0 5 6 5 3 0 0 0 0 0 0 0 0 13 1 0 11 3 0 4 0 0 0 2 29 52 81 61 48 17 4 0 0 0 0 0 0 7 0 50 31 32 62 18 25 48 28 28 17 3 2 6 8
0 0 19 16 0 0 0 0 0 0 6 4 20 27 15 46 20 2 0 3 16 0 0 0 0 0 70 119 20 14 48 77 9 0 7 0 25 25 26 11 106 65 122 136 144 129 50 8 6 12 20 29 24 23
5 18 14 1 0 0 0 0 0 0 16 14 32 31 12 0 0 0 0 0 1 39 5 7 94 39 80 87 53 29 0 1 1 0 0 0 0 67 121 58 154 222 244 191 121 65 32 2 10 22 25 28 32 18
12 11 1 0 0 2 3 0 0 2 10 6 13 0 0 0 0 0 0 15 46 55 101 21 58 111 43 55 44 61 42 13 0 0 0 35 27 27 30 117 144 161 185 177 147 99 30 9 9 8 8 12 10 13
5 7 0 0 0 3 0 5 6 13 12 21 2 0 0 0 0 0 9 33 69 98 106 28 67 44 45 38 34 47 42 6 0 0 0 2 0 2 93 246 337 214 205 218 161 40 32 23 10 0 0 0 2 3
0 0 0 0 2 2 6 9 7 13 6 11 0 0 0 0 0 2 35 64 74 118 55 12 27 7 28 49 34 0 18 2 0 16 15 0 0 65 203 319 335 327 288 231 226 234 54 5 0 0 0 0 2 1
0 0 0 3 15 0 0 0 10 4 6 0 0 0 0 5 7 19 30 31 23 29 24 48 1 0 0 2 31 39 11 0 30 181 387 371 57 211 315 336 304 178 182 200 174 40 6 7 7 0 0 0 0 1
0 0 0 9 15 3 0 7 0 3 1 0 0 0 0 0 0 0 9 27 11 0 9 21 13 22 8 3 0 2 36 63 78 132 304 445 461 383 424 340 85 80 54 50 60 43 25 2 0 0 0 0 1 0
1 0 17 5 14 10 0 2 3 11 2 0 0 0 0 0 0 0 4 14 34 18 16 21 22 4 2 2 41 32 39 56 78 418 534 514 518 335 212 114 97 72 33 0 0 0 0 0 1 3 4 5 0 0
4 10 18 8 11 5 3 6 7 0 0 0 0 0 0 5 8 16 14 11 10 53 32 3 2 0 0 0 0 0 0 2 40 213 329 285 195 56 63 73 84 41 0 0 2 4 4 4 5 2 1 0 0 0
10 9 15 12 1 0 0 14 0 0 0 0 0 0 0 26 42 38 16 3 6 0 1 9 0 8 0 0 0 0 0 0 3 103 74 140 188 155 103 77 39 6 0 0 3 5 3 3 3 0 0 0 0 0
0 1 3 2 5 0 0 12 0 1 0 0 0 0 1 27 34 31 20 1 8 6 3 5 22 37 19 13 0 0 0 0 7 5 18 39 109 155 82 66 29 9 0 14 6 8 11 10 0 0 0 0 0 0
11 1 3 0 0 0 0 0 0 0 0 0 4 6 0 11 24 20 28 4 19 29 34 36 39 48 58 13 0 0 0 5 15 6 0 8 20 85 120 50 53 36 15 10 9 10 7 2 0 1 2 1 0 0
0 0 0 0 0 0 0 0 0 0 4 2 0 0 7 3 2 15 11 12 3 0 0 0 7 11 11 3 0 0 0 0 0 0 0 0 13 25 47 88 72 69 48 47 32 11 13 7 1 0 0 0 0 0
0 0 0 0 7 2 0 3 5 1 3 0 2 0 6 21 6 0 0 26 46 65 56 51 70 42 26 3 6 8 5 0 0 2 16 31 73 18 9 64 129 112 66 48 39 23 18 0 0 0 0 0 0 0
0 0 0 0 2 0 9 11 21 12 2 3 9 9 18 10 1 10 18 56 10 18 27 26 17 40 82 53 47 17 19 25 33 25 43 37 76 135 70 86 111 89 80 87 59 32 17 4 0 0 0 0 0 0
0 0 0 0 2 13 2 5 2 1 7 22 7 16 19 32 46 9 0 2 25 29 11 6 10 26 50 58 29 31 38 26 79 88 90 77 41 66 85 85 51 53 43 51 71 72 36 10 7 2 7 8 1 0
0 0 11 17 10 5 0 2 1 4 0 0 0 29 0 0 0 0 6 7 25 20 30 24 17 20 32 97 56 68 93 50 14 35 24 7 56 82 98 53 6 5 22 35 59 31 43 49 55 19 16 12 3 0
2 10 11 7 6 5 14 14 10 0 0 0 17 22 12 12 3 5 5 34 29 28 16 17 25 40 48 147 158 92 77 80 75 101 83 53 67 59 38 21 0 3 35 22 26 34 3 14 64 27 28 19 12 2
1 0 0 0 0 2 5 12 13 18 12 23 14 22 24 0 1 7 9 5 14 14 2 1 0 1 2 4 93 109 78 61 49 85 52 43 25 19 17 15 10 54 46 27 0 6 11 1 0 0 0 0 2 0
1 0 0 0 0 0 0 0 0 11 1 1 9 7 1 9 8 0 0 0 0 0 0 0 0 0 0 0 4 26 38 49 68 50 38 31 35 25 11 3 3 0 5 10 6 3 3 0 0 0 0 0 0 0
0 0 0 0 0 0 0 0 0 12 18 57 34 0 7 30 13 0 0 0 0 0 0 0 0 0 0 0 2 12 17 14 39 11 24 19 17 9 15 0 9 12 0 0 2 0 0 0 0 0 1 2 0 0
0 0 0 1 16 21 0 0 0 23 25 36 44 51 62 30 0 2 0 0 0 0 0 0 0 0 0 4 3 15 23 22 26 11 0 0 0 0 0 19 29 25 2 0 17 12 1 0 3 0 0 0 0 0

GFSWCAN_con_mucape_114.txt.gz
CAPE
0 3 1 0 0 0 0 0 0 0 0 0 0 0 0 0 0 0 0 0 0 0 0 0 0 14 1 0 0 0 0 0 0 0 0 0 0 0 0 0 4 0 0 0 0 0 0 0 11 45 64 240 598 697
0 2 0 0 0 1 1 0 0 0 0 0 0 0 0 0 0 0 0 0 0 0 0 0 0 0 0 0 0 0 0 0 0 0 0 0 0 0 0 0 0 30 0 7 0 0 11 8 32 55 391 390 348 581
8 12 17 2 2 4 6 2 0 0 0 0 0 0 0 0 0 0 0 0 0 0 0 0 0 0 0 0 0 0 10 15 4 0 11 28 2 0 0 0 0 0 0 35 0 13 100 143 408 503 578 296 251 304
0 1 16 16 2 3 6 10 5 1 0 0 0 0 0 0 0 0 0 0 0 0 0 0 0 0 0 0 0 2 11 6 17 0 0 2 0 0 0 0 0 22 16 35 2 70 62 85 67 232 344 458 459 316
0 0 0 6 0 1 0 8 17 5 0 0 0 0 0 0 0 0 0 0 0 0 0 0 0 1 0 0 1 10 1 6 15 0 0 0 0 0 0 0 0 24 37 30 7 29 23 53 100 256 330 429 431 323
0 0 0 0 0 0 4 5 14 1 0 0 0 0 0 0 0 0 0 0 0 0 0 0 0 0 7 0 0 0 7 0 0 0 0 0 0 0 0 0 0 0 0 4 1 72 44 20 57 140 262 365 656 575
0 0 0 0 0 2 5 13 13 5 0 0 0 0 0 0 0 0 0 0 9 0 0 0 0 29 10 0 1 0 5 2 0 0 0 0 0 0 0 0 0 0 0 0 1 103 39 13 17 32 10 12 278 454
0 0 0 0 0 3 3 1 1 2 0 0 0 0 0 0 0 0 0 1 12 0 0 4 0 5 16 7 11 0 0 0 0 0 0 0 0 0 0 0 0 0 0 0 0 51 36 6 2 0 0 2 247 707
0 0 0 0 0 0 0 0 0 0 0 0 0 0 0 0 0 0 0 0 0 0 0 0 0 63 44 0 1 18 0 0 0 0 0 0 0 0 0 0 0 0 0 4 7 21 12 6 2 1 0 0 35 226
0 0 0 0 0 1 1 0 0 5 10 0 0 1 0 0 0 0 0 0 0 0 0 0 4 33 49 35 8 4 9 7 0 0 0 0 0 0 0 0 0 0 1 22 24 4 0 0 3 2 7 10 1 37
0 0 0 0 0 4 9 17 17 3 0 1 9 0 7 0 0 10 5 9 0 0 0 0 2 0 73 110 100 58 38 32 0 4 0 0 0 0 0 0 0 40 0 3 11 12 0 0 4 16 17 4 0 3
0 0 0 9 12 13 0 0 0 0 0 6 9 27 10 37 12 1 0 0 0 0 0 0 0 0 79 101 39 22 59 61 45 4 11 0 1 0 0 0 0 17 3 0 0 24 7 29 6 12 19 4 1 3
0 0 0 7 23 3 0 0 4 2 17 15 19 40 32 0 0 0 0 0 0 31 2 2 15 11 79 103 31 8 2 17 10 17 3 3 0 2 0 0 0 21 11 10 40 71 78 33 7 4 1 6 5 7
0 6 14 1 0 0 0 0 0 8 26 6 0 0 0 0 0 0 0 1 6 56 47 6 56 79 49 76 81 51 16 17 0 0 0 15 50 0 0 1 0 2 14 25 44 112 60 31 3 0 0 4 4 14
8 17 15 0 0 1 3 7 3 0 9 9 4 0 0 0 0 0 0 0 34 58 54 26 42 59 50 59 62 73 57 0 0 0 0 0 0 0 2 9 6 43 75 116 183 121 44 29 1 0 3 3 13 20
9 4 3 0 0 12 9 15 12 0 13 13 8 0 0 0 0 0 3 19 51 63 45 33 26 26 35 41 19 19 23 0 0 0 0 4 30 0 0 0 23 75 134 186 165 142 83 6 0 0 0 0 5 12
1 0 0 0 4 9 5 11 4 18 17 7 0 0 0 4 0 1 1 10 20 27 38 30 5 0 0 1 24 4 2 0 25 37 28 97 132 30 1 13 82 151 154 149 156 178 80 94 0 1 1 0 0 6
0 0 0 2 12 9 1 0 3 1 0 1 0 0 0 1 4 0 2 25 18 15 21 36 2 0 0 2 0 0 33 47 51 38 46 79 196 268 48 104 273 279 265 211 171 193 202 107 0 5 6 3 1 2
0 0 0 5 24 10 0 0 0 1 3 0 0 0 0 0 0 0 0 9 40 19 24 21 17 0 7 13 27 47 54 46 50 81 175 291 285 308 194 230 251 158 80 105 124 110 57 6 10 5 2 1 3 6
5 0 15 11 18 7 0 0 0 0 0 0 0 0 0 0 0 0 6 18 17 40 26 9 0 9 7 0 0 18 5 0 0 21 114 274 278 252 295 221 100 49 45 34 26 20 5 0 0 3 3 4 3 3
0 6 17 18 10 0 0 0 0 0 0 0 7 0 0 15 0 0 5 15 21 0 1 0 1 9 6 0 0 0 0 0 0 0 57 153 127 149 99 62 30 31 35 7 0 0 1 14 13 9 8 4 3 3
1 9 11 0 0 0 0 0 0 1 0 0 0 0 0 0 12 28 29 3 0 1 6 6 25 25 18 25 12 0 0 0 0 0 1 29 110 87 77 74 60 38 13 0 1 3 8 13 20 19 33 8 4 0
1 0 0 0 0 0 0 0 0 0 0 0 6 13 0 0 3 5 22 7 13 17 11 7 11 15 16 28 21 18 1 0 0 7 19 33 54 75 82 58 56 51 35 12 15 28 16 19 27 21 14 3 0 0
6 0 0 0 0 0 0 0 0 0 2 12 2 0 11 5 0 9 17 2 27 47 47 36 24 4 0 1 8 2 12 3 7 13 11 2 1 11 55 67 47 44 48 33 13 20 31 28 23 20 8 5 5 5
0 0 0 0 1 0 0 0 9 1 7 13 10 4 4 30 29 20 6 11 46 56 57 38 33 35 17 0 11 0 0 0 0 1 5 1 11 1 9 16 60 74 53 46 36 28 26 42 31 11 8 0 0 0
0 0 0 0 2 0 1 25 31 57 12 12 17 14 27 27 17 17 38 36 44 9 14 7 11 3 18 37 33 25 18 7 0 0 3 6 15 15 23 6 17 30 61 71 56 55 50 43 30 3 1 4 0 0
0 0 0 0 1 10 0 7 6 9 9 23 12 20 25 21 25 22 6 0 1 16 24 19 27 17 13 19 18 6 2 6 15 29 45 54 50 76 55 74 85 63 41 39 57 43 39 49 29 15 6 5 0 0
0 0 0 9 12 12 5 4 10 23 10 2 0 27 30 1 0 6 8 0 4 20 25 23 13 22 37 53 46 28 42 57 44 15 13 13 18 27 25 40 90 54 41 12 1 4 25 37 52 70 45 13 10 24
0 5 20 18 9 3 17 18 23 4 0 0 0 12 21 14 11 17 1 19 16 21 14 3 11 10 32 57 62 63 76 59 48 38 60 71 37 35 29 39 46 29 24 2 11 19 38 35 31 62 61 87 88 59
6 5 3 2 0 6 3 6 19 22 14 9 5 9 8 0 8 0 3 2 0 0 0 0 0 0 4 11 37 72 63 50 37 25 25 23 13 3 3 4 2 0 0 5 17 26 42 36 27 45 13 45 1 0
6 0 0 0 0 0 0 12 6 30 18 5 11 2 5 4 8 0 0 0 0 0 0 0 0 0 0 0 2 14 28 59 61 39 19 0 0 0 6 0 0 6 1 0 0 0 2 5 5 2 0 0 0 0
0 0 0 0 0 0 0 0 0 0 38 25 1 11 1 46 2 0 0 0 0 0 0 0 0 0 0 0 0 0 0 6 5 13 16 12 8 5 12 12 3 0 0 0 0 0 0 0 0 0 1 0 0 0
0 0 0 0 0 0 0 6 24 25 25 32 48 49 63 23 0 0 0 0 0 0 0 0 0 0 0 2 5 8 9 0 0 0 0 0 0 0 0 1 3 1 0 0 0 0 0 0 0 0 0 0 0 0

GFSWCAN_con_mucape_117.txt.gz
CAPE
1 0 0 0 0 0 0 0 0 0 0 0 0 0 0 0 0 0 0 0 0 0 0 0 0 0 22 18 3 0 0 0 0 5 5 15 6 22 0 0 20 155 286 362 5 165 16 0 3 242 103 384 808 1123
0 0 0 0 2 0 0 0 2 0 0 0 0 0 0 0 0 0 0 0 0 0 0 0 0 0 27 24 0 0 0 0 0 1 0 1 0 0 0 18 0 310 73 441 174 134 0 0 11 15 49 752 716 954
0 0 7 13 30 11 2 0 0 2 0 0 0 0 0 0 0 0 0 0 0 0 0 0 0 0 0 4 0 0 0 0 1 0 0 12 95 0 20 20 15 2 0 257 52 84 56 39 54 187 480 613 815 852
0 0 0 0 15 29 3 3 0 5 3 0 0 0 0 0 0 0 0 0 0 0 0 0 0 0 0 0 0 0 0 1 7 2 0 0 3 0 0 2 34 30 19 194 107 95 207 243 286 424 460 747 550 562
0 0 0 0 0 19 12 1 0 2 29 13 0 0 0 0 0 0 0 0 0 0 0 0 0 0 0 0 1 0 0 1 4 0 0 0 0 0 0 0 0 3 230 245 4 450 535 487 135 356 978 1080 676 503
0 0 0 0 0 0 0 0 4 0 13 11 0 0 0 0 0 0 0 0 0 0 0 0 0 0 5 4 0 0 0 0 14 2 0 0 0 0 0 0 3 0 2 84 155 119 53 186 186 161 697 956 760 675
0 0 0 0 0 0 0 2 0 1 10 7 0 0 0 0 0 0 0 0 0 0 0 0 0 0 8 5 0 0 1 0 0 0 0 0 0 0 0 24 13 0 0 0 0 16 5 59 293 163 294 680 537 804
0 0 0 0 0 0 0 3 1 0 6 0 0 0 0 0 0 0 0 0 0 5 0 0 0 0 3 12 10 12 4 1 0 1 0 0 0 0 0 0 0 0 0 0 0 46 50 120 100 86 105 804 1034 978
0 0 0 0 0 0 0 0 1 0 0 0 0 0 1 0 0 0 7 0 0 2 0 0 0 0 22 17 19 13 0 7 0 0 1 0 0 205 88 128 0 1 81 115 10 42 41 47 106 67 175 549 904 1012
0 0 0 0 0 0 0 0 1 0 0 2 0 0 0 0 0 0 2 1 0 0 0 32 15 71 110 27 13 9 0 3 0 0 0 0 6 33 62 32 94 46 36 2 1 0 0 16 65 62 123 275 548 743
0 0 0 0 0 0 1 1 0 8 18 7 0 5 0 3 0 0 43 0 8 0 0 25 22 5 50 266 156 89 22 22 53 30 14 17 3 8 157 118 76 0 0 37 151 76 4 52 44 78 92 157 284 440
0 0 0 0 0 1 7 12 15 9 4 6 9 33 16 89 13 0 63 0 0 0 0 0 10 6 48 193 252 131 178 133 116 4 65 95 7 105 74 130 203 0 0 0 11 40 13 42 25 70 97 110 95 187
0 0 0 0 3 15 9 0 0 1 14 17 9 22 37 9 0 0 0 0 0 25 5 0 17 23 124 209 180 169 115 138 19 74 125 42 110 122 162 13 88 22 0 12 0 2 0 20 12 30 67 40 2 1
0 0 0 0 8 11 3 0 0 19 11 5 5 18 1 0 0 0 0 9 3 17 56 13 76 71 58 162 224 84 57 65 47 21 12 112 448 549 220 42 45 16 1 9 9 0 13 51 56 0 17 0 0 2
1 3 9 7 3 0 0 2 2 15 20 5 0 0 0 0 0 0 0 2 81 97 45 96 93 89 119 114 110 93 109 80 7 5 25 152 266 42 11 6 14 55 85 70 38 13 29 58 60 1 0 0 2 5
2 4 10 4 0 0 7 13 10 4 12 8 0 0 3 0 0 0 4 47 127 156 97 153 134 161 139 119 106 122 103 83 96 93 111 46 271 197 1 0 55 148 122 87 27 36 41 118 33 10 0 0 0 5
21 17 0 3 0 16 11 13 12 4 6 0 0 2 0 0 0 0 0 25 111 177 240 197 80 65 23 71 91 106 81 120 342 77 331 238 249 329 149 7 17 97 94 29 48 100 189 102 47 21 0 0 0 3
0 3 1 1 13 18 6 6 6 0 0 0 0 0 0 0 12 4 8 34 118 214 231 105 89 40 35 3 18 112 181 147 150 165 226 301 288 186 180 121 104 100 82 100 140 178 159 127 23 10 0 0 0 0
2 0 0 7 3 5 0 0 0 1 0 1 1 0 0 0 0 4 0 32 84 145 141 117 58 1 1 96 243 180 255 308 546 543 411 320 246 156 113 62 93 139 149 135 148 154 183 145 119 49 0 0 0 0
0 0 0 0 1 0 0 4 0 0 0 0 0 0 0 0 12 1 1 32 52 59 53 16 53 26 44 126 70 43 48 133 111 377 478 515 216 228 145 69 191 237 188 126 99 117 137 158 108 2 4 4 0 0
1 0 0 2 6 3 3 0 0 0 0 0 0 0 0 0 29 119 21 20 10 65 41 33 17 17 24 27 13 0 0 2 41 106 215 451 136 153 168 156 136 39 21 32 40 62 70 58 17 3 4 8 7 3
1 0 5 1 2 0 0 0 0 3 0 0 5 2 0 66 42 67 12 35 20 19 12 11 19 17 25 22 38 12 0 0 0 0 3 2 243 87 56 42 41 24 33 41 25 29 34 19 0 2 0 2 4 12
2 1 3 0 0 0 0 0 0 0 0 1 0 0 0 8 0 26 81 23 15 0 0 0 3 7 19 33 43 24 14 14 8 19 77 194 310 204 25 23 22 25 31 38 23 4 0 1 8 13 10 5 6 11
1 0 0 0 0 0 0 0 0 0 4 31 12 0 34 0 36 84 83 2 12 56 64 60 53 131 116 58 54 60 16 8 49 84 30 60 154 173 76 52 41 42 39 21 12 2 0 14 10 10 16 24 19 16
0 0 0 0 0 0 0 0 4 8 27 22 30 70 62 26 70 26 45 65 28 117 100 63 58 51 61 126 124 58 13 14 17 27 73 30 36 45 95 96 77 31 20 14 29 19 17 8 6 12 18 9 12 9
0 0 0 0 2 1 15 43 69 56 18 30 38 32 52 91 71 82 50 30 41 30 46 29 62 61 23 27 70 229 114 21 12 65 116 89 105 93 68 99 106 105 31 61 30 42 52 43 38 24 10 9 5 0
0 0 0 1 8 1 8 14 24 32 47 80 65 65 89 52 41 19 43 11 29 27 23 34 11 11 14 18 24 41 24 24 23 19 35 34 74 142 199 232 249 314 22 26 33 45 45 20 6 30 27 26 1 0
0 0 12 10 17 0 7 20 19 58 34 4 2 110 40 31 50 61 69 9 14 19 11 17 7 5 18 43 31 27 43 50 60 43 31 22 15 18 59 45 63 33 46 53 37 23 4 15 32 28 21 1 7 37
0 6 34 20 13 23 34 35 34 5 0 2 47 52 67 38 56 0 13 4 27 11 16 4 2 0 9 18 33 45 57 70 273 243 234 282 215 20 14 20 48 45 30 28 13 15 22 9 13 20 30 36 0 33
0 21 10 0 5 7 0 24 81 15 10 31 30 24 56 74 72 0 0 0 0 0 0 0 0 0 0 13 32 44 42 39 36 83 142 20 6 6 3 5 11 1 0 0 2 11 13 12 14 39 35 14 23 56
5 0 0 0 0 6 8 15 38 56 63 50 20 16 61 104 78 0 0 0 0 0 0 0 0 0 0 1 22 22 30 52 39 30 14 6 5 1 0 1 0 0 0 0 0 0 0 0 0 3 4 13 20 17
0 0 0 0 2 0 0 0 4 40 77 44 1 0 71 137 14 0 0 0 0 0 0 0 0 0 0 0 0 0 0 1 6 2 0 0 0 0 0 6 5 0 0 0 0 0 0 3 14 26 18 17 7 1
0 0 0 0 0 1 1 0 0 37 50 62 75 49 66 46 11 11 0 0 0 0 0 0 0 0 0 1 0 0 0 0 0 0 0 0 0 0 0 0 0 3 3 0 0 0 2 2 0 10 4 0 1 2

GFSWCAN_con_mucape_120.txt.gz
CAPE
0 0 0 0 0 0 0 0 0 0 0 0 0 0 0 0 0 0 0 1 1 5 1 0 0 4 28 16 32 0 0 0 0 9 12 10 0 69 41 26 55 121 239 257 286 295 238 149 236 455 588 1001 1280 1649
0 0 0 0 0 20 0 0 0 0 0 0 0 0 0 0 0 0 0 0 0 12 5 0 0 0 1 31 45 0 16 0 0 10 29 28 12 145 52 109 45 268 186 348 252 395 584 408 336 376 412 1236 1473 1511
0 0 0 0 0 6 23 12 0 0 0 1 0 0 0 0 0 0 27 0 0 0 1 0 0 0 0 10 0 10 0 21 1 168 31 45 83 80 87 70 136 209 285 258 392 541 509 539 415 371 943 1305 1641 1099
0 0 0 0 0 0 10 21 7 5 0 3 0 0 0 0 0 0 0 0 0 0 0 0 0 0 0 1 3 0 0 0 8 124 68 49 63 160 108 196 172 297 334 147 64 307 601 714 962 1052 1170 1594 1487 1120
0 0 0 0 0 0 0 21 9 3 3 6 3 0 0 0 0 0 0 0 0 0 0 0 0 0 0 6 2 0 0 0 10 70 68 47 82 102 77 77 35 256 220 56 94 94 827 795 871 1194 1439 1329 1276 1107
0 0 0 0 0 0 0 0 0 0 2 0 5 0 0 0 0 0 0 0 0 0 0 0 0 0 0 3 11 41 0 0 13 26 88 47 108 89 27 29 37 60 248 376 143 245 622 509 574 674 1176 1218 966 1186
0 0 0 0 0 0 0 0 0 1 0 0 6 0 0 0 0 0 0 0 0 0 0 0 0 2 1 1 7 54 1 0 18 39 53 84 135 7 1 1 4 6 229 422 234 532 471 340 330 615 1013 1312 987 1289
0 0 0 0 0 0 0 0 1 2 0 11 2 0 0 0 0 0 0 1 0 4 0 0 17 13 88 11 34 3 14 58 7 35 43 49 18 4 0 0 0 51 243 199 154 367 210 298 378 339 554 812 1225 1253
0 0 0 0 0 0 0 0 0 0 0 0 0 0 0 0 0 0 2 0 0 5 0 25 16 89 153 58 58 74 148 122 73 34 11 57 2 36 0 0 0 66 291 201 204 380 267 447 400 272 402 497 583 892
0 0 0 0 0 0 0 0 1 1 0 0 0 0 5 0 0 0 3 0 0 18 0 0 62 72 124 120 66 99 49 81 74 99 96 0 0 27 50 84 385 193 300 261 339 388 352 353 367 298 350 279 506 1189
0 0 0 0 0 0 0 0 0 0 0 0 3 3 9 0 6 11 90 0 4 19 0 22 49 45 75 339 150 194 45 13 34 83 15 11 26 45 98 104 155 354 423 397 336 383 402 400 324 324 294 237 414 733
0 0 0 0 0 0 0 0 3 0 7 8 16 6 6 125 89 83 86 63 50 52 32 7 45 50 31 297 514 322 171 140 56 50 56 55 89 140 105 88 170 388 263 281 326 262 306 280 261 364 301 315 318 582
0 0 0 0 0 0 7 4 11 4 7 8 12 18 91 113 144 49 41 50 69 36 45 18 47 50 135 277 336 343 133 79 139 144 22 31 101 146 165 169 243 170 321 210 303 377 398 329 256 335 452 446 401 754
0 0 0 0 3 1 10 4 0 3 7 0 0 24 54 1 42 54 51 49 81 63 132 63 53 80 95 149 149 56 129 147 55 39 33 79 248 477 494 461 383 242 272 334 398 379 432 524 487 484 518 591 673 707
0 0 0 0 8 3 1 0 0 11 0 6 5 67 0 34 30 30 59 48 126 180 189 68 123 180 155 94 88 88 11 59 31 16 65 79 328 564 474 379 348 251 293 395 508 453 449 524 582 612 597 620 550 555
8 0 5 6 3 3 0 0 1 5 0 0 0 47 66 60 67 75 61 84 143 221 396 193 114 76 55 67 37 0 0 14 42 172 205 333 462 776 1032 552 311 370 345 311 506 492 509 538 595 689 614 532 501 385
0 2 0 4 0 0 9 12 6 0 0 0 43 38 98 69 10 51 69 64 335 343 125 133 41 71 141 90 47 58 69 43 54 153 310 659 809 932 956 784 395 400 627 503 590 583 604 612 597 606 536 460 440 329
4 7 4 0 0 7 9 8 6 23 4 26 82 87 73 40 17 2 14 46 272 257 154 89 141 133 94 63 104 126 157 131 202 272 359 732 1107 1133 858 801 673 520 702 741 745 689 649 629 652 612 572 395 262 130
0 0 1 0 1 9 0 0 4 3 20 31 64 49 35 13 6 0 1 26 80 325 315 244 137 119 118 88 58 48 133 175 85 225 511 821 1099 1117 944 744 792 726 797 877 819 661 587 621 553 440 354 173 120 51
3 0 0 0 0 0 0 0 4 37 47 63 53 76 61 68 81 96 36 31 265 221 150 116 96 109 123 141 164 270 268 210 335 288 356 681 926 813 918 738 692 804 780 784 716 383 489 440 372 275 172 99 101 34
0 0 0 0 0 0 0 30 49 56 68 55 61 79 70 53 39 137 149 178 200 48 4 60 71 123 172 133 128 149 182 165 215 267 249 322 871 775 606 605 578 527 517 555 436 288 238 400 276 133 90 30 49 6
0 0 0 0 0 0 0 0 0 5 0 39 0 15 58 192 122 67 149 61 14 71 116 65 86 76 212 175 168 297 275 230 226 138 35 36 384 661 613 567 509 446 326 260 255 258 257 283 113 134 63 24 8 24
0 0 0 0 0 0 0 3 0 0 30 58 41 55 66 67 167 152 145 306 290 215 150 198 323 501 537 462 444 417 274 218 210 199 140 119 275 752 613 379 301 372 343 273 175 164 246 78 70 47 34 1 4 3
0 0 0 0 0 0 0 0 21 45 52 57 58 49 71 182 248 264 100 128 246 540 440 526 530 544 508 710 635 310 444 356 239 293 368 481 585 1009 639 342 216 184 292 307 250 201 172 80 28 34 24 12 2 0
0 0 0 0 0 0 0 8 42 31 70 68 63 52 169 165 254 158 185 396 470 427 428 407 269 70 343 483 559 553 479 332 301 333 393 383 302 503 564 468 380 251 226 271 335 258 207 122 6 0 3 10 15 11
0 0 0 0 6 0 47 37 40 97 73 105 101 203 355 268 81 204 225 259 57 73 309 190 99 19 72 211 378 567 656 445 365 424 374 422 380 359 311 300 90 290 209 127 244 233 229 117 3 4 3 7 6 12
0 0 0 0 5 1 0 49 108 159 99 106 152 152 107 79 112 37 23 131 133 141 127 46 23 31 34 70 137 225 349 389 440 495 427 370 356 436 471 417 352 422 510 259 243 257 280 53 32 33 13 6 4 6
0 0 28 2 0 0 15 91 114 126 129 141 83 116 44 100 55 39 13 5 1 106 143 6 17 18 19 66 131 297 535 462 412 375 307 300 294 366 525 489 532 150 250 246 200 107 101 93 47 19 21 22 5 4
0 4 3 87 71 58 138 138 191 152 134 218 148 160 101 5 0 15 17 3 18 16 16 20 12 5 117 267 363 525 532 441 370 334 377 631 813 312 259 471 406 349 339 97 20 9 12 21 10 11 21 8 9 33
9 14 23 39 35 21 54 115 223 105 142 122 132 89 49 96 42 2 1 0 0 0 0 0 0 7 34 19 34 25 26 36 30 25 18 8 13 3 7 10 10 19 47 52 40 21 0 2 18 25 23 14 12 22
5 15 8 20 6 0 33 55 115 102 60 74 57 77 68 48 13 0 0 0 2 15 25 21 12 15 6 3 11 17 20 36 29 25 10 21 29 28 27 12 1 0 0 1 0 0 1 9 26 23 12 0 4 16
1 0 0 0 52 4 44 40 17 88 93 70 13 0 102 86 7 5 0 30 35 32 1 28 31 26 10 0 0 0 0 0 0 0 0 3 4 3 21 28 13 7 5 0 1 2 1 8 15 20 29 13 0 3
0 0 0 0 0 0 0 0 0 20 55 0 0 58 50 19 5 6 0 0 2 2 0 0 0 0 0 0 0 0 0 0 0 0 0 0 0 0 4 12 10 5 5 0 0 1 2 6 17 31 34 3 4 6